<?xml version="1.0" encoding="UTF-8" standalone="no" ?>
<gpx xmlns="http://www.topografix.com/GPX/1/1" xmlns:xsi="http://www.w3.org/2001/XMLSchema-instance" xsi:schemaLocation="http://www.topografix.com/GPX/1/1 http://www.topografix.com/GPX/1/1/gpx.xsd" version="1.1" creator="VisuGPX - https://www.visugpx.com">
  <metadata>
    <name>VTT LABRUGUIERE FONTBRUNO</name>
    <desc><![CDATA[LES HAUTEURS DE LABRUGUIERE ]]></desc>
  </metadata>
  <trk>
    <name><![CDATA[2015-11-01T08_0]]></name>
    <trkseg>
      <trkpt lat="43.50817" lon="2.26079">
        <ele>306.3172607</ele>
        <time>2015-11-01T08:06:09Z</time>
      </trkpt>
      <trkpt lat="43.50794" lon="2.26084">
        <ele>304.8752441</ele>
        <time>2015-11-01T08:06:17Z</time>
      </trkpt>
      <trkpt lat="43.50778" lon="2.26089">
        <ele>305.355957</ele>
        <time>2015-11-01T08:06:23Z</time>
      </trkpt>
      <trkpt lat="43.50752" lon="2.26102">
        <ele>305.8366699</ele>
        <time>2015-11-01T08:06:33Z</time>
      </trkpt>
      <trkpt lat="43.50733" lon="2.26105">
        <ele>305.355957</ele>
        <time>2015-11-01T08:06:40Z</time>
      </trkpt>
      <trkpt lat="43.50719" lon="2.26108">
        <ele>305.355957</ele>
        <time>2015-11-01T08:06:46Z</time>
      </trkpt>
      <trkpt lat="43.50699" lon="2.26109">
        <ele>305.355957</ele>
        <time>2015-11-01T08:06:53Z</time>
      </trkpt>
      <trkpt lat="43.50687" lon="2.26109">
        <ele>305.355957</ele>
        <time>2015-11-01T08:06:57Z</time>
      </trkpt>
      <trkpt lat="43.5067" lon="2.26112">
        <ele>306.3172607</ele>
        <time>2015-11-01T08:07:04Z</time>
      </trkpt>
      <trkpt lat="43.50658" lon="2.26111">
        <ele>306.7978516</ele>
        <time>2015-11-01T08:07:09Z</time>
      </trkpt>
      <trkpt lat="43.50641" lon="2.26114">
        <ele>306.7978516</ele>
        <time>2015-11-01T08:07:16Z</time>
      </trkpt>
      <trkpt lat="43.50631" lon="2.26116">
        <ele>307.7592773</ele>
        <time>2015-11-01T08:07:20Z</time>
      </trkpt>
      <trkpt lat="43.50618" lon="2.26115">
        <ele>311.1237793</ele>
        <time>2015-11-01T08:07:25Z</time>
      </trkpt>
      <trkpt lat="43.50603" lon="2.26114">
        <ele>314.4884033</ele>
        <time>2015-11-01T08:07:31Z</time>
      </trkpt>
      <trkpt lat="43.50589" lon="2.26115">
        <ele>317.3724365</ele>
        <time>2015-11-01T08:07:37Z</time>
      </trkpt>
      <trkpt lat="43.50572" lon="2.26117">
        <ele>317.3724365</ele>
        <time>2015-11-01T08:07:44Z</time>
      </trkpt>
      <trkpt lat="43.50557" lon="2.26117">
        <ele>316.8917236</ele>
        <time>2015-11-01T08:07:50Z</time>
      </trkpt>
      <trkpt lat="43.50544" lon="2.26118">
        <ele>315.9304199</ele>
        <time>2015-11-01T08:07:55Z</time>
      </trkpt>
      <trkpt lat="43.50527" lon="2.26125">
        <ele>317.3724365</ele>
        <time>2015-11-01T08:08:02Z</time>
      </trkpt>
      <trkpt lat="43.50513" lon="2.26141">
        <ele>321.6983643</ele>
        <time>2015-11-01T08:08:09Z</time>
      </trkpt>
      <trkpt lat="43.505" lon="2.26161">
        <ele>332.75354</ele>
        <time>2015-11-01T08:08:16Z</time>
      </trkpt>
      <trkpt lat="43.50486" lon="2.26176">
        <ele>333.2341309</ele>
        <time>2015-11-01T08:08:22Z</time>
      </trkpt>
      <trkpt lat="43.5047" lon="2.26195">
        <ele>334.1954346</ele>
        <time>2015-11-01T08:08:29Z</time>
      </trkpt>
      <trkpt lat="43.5046" lon="2.26214">
        <ele>331.3115234</ele>
        <time>2015-11-01T08:08:35Z</time>
      </trkpt>
      <trkpt lat="43.50455" lon="2.26223">
        <ele>327.4661865</ele>
        <time>2015-11-01T08:08:38Z</time>
      </trkpt>
      <trkpt lat="43.5044" lon="2.26239">
        <ele>327.4661865</ele>
        <time>2015-11-01T08:08:43Z</time>
      </trkpt>
      <trkpt lat="43.5042" lon="2.26257">
        <ele>327.9467773</ele>
        <time>2015-11-01T08:08:50Z</time>
      </trkpt>
      <trkpt lat="43.504" lon="2.26272">
        <ele>327.9467773</ele>
        <time>2015-11-01T08:08:57Z</time>
      </trkpt>
      <trkpt lat="43.50383" lon="2.26286">
        <ele>326.5048828</ele>
        <time>2015-11-01T08:09:03Z</time>
      </trkpt>
      <trkpt lat="43.50353" lon="2.26312">
        <ele>326.0241699</ele>
        <time>2015-11-01T08:09:14Z</time>
      </trkpt>
      <trkpt lat="43.5033" lon="2.26323">
        <ele>327.4661865</ele>
        <time>2015-11-01T08:09:22Z</time>
      </trkpt>
      <trkpt lat="43.50313" lon="2.26328">
        <ele>329.388916</ele>
        <time>2015-11-01T08:09:28Z</time>
      </trkpt>
      <trkpt lat="43.50295" lon="2.26332">
        <ele>329.388916</ele>
        <time>2015-11-01T08:09:34Z</time>
      </trkpt>
      <trkpt lat="43.50279" lon="2.26338">
        <ele>326.9855957</ele>
        <time>2015-11-01T08:09:40Z</time>
      </trkpt>
      <trkpt lat="43.50265" lon="2.26352">
        <ele>327.4661865</ele>
        <time>2015-11-01T08:09:46Z</time>
      </trkpt>
      <trkpt lat="43.50242" lon="2.26374">
        <ele>328.9083252</ele>
        <time>2015-11-01T08:09:56Z</time>
      </trkpt>
      <trkpt lat="43.50222" lon="2.26389">
        <ele>328.4276123</ele>
        <time>2015-11-01T08:10:05Z</time>
      </trkpt>
      <trkpt lat="43.50206" lon="2.26397">
        <ele>328.9083252</ele>
        <time>2015-11-01T08:10:12Z</time>
      </trkpt>
      <trkpt lat="43.50185" lon="2.26405">
        <ele>328.4276123</ele>
        <time>2015-11-01T08:10:21Z</time>
      </trkpt>
      <trkpt lat="43.50163" lon="2.26413">
        <ele>329.388916</ele>
        <time>2015-11-01T08:10:30Z</time>
      </trkpt>
      <trkpt lat="43.5014" lon="2.26423">
        <ele>331.3115234</ele>
        <time>2015-11-01T08:10:39Z</time>
      </trkpt>
      <trkpt lat="43.50116" lon="2.26436">
        <ele>334.6761475</ele>
        <time>2015-11-01T08:10:48Z</time>
      </trkpt>
      <trkpt lat="43.50096" lon="2.26455">
        <ele>337.5600586</ele>
        <time>2015-11-01T08:10:57Z</time>
      </trkpt>
      <trkpt lat="43.50078" lon="2.26475">
        <ele>339.0020752</ele>
        <time>2015-11-01T08:11:06Z</time>
      </trkpt>
      <trkpt lat="43.5006" lon="2.26492">
        <ele>338.5214844</ele>
        <time>2015-11-01T08:11:14Z</time>
      </trkpt>
      <trkpt lat="43.5004" lon="2.26506">
        <ele>340.9246826</ele>
        <time>2015-11-01T08:11:22Z</time>
      </trkpt>
      <trkpt lat="43.50018" lon="2.26511">
        <ele>343.8085938</ele>
        <time>2015-11-01T08:11:30Z</time>
      </trkpt>
      <trkpt lat="43.49995" lon="2.26513">
        <ele>341.8859863</ele>
        <time>2015-11-01T08:11:39Z</time>
      </trkpt>
      <trkpt lat="43.49976" lon="2.2652">
        <ele>340.9246826</ele>
        <time>2015-11-01T08:11:47Z</time>
      </trkpt>
      <trkpt lat="43.49954" lon="2.26534">
        <ele>342.3666992</ele>
        <time>2015-11-01T08:11:56Z</time>
      </trkpt>
      <trkpt lat="43.49939" lon="2.26556">
        <ele>343.8085938</ele>
        <time>2015-11-01T08:12:04Z</time>
      </trkpt>
      <trkpt lat="43.49937" lon="2.26578">
        <ele>345.2506104</ele>
        <time>2015-11-01T08:12:10Z</time>
      </trkpt>
      <trkpt lat="43.49943" lon="2.26603">
        <ele>345.2506104</ele>
        <time>2015-11-01T08:12:16Z</time>
      </trkpt>
      <trkpt lat="43.49949" lon="2.26625">
        <ele>347.6539307</ele>
        <time>2015-11-01T08:12:21Z</time>
      </trkpt>
      <trkpt lat="43.49958" lon="2.26636">
        <ele>351.9798584</ele>
        <time>2015-11-01T08:12:25Z</time>
      </trkpt>
      <trkpt lat="43.49972" lon="2.2664">
        <ele>356.3057861</ele>
        <time>2015-11-01T08:12:30Z</time>
      </trkpt>
      <trkpt lat="43.49989" lon="2.26639">
        <ele>359.6704102</ele>
        <time>2015-11-01T08:12:36Z</time>
      </trkpt>
      <trkpt lat="43.50009" lon="2.26638">
        <ele>362.0737305</ele>
        <time>2015-11-01T08:12:42Z</time>
      </trkpt>
      <trkpt lat="43.50032" lon="2.2664">
        <ele>367.8415527</ele>
        <time>2015-11-01T08:12:49Z</time>
      </trkpt>
      <trkpt lat="43.50049" lon="2.26636">
        <ele>366.3995361</ele>
        <time>2015-11-01T08:12:56Z</time>
      </trkpt>
      <trkpt lat="43.50068" lon="2.26638">
        <ele>369.7642822</ele>
        <time>2015-11-01T08:13:03Z</time>
      </trkpt>
      <trkpt lat="43.50082" lon="2.26644">
        <ele>372.1674805</ele>
        <time>2015-11-01T08:13:09Z</time>
      </trkpt>
      <trkpt lat="43.5009" lon="2.26649">
        <ele>369.2836914</ele>
        <time>2015-11-01T08:13:13Z</time>
      </trkpt>
      <trkpt lat="43.50099" lon="2.26654">
        <ele>361.1124268</ele>
        <time>2015-11-01T08:13:17Z</time>
      </trkpt>
      <trkpt lat="43.50114" lon="2.26664">
        <ele>370.7255859</ele>
        <time>2015-11-01T08:13:23Z</time>
      </trkpt>
      <trkpt lat="43.50121" lon="2.26672">
        <ele>372.6481934</ele>
        <time>2015-11-01T08:13:27Z</time>
      </trkpt>
      <trkpt lat="43.50113" lon="2.2668">
        <ele>368.8029785</ele>
        <time>2015-11-01T08:13:32Z</time>
      </trkpt>
      <trkpt lat="43.50106" lon="2.26677">
        <ele>373.6094971</ele>
        <time>2015-11-01T08:13:37Z</time>
      </trkpt>
      <trkpt lat="43.50097" lon="2.26665">
        <ele>376.0128174</ele>
        <time>2015-11-01T08:13:43Z</time>
      </trkpt>
      <trkpt lat="43.50085" lon="2.26657">
        <ele>374.0900879</ele>
        <time>2015-11-01T08:13:48Z</time>
      </trkpt>
      <trkpt lat="43.50068" lon="2.26655">
        <ele>370.7255859</ele>
        <time>2015-11-01T08:13:54Z</time>
      </trkpt>
      <trkpt lat="43.50053" lon="2.26659">
        <ele>371.6868896</ele>
        <time>2015-11-01T08:14:01Z</time>
      </trkpt>
      <trkpt lat="43.50032" lon="2.26657">
        <ele>373.1289063</ele>
        <time>2015-11-01T08:14:09Z</time>
      </trkpt>
      <trkpt lat="43.50015" lon="2.2666">
        <ele>372.1674805</ele>
        <time>2015-11-01T08:14:16Z</time>
      </trkpt>
      <trkpt lat="43.5" lon="2.26664">
        <ele>370.7255859</ele>
        <time>2015-11-01T08:14:22Z</time>
      </trkpt>
      <trkpt lat="43.49993" lon="2.26674">
        <ele>371.2062988</ele>
        <time>2015-11-01T08:14:27Z</time>
      </trkpt>
      <trkpt lat="43.49981" lon="2.26683">
        <ele>370.244873</ele>
        <time>2015-11-01T08:14:33Z</time>
      </trkpt>
      <trkpt lat="43.49968" lon="2.2669">
        <ele>371.2062988</ele>
        <time>2015-11-01T08:14:39Z</time>
      </trkpt>
      <trkpt lat="43.49956" lon="2.26696">
        <ele>367.3609619</ele>
        <time>2015-11-01T08:14:45Z</time>
      </trkpt>
      <trkpt lat="43.49941" lon="2.26697">
        <ele>366.3995361</ele>
        <time>2015-11-01T08:14:51Z</time>
      </trkpt>
      <trkpt lat="43.49928" lon="2.26704">
        <ele>367.3609619</ele>
        <time>2015-11-01T08:14:57Z</time>
      </trkpt>
      <trkpt lat="43.49917" lon="2.26711">
        <ele>367.3609619</ele>
        <time>2015-11-01T08:15:03Z</time>
      </trkpt>
      <trkpt lat="43.49906" lon="2.26722">
        <ele>371.6868896</ele>
        <time>2015-11-01T08:15:09Z</time>
      </trkpt>
      <trkpt lat="43.49892" lon="2.26725">
        <ele>369.7642822</ele>
        <time>2015-11-01T08:15:15Z</time>
      </trkpt>
      <trkpt lat="43.49881" lon="2.26735">
        <ele>371.2062988</ele>
        <time>2015-11-01T08:15:21Z</time>
      </trkpt>
      <trkpt lat="43.49866" lon="2.26741">
        <ele>371.6868896</ele>
        <time>2015-11-01T08:15:28Z</time>
      </trkpt>
      <trkpt lat="43.49852" lon="2.26737">
        <ele>369.7642822</ele>
        <time>2015-11-01T08:15:33Z</time>
      </trkpt>
      <trkpt lat="43.49841" lon="2.26747">
        <ele>370.244873</ele>
        <time>2015-11-01T08:15:39Z</time>
      </trkpt>
      <trkpt lat="43.4982" lon="2.26749">
        <ele>371.2062988</ele>
        <time>2015-11-01T08:15:47Z</time>
      </trkpt>
      <trkpt lat="43.49803" lon="2.26756">
        <ele>375.0515137</ele>
        <time>2015-11-01T08:15:54Z</time>
      </trkpt>
      <trkpt lat="43.49783" lon="2.26768">
        <ele>380.3387451</ele>
        <time>2015-11-01T08:16:03Z</time>
      </trkpt>
      <trkpt lat="43.49777" lon="2.26779">
        <ele>380.819458</ele>
        <time>2015-11-01T08:16:08Z</time>
      </trkpt>
      <trkpt lat="43.49768" lon="2.26787">
        <ele>382.2613525</ele>
        <time>2015-11-01T08:16:13Z</time>
      </trkpt>
      <trkpt lat="43.49755" lon="2.26792">
        <ele>382.2613525</ele>
        <time>2015-11-01T08:16:19Z</time>
      </trkpt>
      <trkpt lat="43.49751" lon="2.26794">
        <ele>381.3000488</ele>
        <time>2015-11-01T08:16:21Z</time>
      </trkpt>
      <trkpt lat="43.49742" lon="2.26798">
        <ele>383.7032471</ele>
        <time>2015-11-01T08:16:25Z</time>
      </trkpt>
      <trkpt lat="43.49729" lon="2.26808">
        <ele>383.7032471</ele>
        <time>2015-11-01T08:16:33Z</time>
      </trkpt>
      <trkpt lat="43.49717" lon="2.26814">
        <ele>382.7420654</ele>
        <time>2015-11-01T08:16:39Z</time>
      </trkpt>
      <trkpt lat="43.49706" lon="2.26822">
        <ele>384.6647949</ele>
        <time>2015-11-01T08:16:45Z</time>
      </trkpt>
      <trkpt lat="43.49693" lon="2.26828">
        <ele>385.1453857</ele>
        <time>2015-11-01T08:16:51Z</time>
      </trkpt>
      <trkpt lat="43.49686" lon="2.26836">
        <ele>384.6647949</ele>
        <time>2015-11-01T08:16:56Z</time>
      </trkpt>
      <trkpt lat="43.49676" lon="2.26852">
        <ele>390.4326172</ele>
        <time>2015-11-01T08:17:03Z</time>
      </trkpt>
      <trkpt lat="43.49661" lon="2.26864">
        <ele>399.0843506</ele>
        <time>2015-11-01T08:17:11Z</time>
      </trkpt>
      <trkpt lat="43.4965" lon="2.26867">
        <ele>398.6037598</ele>
        <time>2015-11-01T08:17:16Z</time>
      </trkpt>
      <trkpt lat="43.4964" lon="2.26871">
        <ele>401.0070801</ele>
        <time>2015-11-01T08:17:21Z</time>
      </trkpt>
      <trkpt lat="43.4963" lon="2.26873">
        <ele>409.1783447</ele>
        <time>2015-11-01T08:17:26Z</time>
      </trkpt>
      <trkpt lat="43.4962" lon="2.26879">
        <ele>411.581665</ele>
        <time>2015-11-01T08:17:31Z</time>
      </trkpt>
      <trkpt lat="43.49604" lon="2.26886">
        <ele>412.0622559</ele>
        <time>2015-11-01T08:17:39Z</time>
      </trkpt>
      <trkpt lat="43.4959" lon="2.26886">
        <ele>408.217041</ele>
        <time>2015-11-01T08:17:45Z</time>
      </trkpt>
      <trkpt lat="43.49577" lon="2.26888">
        <ele>410.6202393</ele>
        <time>2015-11-01T08:17:51Z</time>
      </trkpt>
      <trkpt lat="43.49566" lon="2.2689">
        <ele>417.3496094</ele>
        <time>2015-11-01T08:17:56Z</time>
      </trkpt>
      <trkpt lat="43.49548" lon="2.26895">
        <ele>414.946167</ele>
        <time>2015-11-01T08:18:04Z</time>
      </trkpt>
      <trkpt lat="43.49531" lon="2.26898">
        <ele>413.5042725</ele>
        <time>2015-11-01T08:18:11Z</time>
      </trkpt>
      <trkpt lat="43.49513" lon="2.269">
        <ele>408.6976318</ele>
        <time>2015-11-01T08:18:19Z</time>
      </trkpt>
      <trkpt lat="43.49495" lon="2.26899">
        <ele>403.8911133</ele>
        <time>2015-11-01T08:18:26Z</time>
      </trkpt>
      <trkpt lat="43.49479" lon="2.26901">
        <ele>403.4104004</ele>
        <time>2015-11-01T08:18:33Z</time>
      </trkpt>
      <trkpt lat="43.49463" lon="2.26912">
        <ele>402.9296875</ele>
        <time>2015-11-01T08:18:40Z</time>
      </trkpt>
      <trkpt lat="43.49452" lon="2.26924">
        <ele>400.0458984</ele>
        <time>2015-11-01T08:18:47Z</time>
      </trkpt>
      <trkpt lat="43.49451" lon="2.26925">
        <ele>400.0458984</ele>
        <time>2015-11-01T08:18:48Z</time>
      </trkpt>
      <trkpt lat="43.49445" lon="2.26925">
        <ele>400.0458984</ele>
        <time>2015-11-01T08:18:55Z</time>
      </trkpt>
      <trkpt lat="43.49443" lon="2.26926">
        <ele>400.0458984</ele>
        <time>2015-11-01T08:19:04Z</time>
      </trkpt>
      <trkpt lat="43.4944" lon="2.26922">
        <ele>404.8522949</ele>
        <time>2015-11-01T08:19:20Z</time>
      </trkpt>
      <trkpt lat="43.49442" lon="2.26925">
        <ele>406.7749023</ele>
        <time>2015-11-01T08:19:37Z</time>
      </trkpt>
      <trkpt lat="43.4944" lon="2.26926">
        <ele>407.7363281</ele>
        <time>2015-11-01T08:20:07Z</time>
      </trkpt>
      <trkpt lat="43.49441" lon="2.26928">
        <ele>415.9074707</ele>
        <time>2015-11-01T08:20:38Z</time>
      </trkpt>
      <trkpt lat="43.49447" lon="2.26929">
        <ele>421.675415</ele>
        <time>2015-11-01T08:20:53Z</time>
      </trkpt>
      <trkpt lat="43.49446" lon="2.2693">
        <ele>422.1560059</ele>
        <time>2015-11-01T08:21:00Z</time>
      </trkpt>
      <trkpt lat="43.4944" lon="2.26923">
        <ele>413.9848633</ele>
        <time>2015-11-01T08:21:05Z</time>
      </trkpt>
      <trkpt lat="43.49432" lon="2.2691">
        <ele>409.1783447</ele>
        <time>2015-11-01T08:21:10Z</time>
      </trkpt>
      <trkpt lat="43.49422" lon="2.26894">
        <ele>403.8911133</ele>
        <time>2015-11-01T08:21:16Z</time>
      </trkpt>
      <trkpt lat="43.4941" lon="2.26875">
        <ele>402.4490967</ele>
        <time>2015-11-01T08:21:23Z</time>
      </trkpt>
      <trkpt lat="43.49399" lon="2.26862">
        <ele>402.9296875</ele>
        <time>2015-11-01T08:21:29Z</time>
      </trkpt>
      <trkpt lat="43.49386" lon="2.2685">
        <ele>404.3717041</ele>
        <time>2015-11-01T08:21:35Z</time>
      </trkpt>
      <trkpt lat="43.49382" lon="2.26845">
        <ele>406.2943115</ele>
        <time>2015-11-01T08:21:37Z</time>
      </trkpt>
      <trkpt lat="43.49383" lon="2.26834">
        <ele>409.6590576</ele>
        <time>2015-11-01T08:21:42Z</time>
      </trkpt>
      <trkpt lat="43.49388" lon="2.26833">
        <ele>410.1396484</ele>
        <time>2015-11-01T08:21:43Z</time>
      </trkpt>
      <trkpt lat="43.49416" lon="2.26812">
        <ele>407.7363281</ele>
        <time>2015-11-01T08:21:47Z</time>
      </trkpt>
      <trkpt lat="43.49423" lon="2.26807">
        <ele>405.8137207</ele>
        <time>2015-11-01T08:21:48Z</time>
      </trkpt>
      <trkpt lat="43.49463" lon="2.26785">
        <ele>399.0843506</ele>
        <time>2015-11-01T08:21:53Z</time>
      </trkpt>
      <trkpt lat="43.49471" lon="2.26782">
        <ele>399.0843506</ele>
        <time>2015-11-01T08:21:54Z</time>
      </trkpt>
      <trkpt lat="43.49492" lon="2.26766">
        <ele>397.1617432</ele>
        <time>2015-11-01T08:21:58Z</time>
      </trkpt>
      <trkpt lat="43.49498" lon="2.26762">
        <ele>397.6424561</ele>
        <time>2015-11-01T08:22:00Z</time>
      </trkpt>
      <trkpt lat="43.49507" lon="2.26751">
        <ele>395.2391357</ele>
        <time>2015-11-01T08:22:04Z</time>
      </trkpt>
      <trkpt lat="43.49531" lon="2.26733">
        <ele>395.2391357</ele>
        <time>2015-11-01T08:22:13Z</time>
      </trkpt>
      <trkpt lat="43.49546" lon="2.26723">
        <ele>395.7198486</ele>
        <time>2015-11-01T08:22:19Z</time>
      </trkpt>
      <trkpt lat="43.49561" lon="2.2671">
        <ele>397.1617432</ele>
        <time>2015-11-01T08:22:26Z</time>
      </trkpt>
      <trkpt lat="43.49575" lon="2.26694">
        <ele>399.0843506</ele>
        <time>2015-11-01T08:22:33Z</time>
      </trkpt>
      <trkpt lat="43.49589" lon="2.26678">
        <ele>401.487793</ele>
        <time>2015-11-01T08:22:41Z</time>
      </trkpt>
      <trkpt lat="43.496" lon="2.26667">
        <ele>405.3330078</ele>
        <time>2015-11-01T08:22:47Z</time>
      </trkpt>
      <trkpt lat="43.49615" lon="2.26653">
        <ele>408.6976318</ele>
        <time>2015-11-01T08:22:54Z</time>
      </trkpt>
      <trkpt lat="43.49633" lon="2.26633">
        <ele>408.6976318</ele>
        <time>2015-11-01T08:23:03Z</time>
      </trkpt>
      <trkpt lat="43.49646" lon="2.26616">
        <ele>407.7363281</ele>
        <time>2015-11-01T08:23:11Z</time>
      </trkpt>
      <trkpt lat="43.4966" lon="2.26602">
        <ele>405.3330078</ele>
        <time>2015-11-01T08:23:18Z</time>
      </trkpt>
      <trkpt lat="43.49668" lon="2.26591">
        <ele>397.6424561</ele>
        <time>2015-11-01T08:23:23Z</time>
      </trkpt>
      <trkpt lat="43.49677" lon="2.26574">
        <ele>408.6976318</ele>
        <time>2015-11-01T08:23:30Z</time>
      </trkpt>
      <trkpt lat="43.49678" lon="2.26556">
        <ele>408.217041</ele>
        <time>2015-11-01T08:23:36Z</time>
      </trkpt>
      <trkpt lat="43.49674" lon="2.26536">
        <ele>410.6202393</ele>
        <time>2015-11-01T08:23:42Z</time>
      </trkpt>
      <trkpt lat="43.49672" lon="2.26517">
        <ele>408.6976318</ele>
        <time>2015-11-01T08:23:48Z</time>
      </trkpt>
      <trkpt lat="43.49675" lon="2.26495">
        <ele>407.2556152</ele>
        <time>2015-11-01T08:23:56Z</time>
      </trkpt>
      <trkpt lat="43.49682" lon="2.26467">
        <ele>406.2943115</ele>
        <time>2015-11-01T08:24:06Z</time>
      </trkpt>
      <trkpt lat="43.49689" lon="2.26446">
        <ele>403.8911133</ele>
        <time>2015-11-01T08:24:14Z</time>
      </trkpt>
      <trkpt lat="43.49696" lon="2.2643">
        <ele>405.3330078</ele>
        <time>2015-11-01T08:24:20Z</time>
      </trkpt>
      <trkpt lat="43.497" lon="2.26416">
        <ele>413.9848633</ele>
        <time>2015-11-01T08:24:26Z</time>
      </trkpt>
      <trkpt lat="43.49702" lon="2.26396">
        <ele>430.8079834</ele>
        <time>2015-11-01T08:24:33Z</time>
      </trkpt>
      <trkpt lat="43.49704" lon="2.26379">
        <ele>431.2885742</ele>
        <time>2015-11-01T08:24:38Z</time>
      </trkpt>
      <trkpt lat="43.49718" lon="2.26375">
        <ele>446.6696777</ele>
        <time>2015-11-01T08:24:43Z</time>
      </trkpt>
      <trkpt lat="43.49722" lon="2.26378">
        <ele>449.072998</ele>
        <time>2015-11-01T08:24:45Z</time>
      </trkpt>
      <trkpt lat="43.49732" lon="2.26395">
        <ele>441.8631592</ele>
        <time>2015-11-01T08:24:53Z</time>
      </trkpt>
      <trkpt lat="43.49739" lon="2.26406">
        <ele>439.4597168</ele>
        <time>2015-11-01T08:24:58Z</time>
      </trkpt>
      <trkpt lat="43.49748" lon="2.26419">
        <ele>437.0565186</ele>
        <time>2015-11-01T08:25:04Z</time>
      </trkpt>
      <trkpt lat="43.49755" lon="2.26434">
        <ele>434.6533203</ele>
        <time>2015-11-01T08:25:08Z</time>
      </trkpt>
      <trkpt lat="43.49766" lon="2.26458">
        <ele>434.1726074</ele>
        <time>2015-11-01T08:25:12Z</time>
      </trkpt>
      <trkpt lat="43.49787" lon="2.26491">
        <ele>429.8465576</ele>
        <time>2015-11-01T08:25:17Z</time>
      </trkpt>
      <trkpt lat="43.49812" lon="2.26504">
        <ele>423.1174316</ele>
        <time>2015-11-01T08:25:21Z</time>
      </trkpt>
      <trkpt lat="43.49832" lon="2.26495">
        <ele>418.310791</ele>
        <time>2015-11-01T08:25:24Z</time>
      </trkpt>
      <trkpt lat="43.49849" lon="2.26479">
        <ele>415.9074707</ele>
        <time>2015-11-01T08:25:27Z</time>
      </trkpt>
      <trkpt lat="43.49864" lon="2.26441">
        <ele>399.5650635</ele>
        <time>2015-11-01T08:25:31Z</time>
      </trkpt>
      <trkpt lat="43.49883" lon="2.26397">
        <ele>396.2005615</ele>
        <time>2015-11-01T08:25:36Z</time>
      </trkpt>
      <trkpt lat="43.4989" lon="2.26346">
        <ele>394.2779541</ele>
        <time>2015-11-01T08:25:41Z</time>
      </trkpt>
      <trkpt lat="43.49893" lon="2.26301">
        <ele>393.7972412</ele>
        <time>2015-11-01T08:25:45Z</time>
      </trkpt>
      <trkpt lat="43.49909" lon="2.26294">
        <ele>394.7585449</ele>
        <time>2015-11-01T08:25:49Z</time>
      </trkpt>
      <trkpt lat="43.49912" lon="2.26293">
        <ele>394.7585449</ele>
        <time>2015-11-01T08:25:50Z</time>
      </trkpt>
      <trkpt lat="43.49929" lon="2.26291">
        <ele>398.6037598</ele>
        <time>2015-11-01T08:25:54Z</time>
      </trkpt>
      <trkpt lat="43.49936" lon="2.26288">
        <ele>401.0070801</ele>
        <time>2015-11-01T08:25:56Z</time>
      </trkpt>
      <trkpt lat="43.49946" lon="2.26279">
        <ele>402.9296875</ele>
        <time>2015-11-01T08:26:00Z</time>
      </trkpt>
      <trkpt lat="43.49957" lon="2.26254">
        <ele>403.8911133</ele>
        <time>2015-11-01T08:26:07Z</time>
      </trkpt>
      <trkpt lat="43.49962" lon="2.26227">
        <ele>406.7749023</ele>
        <time>2015-11-01T08:26:14Z</time>
      </trkpt>
      <trkpt lat="43.4996" lon="2.26196">
        <ele>407.7363281</ele>
        <time>2015-11-01T08:26:22Z</time>
      </trkpt>
      <trkpt lat="43.49964" lon="2.26175">
        <ele>409.6590576</ele>
        <time>2015-11-01T08:26:28Z</time>
      </trkpt>
      <trkpt lat="43.49974" lon="2.26159">
        <ele>411.581665</ele>
        <time>2015-11-01T08:26:35Z</time>
      </trkpt>
      <trkpt lat="43.4998" lon="2.26146">
        <ele>413.0235596</ele>
        <time>2015-11-01T08:26:41Z</time>
      </trkpt>
      <trkpt lat="43.49986" lon="2.26136">
        <ele>413.9848633</ele>
        <time>2015-11-01T08:26:47Z</time>
      </trkpt>
      <trkpt lat="43.49984" lon="2.2613">
        <ele>414.946167</ele>
        <time>2015-11-01T08:26:51Z</time>
      </trkpt>
      <trkpt lat="43.4998" lon="2.26134">
        <ele>416.3881836</ele>
        <time>2015-11-01T08:26:55Z</time>
      </trkpt>
      <trkpt lat="43.49981" lon="2.26135">
        <ele>417.3496094</ele>
        <time>2015-11-01T08:27:03Z</time>
      </trkpt>
      <trkpt lat="43.49984" lon="2.26134">
        <ele>418.7915039</ele>
        <time>2015-11-01T08:27:12Z</time>
      </trkpt>
      <trkpt lat="43.49984" lon="2.26131">
        <ele>418.310791</ele>
        <time>2015-11-01T08:27:17Z</time>
      </trkpt>
      <trkpt lat="43.49982" lon="2.26131">
        <ele>418.7915039</ele>
        <time>2015-11-01T08:27:28Z</time>
      </trkpt>
      <trkpt lat="43.49971" lon="2.26145">
        <ele>420.7141113</ele>
        <time>2015-11-01T08:27:36Z</time>
      </trkpt>
      <trkpt lat="43.49957" lon="2.26167">
        <ele>422.6367188</ele>
        <time>2015-11-01T08:27:45Z</time>
      </trkpt>
      <trkpt lat="43.4995" lon="2.26184">
        <ele>423.5980225</ele>
        <time>2015-11-01T08:27:52Z</time>
      </trkpt>
      <trkpt lat="43.49943" lon="2.26208">
        <ele>425.520752</ele>
        <time>2015-11-01T08:28:01Z</time>
      </trkpt>
      <trkpt lat="43.49937" lon="2.26222">
        <ele>426.9627686</ele>
        <time>2015-11-01T08:28:07Z</time>
      </trkpt>
      <trkpt lat="43.49929" lon="2.26233">
        <ele>426.4820557</ele>
        <time>2015-11-01T08:28:13Z</time>
      </trkpt>
      <trkpt lat="43.49922" lon="2.26238">
        <ele>426.4820557</ele>
        <time>2015-11-01T08:28:17Z</time>
      </trkpt>
      <trkpt lat="43.4991" lon="2.26244">
        <ele>426.9627686</ele>
        <time>2015-11-01T08:28:24Z</time>
      </trkpt>
      <trkpt lat="43.49902" lon="2.26238">
        <ele>427.9239502</ele>
        <time>2015-11-01T08:28:29Z</time>
      </trkpt>
      <trkpt lat="43.49901" lon="2.2623">
        <ele>428.4046631</ele>
        <time>2015-11-01T08:28:32Z</time>
      </trkpt>
      <trkpt lat="43.49906" lon="2.2621">
        <ele>429.8465576</ele>
        <time>2015-11-01T08:28:40Z</time>
      </trkpt>
      <trkpt lat="43.49907" lon="2.26191">
        <ele>430.3272705</ele>
        <time>2015-11-01T08:28:47Z</time>
      </trkpt>
      <trkpt lat="43.49907" lon="2.26169">
        <ele>431.2885742</ele>
        <time>2015-11-01T08:28:55Z</time>
      </trkpt>
      <trkpt lat="43.49908" lon="2.26149">
        <ele>433.6918945</ele>
        <time>2015-11-01T08:29:03Z</time>
      </trkpt>
      <trkpt lat="43.49909" lon="2.26136">
        <ele>434.1726074</ele>
        <time>2015-11-01T08:29:08Z</time>
      </trkpt>
      <trkpt lat="43.49912" lon="2.26117">
        <ele>435.614502</ele>
        <time>2015-11-01T08:29:16Z</time>
      </trkpt>
      <trkpt lat="43.49917" lon="2.26099">
        <ele>437.5371094</ele>
        <time>2015-11-01T08:29:23Z</time>
      </trkpt>
      <trkpt lat="43.49922" lon="2.26079">
        <ele>439.9404297</ele>
        <time>2015-11-01T08:29:31Z</time>
      </trkpt>
      <trkpt lat="43.49929" lon="2.26057">
        <ele>441.8631592</ele>
        <time>2015-11-01T08:29:40Z</time>
      </trkpt>
      <trkpt lat="43.49935" lon="2.26037">
        <ele>443.3050537</ele>
        <time>2015-11-01T08:29:48Z</time>
      </trkpt>
      <trkpt lat="43.49939" lon="2.26015">
        <ele>442.8244629</ele>
        <time>2015-11-01T08:29:56Z</time>
      </trkpt>
      <trkpt lat="43.49943" lon="2.25997">
        <ele>443.7857666</ele>
        <time>2015-11-01T08:30:03Z</time>
      </trkpt>
      <trkpt lat="43.49943" lon="2.25983">
        <ele>445.708374</ele>
        <time>2015-11-01T08:30:08Z</time>
      </trkpt>
      <trkpt lat="43.49941" lon="2.25973">
        <ele>446.1890869</ele>
        <time>2015-11-01T08:30:12Z</time>
      </trkpt>
      <trkpt lat="43.49934" lon="2.25964">
        <ele>446.6696777</ele>
        <time>2015-11-01T08:30:17Z</time>
      </trkpt>
      <trkpt lat="43.49922" lon="2.25956">
        <ele>449.072998</ele>
        <time>2015-11-01T08:30:25Z</time>
      </trkpt>
      <trkpt lat="43.49913" lon="2.25952">
        <ele>450.9956055</ele>
        <time>2015-11-01T08:30:31Z</time>
      </trkpt>
      <trkpt lat="43.499" lon="2.25947">
        <ele>450.9956055</ele>
        <time>2015-11-01T08:30:37Z</time>
      </trkpt>
      <trkpt lat="43.49891" lon="2.25944">
        <ele>453.8796387</ele>
        <time>2015-11-01T08:30:43Z</time>
      </trkpt>
      <trkpt lat="43.49882" lon="2.25941">
        <ele>456.282959</ele>
        <time>2015-11-01T08:30:48Z</time>
      </trkpt>
      <trkpt lat="43.49873" lon="2.25938">
        <ele>457.7249756</ele>
        <time>2015-11-01T08:30:53Z</time>
      </trkpt>
      <trkpt lat="43.4986" lon="2.25934">
        <ele>459.647583</ele>
        <time>2015-11-01T08:31:00Z</time>
      </trkpt>
      <trkpt lat="43.49855" lon="2.25932">
        <ele>460.6087646</ele>
        <time>2015-11-01T08:31:04Z</time>
      </trkpt>
      <trkpt lat="43.49839" lon="2.25926">
        <ele>461.5701904</ele>
        <time>2015-11-01T08:31:12Z</time>
      </trkpt>
      <trkpt lat="43.49825" lon="2.25919">
        <ele>463.4927979</ele>
        <time>2015-11-01T08:31:20Z</time>
      </trkpt>
      <trkpt lat="43.49816" lon="2.25914">
        <ele>463.012085</ele>
        <time>2015-11-01T08:31:25Z</time>
      </trkpt>
      <trkpt lat="43.49802" lon="2.25911">
        <ele>463.012085</ele>
        <time>2015-11-01T08:31:32Z</time>
      </trkpt>
      <trkpt lat="43.49791" lon="2.2591">
        <ele>463.9733887</ele>
        <time>2015-11-01T08:31:38Z</time>
      </trkpt>
      <trkpt lat="43.4978" lon="2.25911">
        <ele>463.9733887</ele>
        <time>2015-11-01T08:31:44Z</time>
      </trkpt>
      <trkpt lat="43.49771" lon="2.25911">
        <ele>463.9733887</ele>
        <time>2015-11-01T08:31:49Z</time>
      </trkpt>
      <trkpt lat="43.49765" lon="2.2592">
        <ele>466.376709</ele>
        <time>2015-11-01T08:31:54Z</time>
      </trkpt>
      <trkpt lat="43.49769" lon="2.25937">
        <ele>469.741333</ele>
        <time>2015-11-01T08:32:01Z</time>
      </trkpt>
      <trkpt lat="43.49774" lon="2.2595">
        <ele>470.7026367</ele>
        <time>2015-11-01T08:32:07Z</time>
      </trkpt>
      <trkpt lat="43.49779" lon="2.25969">
        <ele>475.5092773</ele>
        <time>2015-11-01T08:32:15Z</time>
      </trkpt>
      <trkpt lat="43.49784" lon="2.25989">
        <ele>479.3544922</ele>
        <time>2015-11-01T08:32:23Z</time>
      </trkpt>
      <trkpt lat="43.49784" lon="2.26006">
        <ele>479.835083</ele>
        <time>2015-11-01T08:32:29Z</time>
      </trkpt>
      <trkpt lat="43.49786" lon="2.26021">
        <ele>479.835083</ele>
        <time>2015-11-01T08:32:35Z</time>
      </trkpt>
      <trkpt lat="43.49788" lon="2.26041">
        <ele>480.7966309</ele>
        <time>2015-11-01T08:32:43Z</time>
      </trkpt>
      <trkpt lat="43.49786" lon="2.26058">
        <ele>481.7578125</ele>
        <time>2015-11-01T08:32:50Z</time>
      </trkpt>
      <trkpt lat="43.49781" lon="2.26075">
        <ele>483.1998291</ele>
        <time>2015-11-01T08:32:57Z</time>
      </trkpt>
      <trkpt lat="43.49775" lon="2.26089">
        <ele>485.6030273</ele>
        <time>2015-11-01T08:33:04Z</time>
      </trkpt>
      <trkpt lat="43.49769" lon="2.26102">
        <ele>486.0837402</ele>
        <time>2015-11-01T08:33:10Z</time>
      </trkpt>
      <trkpt lat="43.49763" lon="2.26115">
        <ele>486.5644531</ele>
        <time>2015-11-01T08:33:16Z</time>
      </trkpt>
      <trkpt lat="43.49753" lon="2.26127">
        <ele>483.6804199</ele>
        <time>2015-11-01T08:33:23Z</time>
      </trkpt>
      <trkpt lat="43.49741" lon="2.26131">
        <ele>482.2385254</ele>
        <time>2015-11-01T08:33:30Z</time>
      </trkpt>
      <trkpt lat="43.49728" lon="2.26122">
        <ele>483.6804199</ele>
        <time>2015-11-01T08:33:38Z</time>
      </trkpt>
      <trkpt lat="43.4972" lon="2.26114">
        <ele>488.0064697</ele>
        <time>2015-11-01T08:33:44Z</time>
      </trkpt>
      <trkpt lat="43.49712" lon="2.26103">
        <ele>489.4483643</ele>
        <time>2015-11-01T08:33:50Z</time>
      </trkpt>
      <trkpt lat="43.49702" lon="2.26091">
        <ele>490.8903809</ele>
        <time>2015-11-01T08:33:57Z</time>
      </trkpt>
      <trkpt lat="43.49691" lon="2.26081">
        <ele>493.774292</ele>
        <time>2015-11-01T08:34:05Z</time>
      </trkpt>
      <trkpt lat="43.49684" lon="2.26074">
        <ele>495.2161865</ele>
        <time>2015-11-01T08:34:10Z</time>
      </trkpt>
      <trkpt lat="43.49676" lon="2.26067">
        <ele>494.7355957</ele>
        <time>2015-11-01T08:34:15Z</time>
      </trkpt>
      <trkpt lat="43.4967" lon="2.26063">
        <ele>495.6968994</ele>
        <time>2015-11-01T08:34:18Z</time>
      </trkpt>
      <trkpt lat="43.49662" lon="2.26057">
        <ele>495.6968994</ele>
        <time>2015-11-01T08:34:24Z</time>
      </trkpt>
      <trkpt lat="43.49658" lon="2.26053">
        <ele>496.6583252</ele>
        <time>2015-11-01T08:34:27Z</time>
      </trkpt>
      <trkpt lat="43.49657" lon="2.26047">
        <ele>498.5809326</ele>
        <time>2015-11-01T08:34:32Z</time>
      </trkpt>
      <trkpt lat="43.49659" lon="2.26043">
        <ele>499.0615234</ele>
        <time>2015-11-01T08:34:35Z</time>
      </trkpt>
      <trkpt lat="43.49656" lon="2.26039">
        <ele>500.0229492</ele>
        <time>2015-11-01T08:34:40Z</time>
      </trkpt>
      <trkpt lat="43.49652" lon="2.26038">
        <ele>501.4648438</ele>
        <time>2015-11-01T08:34:46Z</time>
      </trkpt>
      <trkpt lat="43.49651" lon="2.26038">
        <ele>502.9067383</ele>
        <time>2015-11-01T08:34:55Z</time>
      </trkpt>
      <trkpt lat="43.49649" lon="2.26035">
        <ele>507.2327881</ele>
        <time>2015-11-01T08:35:08Z</time>
      </trkpt>
      <trkpt lat="43.49649" lon="2.26034">
        <ele>509.1553955</ele>
        <time>2015-11-01T08:35:22Z</time>
      </trkpt>
      <trkpt lat="43.4965" lon="2.26037">
        <ele>511.0780029</ele>
        <time>2015-11-01T08:35:46Z</time>
      </trkpt>
      <trkpt lat="43.49649" lon="2.26038">
        <ele>513.9620361</ele>
        <time>2015-11-01T08:36:05Z</time>
      </trkpt>
      <trkpt lat="43.49649" lon="2.26037">
        <ele>510.1166992</ele>
        <time>2015-11-01T08:37:08Z</time>
      </trkpt>
      <trkpt lat="43.49649" lon="2.26036">
        <ele>508.6746826</ele>
        <time>2015-11-01T08:37:19Z</time>
      </trkpt>
      <trkpt lat="43.49649" lon="2.26036">
        <ele>508.1940918</ele>
        <time>2015-11-01T08:37:24Z</time>
      </trkpt>
      <trkpt lat="43.49648" lon="2.26035">
        <ele>507.713501</ele>
        <time>2015-11-01T08:37:46Z</time>
      </trkpt>
      <trkpt lat="43.49646" lon="2.26036">
        <ele>508.1940918</ele>
        <time>2015-11-01T08:38:08Z</time>
      </trkpt>
      <trkpt lat="43.49636" lon="2.26033">
        <ele>507.2327881</ele>
        <time>2015-11-01T08:38:13Z</time>
      </trkpt>
      <trkpt lat="43.49634" lon="2.26031">
        <ele>506.7520752</ele>
        <time>2015-11-01T08:38:14Z</time>
      </trkpt>
      <trkpt lat="43.49622" lon="2.2602">
        <ele>506.2714844</ele>
        <time>2015-11-01T08:38:22Z</time>
      </trkpt>
      <trkpt lat="43.49617" lon="2.26019">
        <ele>506.2714844</ele>
        <time>2015-11-01T08:38:26Z</time>
      </trkpt>
      <trkpt lat="43.49609" lon="2.26014">
        <ele>506.2714844</ele>
        <time>2015-11-01T08:38:31Z</time>
      </trkpt>
      <trkpt lat="43.49601" lon="2.2601">
        <ele>506.7520752</ele>
        <time>2015-11-01T08:38:37Z</time>
      </trkpt>
      <trkpt lat="43.49596" lon="2.26005">
        <ele>509.1553955</ele>
        <time>2015-11-01T08:38:43Z</time>
      </trkpt>
      <trkpt lat="43.49588" lon="2.25997">
        <ele>509.6361084</ele>
        <time>2015-11-01T08:38:49Z</time>
      </trkpt>
      <trkpt lat="43.49587" lon="2.25997">
        <ele>510.59729</ele>
        <time>2015-11-01T08:38:50Z</time>
      </trkpt>
      <trkpt lat="43.49577" lon="2.25988">
        <ele>510.59729</ele>
        <time>2015-11-01T08:38:56Z</time>
      </trkpt>
      <trkpt lat="43.49569" lon="2.2598">
        <ele>513.0007324</ele>
        <time>2015-11-01T08:39:02Z</time>
      </trkpt>
      <trkpt lat="43.49562" lon="2.2597">
        <ele>515.4040527</ele>
        <time>2015-11-01T08:39:09Z</time>
      </trkpt>
      <trkpt lat="43.49555" lon="2.25962">
        <ele>517.3266602</ele>
        <time>2015-11-01T08:39:16Z</time>
      </trkpt>
      <trkpt lat="43.49548" lon="2.25952">
        <ele>518.7685547</ele>
        <time>2015-11-01T08:39:22Z</time>
      </trkpt>
      <trkpt lat="43.49543" lon="2.25943">
        <ele>518.2878418</ele>
        <time>2015-11-01T08:39:28Z</time>
      </trkpt>
      <trkpt lat="43.49542" lon="2.25941">
        <ele>518.2878418</ele>
        <time>2015-11-01T08:39:29Z</time>
      </trkpt>
      <trkpt lat="43.49532" lon="2.25933">
        <ele>517.807251</ele>
        <time>2015-11-01T08:39:36Z</time>
      </trkpt>
      <trkpt lat="43.49522" lon="2.25927">
        <ele>518.2878418</ele>
        <time>2015-11-01T08:39:41Z</time>
      </trkpt>
      <trkpt lat="43.49514" lon="2.25924">
        <ele>520.2105713</ele>
        <time>2015-11-01T08:39:46Z</time>
      </trkpt>
      <trkpt lat="43.49496" lon="2.25918">
        <ele>520.2105713</ele>
        <time>2015-11-01T08:39:54Z</time>
      </trkpt>
      <trkpt lat="43.49481" lon="2.25916">
        <ele>519.2492676</ele>
        <time>2015-11-01T08:40:01Z</time>
      </trkpt>
      <trkpt lat="43.4947" lon="2.25918">
        <ele>520.6912842</ele>
        <time>2015-11-01T08:40:07Z</time>
      </trkpt>
      <trkpt lat="43.49456" lon="2.25917">
        <ele>522.1331787</ele>
        <time>2015-11-01T08:40:13Z</time>
      </trkpt>
      <trkpt lat="43.49442" lon="2.25923">
        <ele>525.9783936</ele>
        <time>2015-11-01T08:40:20Z</time>
      </trkpt>
      <trkpt lat="43.49424" lon="2.25925">
        <ele>524.0557861</ele>
        <time>2015-11-01T08:40:29Z</time>
      </trkpt>
      <trkpt lat="43.49408" lon="2.25929">
        <ele>525.0172119</ele>
        <time>2015-11-01T08:40:37Z</time>
      </trkpt>
      <trkpt lat="43.49398" lon="2.25938">
        <ele>523.0946045</ele>
        <time>2015-11-01T08:40:44Z</time>
      </trkpt>
      <trkpt lat="43.49394" lon="2.25942">
        <ele>520.6912842</ele>
        <time>2015-11-01T08:40:47Z</time>
      </trkpt>
      <trkpt lat="43.49381" lon="2.25956">
        <ele>525.4978027</ele>
        <time>2015-11-01T08:40:56Z</time>
      </trkpt>
      <trkpt lat="43.49369" lon="2.25969">
        <ele>529.3431396</ele>
        <time>2015-11-01T08:41:04Z</time>
      </trkpt>
      <trkpt lat="43.49362" lon="2.25978">
        <ele>528.8625488</ele>
        <time>2015-11-01T08:41:10Z</time>
      </trkpt>
      <trkpt lat="43.49352" lon="2.25985">
        <ele>529.8237305</ele>
        <time>2015-11-01T08:41:17Z</time>
      </trkpt>
      <trkpt lat="43.49341" lon="2.2599">
        <ele>533.1883545</ele>
        <time>2015-11-01T08:41:24Z</time>
      </trkpt>
      <trkpt lat="43.4933" lon="2.25993">
        <ele>536.0723877</ele>
        <time>2015-11-01T08:41:31Z</time>
      </trkpt>
      <trkpt lat="43.49321" lon="2.25998">
        <ele>536.0723877</ele>
        <time>2015-11-01T08:41:37Z</time>
      </trkpt>
      <trkpt lat="43.49317" lon="2.25998">
        <ele>535.1109619</ele>
        <time>2015-11-01T08:41:42Z</time>
      </trkpt>
      <trkpt lat="43.49314" lon="2.25993">
        <ele>534.1496582</ele>
        <time>2015-11-01T08:41:46Z</time>
      </trkpt>
      <trkpt lat="43.49313" lon="2.25982">
        <ele>531.2657471</ele>
        <time>2015-11-01T08:41:53Z</time>
      </trkpt>
      <trkpt lat="43.4931" lon="2.2597">
        <ele>530.3044434</ele>
        <time>2015-11-01T08:41:59Z</time>
      </trkpt>
      <trkpt lat="43.49304" lon="2.25949">
        <ele>530.3044434</ele>
        <time>2015-11-01T08:42:08Z</time>
      </trkpt>
      <trkpt lat="43.49301" lon="2.25933">
        <ele>531.7463379</ele>
        <time>2015-11-01T08:42:15Z</time>
      </trkpt>
      <trkpt lat="43.49296" lon="2.25915">
        <ele>531.2657471</ele>
        <time>2015-11-01T08:42:23Z</time>
      </trkpt>
      <trkpt lat="43.49292" lon="2.25902">
        <ele>532.2270508</ele>
        <time>2015-11-01T08:42:29Z</time>
      </trkpt>
      <trkpt lat="43.49282" lon="2.25891">
        <ele>534.1496582</ele>
        <time>2015-11-01T08:42:37Z</time>
      </trkpt>
      <trkpt lat="43.49269" lon="2.25883">
        <ele>536.5531006</ele>
        <time>2015-11-01T08:42:45Z</time>
      </trkpt>
      <trkpt lat="43.49258" lon="2.25872">
        <ele>539.4368896</ele>
        <time>2015-11-01T08:42:54Z</time>
      </trkpt>
      <trkpt lat="43.49249" lon="2.25863">
        <ele>539.4368896</ele>
        <time>2015-11-01T08:43:00Z</time>
      </trkpt>
      <trkpt lat="43.49248" lon="2.25863">
        <ele>539.4368896</ele>
        <time>2015-11-01T08:43:01Z</time>
      </trkpt>
      <trkpt lat="43.49242" lon="2.25857">
        <ele>540.3983154</ele>
        <time>2015-11-01T08:43:07Z</time>
      </trkpt>
      <trkpt lat="43.49237" lon="2.2585">
        <ele>547.6081543</ele>
        <time>2015-11-01T08:43:12Z</time>
      </trkpt>
      <trkpt lat="43.49228" lon="2.25842">
        <ele>549.0500488</ele>
        <time>2015-11-01T08:43:19Z</time>
      </trkpt>
      <trkpt lat="43.49217" lon="2.25834">
        <ele>551.4533691</ele>
        <time>2015-11-01T08:43:26Z</time>
      </trkpt>
      <trkpt lat="43.4921" lon="2.25829">
        <ele>551.934082</ele>
        <time>2015-11-01T08:43:31Z</time>
      </trkpt>
      <trkpt lat="43.492" lon="2.25821">
        <ele>552.4145508</ele>
        <time>2015-11-01T08:43:38Z</time>
      </trkpt>
      <trkpt lat="43.49194" lon="2.25811">
        <ele>552.4145508</ele>
        <time>2015-11-01T08:43:43Z</time>
      </trkpt>
      <trkpt lat="43.49194" lon="2.258">
        <ele>551.4533691</ele>
        <time>2015-11-01T08:43:48Z</time>
      </trkpt>
      <trkpt lat="43.49199" lon="2.25785">
        <ele>550.0114746</ele>
        <time>2015-11-01T08:43:56Z</time>
      </trkpt>
      <trkpt lat="43.49203" lon="2.25771">
        <ele>549.0500488</ele>
        <time>2015-11-01T08:44:03Z</time>
      </trkpt>
      <trkpt lat="43.49208" lon="2.25759">
        <ele>549.0500488</ele>
        <time>2015-11-01T08:44:09Z</time>
      </trkpt>
      <trkpt lat="43.49216" lon="2.25745">
        <ele>551.934082</ele>
        <time>2015-11-01T08:44:17Z</time>
      </trkpt>
      <trkpt lat="43.49225" lon="2.25731">
        <ele>553.8566895</ele>
        <time>2015-11-01T08:44:25Z</time>
      </trkpt>
      <trkpt lat="43.49231" lon="2.25718">
        <ele>553.8566895</ele>
        <time>2015-11-01T08:44:31Z</time>
      </trkpt>
      <trkpt lat="43.4924" lon="2.25699">
        <ele>553.3759766</ele>
        <time>2015-11-01T08:44:40Z</time>
      </trkpt>
      <trkpt lat="43.49245" lon="2.25685">
        <ele>552.8952637</ele>
        <time>2015-11-01T08:44:47Z</time>
      </trkpt>
      <trkpt lat="43.49247" lon="2.2568">
        <ele>552.8952637</ele>
        <time>2015-11-01T08:44:49Z</time>
      </trkpt>
      <trkpt lat="43.4925" lon="2.25664">
        <ele>551.934082</ele>
        <time>2015-11-01T08:44:56Z</time>
      </trkpt>
      <trkpt lat="43.49251" lon="2.25653">
        <ele>551.934082</ele>
        <time>2015-11-01T08:45:01Z</time>
      </trkpt>
      <trkpt lat="43.4925" lon="2.25648">
        <ele>552.8952637</ele>
        <time>2015-11-01T08:45:03Z</time>
      </trkpt>
      <trkpt lat="43.49246" lon="2.25627">
        <ele>555.7792969</ele>
        <time>2015-11-01T08:45:12Z</time>
      </trkpt>
      <trkpt lat="43.49242" lon="2.25613">
        <ele>556.2600098</ele>
        <time>2015-11-01T08:45:19Z</time>
      </trkpt>
      <trkpt lat="43.49236" lon="2.256">
        <ele>558.1828613</ele>
        <time>2015-11-01T08:45:26Z</time>
      </trkpt>
      <trkpt lat="43.49229" lon="2.25579">
        <ele>559.6247559</ele>
        <time>2015-11-01T08:45:36Z</time>
      </trkpt>
      <trkpt lat="43.49226" lon="2.25568">
        <ele>562.9892578</ele>
        <time>2015-11-01T08:45:42Z</time>
      </trkpt>
      <trkpt lat="43.49219" lon="2.25548">
        <ele>564.9118652</ele>
        <time>2015-11-01T08:45:52Z</time>
      </trkpt>
      <trkpt lat="43.49217" lon="2.25543">
        <ele>565.3925781</ele>
        <time>2015-11-01T08:45:55Z</time>
      </trkpt>
      <trkpt lat="43.49212" lon="2.25529">
        <ele>566.3537598</ele>
        <time>2015-11-01T08:46:03Z</time>
      </trkpt>
      <trkpt lat="43.49205" lon="2.25518">
        <ele>567.7956543</ele>
        <time>2015-11-01T08:46:10Z</time>
      </trkpt>
      <trkpt lat="43.49196" lon="2.25509">
        <ele>569.237793</ele>
        <time>2015-11-01T08:46:18Z</time>
      </trkpt>
      <trkpt lat="43.49185" lon="2.25501">
        <ele>572.6025391</ele>
        <time>2015-11-01T08:46:27Z</time>
      </trkpt>
      <trkpt lat="43.49184" lon="2.255">
        <ele>573.5639648</ele>
        <time>2015-11-01T08:46:28Z</time>
      </trkpt>
      <trkpt lat="43.49182" lon="2.25496">
        <ele>574.5251465</ele>
        <time>2015-11-01T08:46:31Z</time>
      </trkpt>
      <trkpt lat="43.49178" lon="2.25492">
        <ele>576.9284668</ele>
        <time>2015-11-01T08:46:35Z</time>
      </trkpt>
      <trkpt lat="43.49168" lon="2.25481">
        <ele>576.9284668</ele>
        <time>2015-11-01T08:46:43Z</time>
      </trkpt>
      <trkpt lat="43.49161" lon="2.25473">
        <ele>577.8896484</ele>
        <time>2015-11-01T08:46:49Z</time>
      </trkpt>
      <trkpt lat="43.4915" lon="2.25462">
        <ele>578.3703613</ele>
        <time>2015-11-01T08:46:57Z</time>
      </trkpt>
      <trkpt lat="43.49137" lon="2.25453">
        <ele>576.4477539</ele>
        <time>2015-11-01T08:47:05Z</time>
      </trkpt>
      <trkpt lat="43.49125" lon="2.25438">
        <ele>578.8510742</ele>
        <time>2015-11-01T08:47:12Z</time>
      </trkpt>
      <trkpt lat="43.49118" lon="2.25418">
        <ele>579.331543</ele>
        <time>2015-11-01T08:47:19Z</time>
      </trkpt>
      <trkpt lat="43.49118" lon="2.25403">
        <ele>578.3703613</ele>
        <time>2015-11-01T08:47:25Z</time>
      </trkpt>
      <trkpt lat="43.4912" lon="2.25384">
        <ele>577.8896484</ele>
        <time>2015-11-01T08:47:33Z</time>
      </trkpt>
      <trkpt lat="43.49124" lon="2.25364">
        <ele>577.8896484</ele>
        <time>2015-11-01T08:47:41Z</time>
      </trkpt>
      <trkpt lat="43.49127" lon="2.25349">
        <ele>576.4477539</ele>
        <time>2015-11-01T08:47:47Z</time>
      </trkpt>
      <trkpt lat="43.4913" lon="2.25331">
        <ele>575.4863281</ele>
        <time>2015-11-01T08:47:53Z</time>
      </trkpt>
      <trkpt lat="43.49133" lon="2.25311">
        <ele>576.4477539</ele>
        <time>2015-11-01T08:48:00Z</time>
      </trkpt>
      <trkpt lat="43.49133" lon="2.25297">
        <ele>576.9284668</ele>
        <time>2015-11-01T08:48:05Z</time>
      </trkpt>
      <trkpt lat="43.49131" lon="2.25276">
        <ele>579.8122559</ele>
        <time>2015-11-01T08:48:13Z</time>
      </trkpt>
      <trkpt lat="43.4913" lon="2.25257">
        <ele>581.2543945</ele>
        <time>2015-11-01T08:48:20Z</time>
      </trkpt>
      <trkpt lat="43.49127" lon="2.25233">
        <ele>585.0996094</ele>
        <time>2015-11-01T08:48:29Z</time>
      </trkpt>
      <trkpt lat="43.49124" lon="2.25217">
        <ele>586.5415039</ele>
        <time>2015-11-01T08:48:36Z</time>
      </trkpt>
      <trkpt lat="43.49118" lon="2.25198">
        <ele>587.9833984</ele>
        <time>2015-11-01T08:48:44Z</time>
      </trkpt>
      <trkpt lat="43.49112" lon="2.25178">
        <ele>588.9450684</ele>
        <time>2015-11-01T08:48:52Z</time>
      </trkpt>
      <trkpt lat="43.49108" lon="2.25166">
        <ele>590.8674316</ele>
        <time>2015-11-01T08:48:58Z</time>
      </trkpt>
      <trkpt lat="43.49106" lon="2.25154">
        <ele>591.8288574</ele>
        <time>2015-11-01T08:49:04Z</time>
      </trkpt>
      <trkpt lat="43.49104" lon="2.25141">
        <ele>593.270752</ele>
        <time>2015-11-01T08:49:11Z</time>
      </trkpt>
      <trkpt lat="43.49103" lon="2.25138">
        <ele>593.270752</ele>
        <time>2015-11-01T08:49:18Z</time>
      </trkpt>
      <trkpt lat="43.49103" lon="2.25138">
        <ele>593.270752</ele>
        <time>2015-11-01T08:49:28Z</time>
      </trkpt>
      <trkpt lat="43.49102" lon="2.25138">
        <ele>591.3481445</ele>
        <time>2015-11-01T08:49:55Z</time>
      </trkpt>
      <trkpt lat="43.49102" lon="2.25139">
        <ele>592.7902832</ele>
        <time>2015-11-01T08:50:14Z</time>
      </trkpt>
      <trkpt lat="43.49099" lon="2.25144">
        <ele>597.1159668</ele>
        <time>2015-11-01T08:50:45Z</time>
      </trkpt>
      <trkpt lat="43.49104" lon="2.25141">
        <ele>600</ele>
        <time>2015-11-01T08:51:36Z</time>
      </trkpt>
      <trkpt lat="43.49104" lon="2.25141">
        <ele>598.0773926</ele>
        <time>2015-11-01T08:51:47Z</time>
      </trkpt>
      <trkpt lat="43.49101" lon="2.25136">
        <ele>597.1159668</ele>
        <time>2015-11-01T08:51:53Z</time>
      </trkpt>
      <trkpt lat="43.49099" lon="2.2513">
        <ele>596.635498</ele>
        <time>2015-11-01T08:51:58Z</time>
      </trkpt>
      <trkpt lat="43.49099" lon="2.25128">
        <ele>596.1547852</ele>
        <time>2015-11-01T08:51:59Z</time>
      </trkpt>
      <trkpt lat="43.491" lon="2.25105">
        <ele>593.270752</ele>
        <time>2015-11-01T08:52:06Z</time>
      </trkpt>
      <trkpt lat="43.49101" lon="2.25077">
        <ele>590.3869629</ele>
        <time>2015-11-01T08:52:13Z</time>
      </trkpt>
      <trkpt lat="43.49099" lon="2.25057">
        <ele>588.9450684</ele>
        <time>2015-11-01T08:52:17Z</time>
      </trkpt>
      <trkpt lat="43.49096" lon="2.25027">
        <ele>586.060791</ele>
        <time>2015-11-01T08:52:21Z</time>
      </trkpt>
      <trkpt lat="43.49092" lon="2.24974">
        <ele>583.1767578</ele>
        <time>2015-11-01T08:52:27Z</time>
      </trkpt>
      <trkpt lat="43.49095" lon="2.24951">
        <ele>581.2543945</ele>
        <time>2015-11-01T08:52:31Z</time>
      </trkpt>
      <trkpt lat="43.49104" lon="2.24935">
        <ele>580.7736816</ele>
        <time>2015-11-01T08:52:35Z</time>
      </trkpt>
      <trkpt lat="43.49121" lon="2.24916">
        <ele>583.1767578</ele>
        <time>2015-11-01T08:52:40Z</time>
      </trkpt>
      <trkpt lat="43.49133" lon="2.24908">
        <ele>585.5800781</ele>
        <time>2015-11-01T08:52:43Z</time>
      </trkpt>
      <trkpt lat="43.49158" lon="2.24889">
        <ele>594.2321777</ele>
        <time>2015-11-01T08:52:49Z</time>
      </trkpt>
      <trkpt lat="43.49167" lon="2.24882">
        <ele>594.7126465</ele>
        <time>2015-11-01T08:52:51Z</time>
      </trkpt>
      <trkpt lat="43.49202" lon="2.24864">
        <ele>598.0773926</ele>
        <time>2015-11-01T08:52:58Z</time>
      </trkpt>
      <trkpt lat="43.49232" lon="2.2485">
        <ele>594.7126465</ele>
        <time>2015-11-01T08:53:04Z</time>
      </trkpt>
      <trkpt lat="43.4926" lon="2.24838">
        <ele>592.3095703</ele>
        <time>2015-11-01T08:53:10Z</time>
      </trkpt>
      <trkpt lat="43.49302" lon="2.24829">
        <ele>583.1767578</ele>
        <time>2015-11-01T08:53:18Z</time>
      </trkpt>
      <trkpt lat="43.49349" lon="2.24821">
        <ele>579.331543</ele>
        <time>2015-11-01T08:53:26Z</time>
      </trkpt>
      <trkpt lat="43.49401" lon="2.24809">
        <ele>576.4477539</ele>
        <time>2015-11-01T08:53:34Z</time>
      </trkpt>
      <trkpt lat="43.49448" lon="2.248">
        <ele>572.6025391</ele>
        <time>2015-11-01T08:53:40Z</time>
      </trkpt>
      <trkpt lat="43.4948" lon="2.24795">
        <ele>571.1604004</ele>
        <time>2015-11-01T08:53:44Z</time>
      </trkpt>
      <trkpt lat="43.49517" lon="2.24787">
        <ele>573.5639648</ele>
        <time>2015-11-01T08:53:49Z</time>
      </trkpt>
      <trkpt lat="43.49537" lon="2.24762">
        <ele>567.7956543</ele>
        <time>2015-11-01T08:53:52Z</time>
      </trkpt>
      <trkpt lat="43.49543" lon="2.24732">
        <ele>566.3537598</ele>
        <time>2015-11-01T08:53:55Z</time>
      </trkpt>
      <trkpt lat="43.4954" lon="2.24701">
        <ele>566.8344727</ele>
        <time>2015-11-01T08:53:59Z</time>
      </trkpt>
      <trkpt lat="43.49536" lon="2.24688">
        <ele>567.3151855</ele>
        <time>2015-11-01T08:54:01Z</time>
      </trkpt>
      <trkpt lat="43.49532" lon="2.24679">
        <ele>568.2763672</ele>
        <time>2015-11-01T08:54:03Z</time>
      </trkpt>
      <trkpt lat="43.4952" lon="2.2466">
        <ele>569.7185059</ele>
        <time>2015-11-01T08:54:09Z</time>
      </trkpt>
      <trkpt lat="43.49513" lon="2.24654">
        <ele>570.1989746</ele>
        <time>2015-11-01T08:54:12Z</time>
      </trkpt>
      <trkpt lat="43.49496" lon="2.24644">
        <ele>572.1218262</ele>
        <time>2015-11-01T08:54:20Z</time>
      </trkpt>
      <trkpt lat="43.49481" lon="2.24634">
        <ele>573.083252</ele>
        <time>2015-11-01T08:54:27Z</time>
      </trkpt>
      <trkpt lat="43.4947" lon="2.24631">
        <ele>574.0444336</ele>
        <time>2015-11-01T08:54:33Z</time>
      </trkpt>
      <trkpt lat="43.49456" lon="2.2463">
        <ele>574.5251465</ele>
        <time>2015-11-01T08:54:39Z</time>
      </trkpt>
      <trkpt lat="43.49434" lon="2.24625">
        <ele>575.0058594</ele>
        <time>2015-11-01T08:54:48Z</time>
      </trkpt>
      <trkpt lat="43.49418" lon="2.24626">
        <ele>576.9284668</ele>
        <time>2015-11-01T08:54:55Z</time>
      </trkpt>
      <trkpt lat="43.49405" lon="2.24629">
        <ele>578.3703613</ele>
        <time>2015-11-01T08:55:01Z</time>
      </trkpt>
      <trkpt lat="43.49386" lon="2.24633">
        <ele>580.2929688</ele>
        <time>2015-11-01T08:55:09Z</time>
      </trkpt>
      <trkpt lat="43.49364" lon="2.24643">
        <ele>582.2155762</ele>
        <time>2015-11-01T08:55:19Z</time>
      </trkpt>
      <trkpt lat="43.4935" lon="2.2465">
        <ele>584.1381836</ele>
        <time>2015-11-01T08:55:26Z</time>
      </trkpt>
      <trkpt lat="43.49332" lon="2.24659">
        <ele>586.5415039</ele>
        <time>2015-11-01T08:55:34Z</time>
      </trkpt>
      <trkpt lat="43.49317" lon="2.24666">
        <ele>588.4643555</ele>
        <time>2015-11-01T08:55:41Z</time>
      </trkpt>
      <trkpt lat="43.49299" lon="2.24677">
        <ele>592.7902832</ele>
        <time>2015-11-01T08:55:49Z</time>
      </trkpt>
      <trkpt lat="43.49284" lon="2.24687">
        <ele>595.1933594</ele>
        <time>2015-11-01T08:55:56Z</time>
      </trkpt>
      <trkpt lat="43.49272" lon="2.24698">
        <ele>596.1547852</ele>
        <time>2015-11-01T08:56:03Z</time>
      </trkpt>
      <trkpt lat="43.49259" lon="2.2471">
        <ele>599.0385742</ele>
        <time>2015-11-01T08:56:10Z</time>
      </trkpt>
      <trkpt lat="43.49248" lon="2.24718">
        <ele>600</ele>
        <time>2015-11-01T08:56:16Z</time>
      </trkpt>
      <trkpt lat="43.49233" lon="2.24728">
        <ele>599.0385742</ele>
        <time>2015-11-01T08:56:24Z</time>
      </trkpt>
      <trkpt lat="43.49218" lon="2.24732">
        <ele>599.5192871</ele>
        <time>2015-11-01T08:56:31Z</time>
      </trkpt>
      <trkpt lat="43.49203" lon="2.24735">
        <ele>600</ele>
        <time>2015-11-01T08:56:38Z</time>
      </trkpt>
      <trkpt lat="43.49191" lon="2.24739">
        <ele>600</ele>
        <time>2015-11-01T08:56:44Z</time>
      </trkpt>
      <trkpt lat="43.49176" lon="2.24745">
        <ele>600</ele>
        <time>2015-11-01T08:56:51Z</time>
      </trkpt>
      <trkpt lat="43.49161" lon="2.24755">
        <ele>603.364502</ele>
        <time>2015-11-01T08:56:59Z</time>
      </trkpt>
      <trkpt lat="43.49146" lon="2.24768">
        <ele>607.2099609</ele>
        <time>2015-11-01T08:57:07Z</time>
      </trkpt>
      <trkpt lat="43.49136" lon="2.24776">
        <ele>609.6132813</ele>
        <time>2015-11-01T08:57:13Z</time>
      </trkpt>
      <trkpt lat="43.49127" lon="2.24775">
        <ele>610.5744629</ele>
        <time>2015-11-01T08:57:19Z</time>
      </trkpt>
      <trkpt lat="43.49113" lon="2.24769">
        <ele>610.5744629</ele>
        <time>2015-11-01T08:57:26Z</time>
      </trkpt>
      <trkpt lat="43.49103" lon="2.24765">
        <ele>612.4970703</ele>
        <time>2015-11-01T08:57:31Z</time>
      </trkpt>
      <trkpt lat="43.49092" lon="2.24761">
        <ele>612.4970703</ele>
        <time>2015-11-01T08:57:37Z</time>
      </trkpt>
      <trkpt lat="43.49081" lon="2.24759">
        <ele>613.4584961</ele>
        <time>2015-11-01T08:57:42Z</time>
      </trkpt>
      <trkpt lat="43.49069" lon="2.24754">
        <ele>614.9003906</ele>
        <time>2015-11-01T08:57:48Z</time>
      </trkpt>
      <trkpt lat="43.49054" lon="2.24749">
        <ele>616.822998</ele>
        <time>2015-11-01T08:57:56Z</time>
      </trkpt>
      <trkpt lat="43.49041" lon="2.24743">
        <ele>619.2263184</ele>
        <time>2015-11-01T08:58:02Z</time>
      </trkpt>
      <trkpt lat="43.49029" lon="2.24735">
        <ele>619.2263184</ele>
        <time>2015-11-01T08:58:09Z</time>
      </trkpt>
      <trkpt lat="43.49013" lon="2.24728">
        <ele>619.7070313</ele>
        <time>2015-11-01T08:58:17Z</time>
      </trkpt>
      <trkpt lat="43.48992" lon="2.24727">
        <ele>618.2648926</ele>
        <time>2015-11-01T08:58:26Z</time>
      </trkpt>
      <trkpt lat="43.48974" lon="2.24731">
        <ele>619.7070313</ele>
        <time>2015-11-01T08:58:34Z</time>
      </trkpt>
      <trkpt lat="43.48957" lon="2.24737">
        <ele>621.1491699</ele>
        <time>2015-11-01T08:58:42Z</time>
      </trkpt>
      <trkpt lat="43.48943" lon="2.24736">
        <ele>627.8781738</ele>
        <time>2015-11-01T08:58:49Z</time>
      </trkpt>
      <trkpt lat="43.48926" lon="2.24739">
        <ele>632.2041016</ele>
        <time>2015-11-01T08:58:57Z</time>
      </trkpt>
      <trkpt lat="43.48913" lon="2.24736">
        <ele>635.5686035</ele>
        <time>2015-11-01T08:59:04Z</time>
      </trkpt>
      <trkpt lat="43.48902" lon="2.24731">
        <ele>637.0107422</ele>
        <time>2015-11-01T08:59:10Z</time>
      </trkpt>
      <trkpt lat="43.48887" lon="2.24725">
        <ele>637.4914551</ele>
        <time>2015-11-01T08:59:17Z</time>
      </trkpt>
      <trkpt lat="43.48874" lon="2.24722">
        <ele>637.0107422</ele>
        <time>2015-11-01T08:59:23Z</time>
      </trkpt>
      <trkpt lat="43.48861" lon="2.24718">
        <ele>639.8947754</ele>
        <time>2015-11-01T08:59:29Z</time>
      </trkpt>
      <trkpt lat="43.48845" lon="2.24716">
        <ele>639.8947754</ele>
        <time>2015-11-01T08:59:36Z</time>
      </trkpt>
      <trkpt lat="43.48829" lon="2.24712">
        <ele>642.7788086</ele>
        <time>2015-11-01T08:59:44Z</time>
      </trkpt>
      <trkpt lat="43.48813" lon="2.24703">
        <ele>646.6240234</ele>
        <time>2015-11-01T08:59:51Z</time>
      </trkpt>
      <trkpt lat="43.48802" lon="2.24696">
        <ele>647.5852051</ele>
        <time>2015-11-01T08:59:57Z</time>
      </trkpt>
      <trkpt lat="43.48791" lon="2.24691">
        <ele>647.1044922</ele>
        <time>2015-11-01T09:00:03Z</time>
      </trkpt>
      <trkpt lat="43.48784" lon="2.24689">
        <ele>647.5852051</ele>
        <time>2015-11-01T09:00:06Z</time>
      </trkpt>
      <trkpt lat="43.48771" lon="2.24698">
        <ele>646.1433105</ele>
        <time>2015-11-01T09:00:12Z</time>
      </trkpt>
      <trkpt lat="43.4876" lon="2.24713">
        <ele>647.5852051</ele>
        <time>2015-11-01T09:00:19Z</time>
      </trkpt>
      <trkpt lat="43.48752" lon="2.24731">
        <ele>649.0270996</ele>
        <time>2015-11-01T09:00:26Z</time>
      </trkpt>
      <trkpt lat="43.48748" lon="2.24747">
        <ele>650.4692383</ele>
        <time>2015-11-01T09:00:33Z</time>
      </trkpt>
      <trkpt lat="43.48744" lon="2.24757">
        <ele>653.8339844</ele>
        <time>2015-11-01T09:00:38Z</time>
      </trkpt>
      <trkpt lat="43.48742" lon="2.24773">
        <ele>656.7177734</ele>
        <time>2015-11-01T09:00:44Z</time>
      </trkpt>
      <trkpt lat="43.4874" lon="2.24778">
        <ele>657.1984863</ele>
        <time>2015-11-01T09:00:46Z</time>
      </trkpt>
      <trkpt lat="43.4873" lon="2.24798">
        <ele>661.5244141</ele>
        <time>2015-11-01T09:00:55Z</time>
      </trkpt>
      <trkpt lat="43.48724" lon="2.24805">
        <ele>661.5244141</ele>
        <time>2015-11-01T09:00:59Z</time>
      </trkpt>
      <trkpt lat="43.48718" lon="2.24812">
        <ele>661.5244141</ele>
        <time>2015-11-01T09:01:03Z</time>
      </trkpt>
      <trkpt lat="43.48706" lon="2.24821">
        <ele>666.3308105</ele>
        <time>2015-11-01T09:01:10Z</time>
      </trkpt>
      <trkpt lat="43.48694" lon="2.24825">
        <ele>666.3308105</ele>
        <time>2015-11-01T09:01:17Z</time>
      </trkpt>
      <trkpt lat="43.48687" lon="2.24827">
        <ele>666.3308105</ele>
        <time>2015-11-01T09:01:21Z</time>
      </trkpt>
      <trkpt lat="43.48674" lon="2.24828">
        <ele>666.3308105</ele>
        <time>2015-11-01T09:01:29Z</time>
      </trkpt>
      <trkpt lat="43.48659" lon="2.24826">
        <ele>667.2922363</ele>
        <time>2015-11-01T09:01:36Z</time>
      </trkpt>
      <trkpt lat="43.48647" lon="2.24826">
        <ele>666.3308105</ele>
        <time>2015-11-01T09:01:41Z</time>
      </trkpt>
      <trkpt lat="43.48631" lon="2.24824">
        <ele>666.8115234</ele>
        <time>2015-11-01T09:01:47Z</time>
      </trkpt>
      <trkpt lat="43.48618" lon="2.24827">
        <ele>665.3696289</ele>
        <time>2015-11-01T09:01:53Z</time>
      </trkpt>
      <trkpt lat="43.486" lon="2.24832">
        <ele>665.8503418</ele>
        <time>2015-11-01T09:02:01Z</time>
      </trkpt>
      <trkpt lat="43.48583" lon="2.24834">
        <ele>662.4855957</ele>
        <time>2015-11-01T09:02:08Z</time>
      </trkpt>
      <trkpt lat="43.4857" lon="2.24835">
        <ele>661.5244141</ele>
        <time>2015-11-01T09:02:14Z</time>
      </trkpt>
      <trkpt lat="43.48558" lon="2.24832">
        <ele>664.888916</ele>
        <time>2015-11-01T09:02:20Z</time>
      </trkpt>
      <trkpt lat="43.4855" lon="2.24831">
        <ele>668.2536621</ele>
        <time>2015-11-01T09:02:26Z</time>
      </trkpt>
      <trkpt lat="43.48544" lon="2.24829">
        <ele>670.6569824</ele>
        <time>2015-11-01T09:02:33Z</time>
      </trkpt>
      <trkpt lat="43.4854" lon="2.24823">
        <ele>684.1154785</ele>
        <time>2015-11-01T09:02:49Z</time>
      </trkpt>
      <trkpt lat="43.4854" lon="2.24823">
        <ele>685.557373</ele>
        <time>2015-11-01T09:02:58Z</time>
      </trkpt>
      <trkpt lat="43.48539" lon="2.24822">
        <ele>686.5187988</ele>
        <time>2015-11-01T09:03:06Z</time>
      </trkpt>
      <trkpt lat="43.48539" lon="2.24824">
        <ele>686.0380859</ele>
        <time>2015-11-01T09:03:16Z</time>
      </trkpt>
      <trkpt lat="43.48537" lon="2.24823">
        <ele>689.4025879</ele>
        <time>2015-11-01T09:03:36Z</time>
      </trkpt>
      <trkpt lat="43.48534" lon="2.24826">
        <ele>681.2314453</ele>
        <time>2015-11-01T09:03:55Z</time>
      </trkpt>
      <trkpt lat="43.48536" lon="2.2483">
        <ele>679.3085938</ele>
        <time>2015-11-01T09:04:04Z</time>
      </trkpt>
      <trkpt lat="43.48537" lon="2.24828">
        <ele>682.192627</ele>
        <time>2015-11-01T09:04:11Z</time>
      </trkpt>
      <trkpt lat="43.48538" lon="2.24832">
        <ele>680.7507324</ele>
        <time>2015-11-01T09:04:20Z</time>
      </trkpt>
      <trkpt lat="43.48543" lon="2.2483">
        <ele>686.9992676</ele>
        <time>2015-11-01T09:04:45Z</time>
      </trkpt>
      <trkpt lat="43.48543" lon="2.2483">
        <ele>686.5187988</ele>
        <time>2015-11-01T09:04:58Z</time>
      </trkpt>
      <trkpt lat="43.48542" lon="2.24829">
        <ele>688.9221191</ele>
        <time>2015-11-01T09:05:08Z</time>
      </trkpt>
      <trkpt lat="43.48542" lon="2.24828">
        <ele>686.9992676</ele>
        <time>2015-11-01T09:05:24Z</time>
      </trkpt>
      <trkpt lat="43.48543" lon="2.24831">
        <ele>683.6345215</ele>
        <time>2015-11-01T09:05:38Z</time>
      </trkpt>
      <trkpt lat="43.48542" lon="2.24831">
        <ele>679.7893066</ele>
        <time>2015-11-01T09:05:48Z</time>
      </trkpt>
      <trkpt lat="43.4854" lon="2.24834">
        <ele>674.0214844</ele>
        <time>2015-11-01T09:05:59Z</time>
      </trkpt>
      <trkpt lat="43.48541" lon="2.24833">
        <ele>672.5795898</ele>
        <time>2015-11-01T09:06:12Z</time>
      </trkpt>
      <trkpt lat="43.48541" lon="2.24832">
        <ele>676.4248047</ele>
        <time>2015-11-01T09:06:29Z</time>
      </trkpt>
      <trkpt lat="43.4854" lon="2.2483">
        <ele>679.3085938</ele>
        <time>2015-11-01T09:06:44Z</time>
      </trkpt>
      <trkpt lat="43.4854" lon="2.24829">
        <ele>679.7893066</ele>
        <time>2015-11-01T09:06:58Z</time>
      </trkpt>
      <trkpt lat="43.48541" lon="2.2483">
        <ele>679.3085938</ele>
        <time>2015-11-01T09:07:04Z</time>
      </trkpt>
      <trkpt lat="43.48542" lon="2.24831">
        <ele>679.3085938</ele>
        <time>2015-11-01T09:07:11Z</time>
      </trkpt>
      <trkpt lat="43.48544" lon="2.24834">
        <ele>679.3085938</ele>
        <time>2015-11-01T09:07:25Z</time>
      </trkpt>
      <trkpt lat="43.48544" lon="2.24834">
        <ele>678.3474121</ele>
        <time>2015-11-01T09:07:40Z</time>
      </trkpt>
      <trkpt lat="43.48544" lon="2.24834">
        <ele>677.8666992</ele>
        <time>2015-11-01T09:07:41Z</time>
      </trkpt>
      <trkpt lat="43.4854" lon="2.24831">
        <ele>687.9606934</ele>
        <time>2015-11-01T09:08:00Z</time>
      </trkpt>
      <trkpt lat="43.48539" lon="2.24834">
        <ele>690.3640137</ele>
        <time>2015-11-01T09:08:34Z</time>
      </trkpt>
      <trkpt lat="43.48541" lon="2.24836">
        <ele>686.5187988</ele>
        <time>2015-11-01T09:08:47Z</time>
      </trkpt>
      <trkpt lat="43.48539" lon="2.24836">
        <ele>682.6733398</ele>
        <time>2015-11-01T09:09:12Z</time>
      </trkpt>
      <trkpt lat="43.48535" lon="2.24832">
        <ele>679.7893066</ele>
        <time>2015-11-01T09:09:18Z</time>
      </trkpt>
      <trkpt lat="43.48523" lon="2.24825">
        <ele>679.3085938</ele>
        <time>2015-11-01T09:09:25Z</time>
      </trkpt>
      <trkpt lat="43.48508" lon="2.24813">
        <ele>672.5795898</ele>
        <time>2015-11-01T09:09:31Z</time>
      </trkpt>
      <trkpt lat="43.48491" lon="2.248">
        <ele>669.6958008</ele>
        <time>2015-11-01T09:09:36Z</time>
      </trkpt>
      <trkpt lat="43.48475" lon="2.24785">
        <ele>671.6181641</ele>
        <time>2015-11-01T09:09:41Z</time>
      </trkpt>
      <trkpt lat="43.48463" lon="2.24775">
        <ele>674.0214844</ele>
        <time>2015-11-01T09:09:44Z</time>
      </trkpt>
      <trkpt lat="43.48448" lon="2.24769">
        <ele>674.0214844</ele>
        <time>2015-11-01T09:09:47Z</time>
      </trkpt>
      <trkpt lat="43.48417" lon="2.24765">
        <ele>674.0214844</ele>
        <time>2015-11-01T09:09:54Z</time>
      </trkpt>
      <trkpt lat="43.48393" lon="2.24774">
        <ele>669.6958008</ele>
        <time>2015-11-01T09:09:59Z</time>
      </trkpt>
      <trkpt lat="43.48373" lon="2.24775">
        <ele>672.098877</ele>
        <time>2015-11-01T09:10:04Z</time>
      </trkpt>
      <trkpt lat="43.4835" lon="2.2477">
        <ele>678.828125</ele>
        <time>2015-11-01T09:10:11Z</time>
      </trkpt>
      <trkpt lat="43.48342" lon="2.24761">
        <ele>678.3474121</ele>
        <time>2015-11-01T09:10:16Z</time>
      </trkpt>
      <trkpt lat="43.48337" lon="2.24745">
        <ele>678.828125</ele>
        <time>2015-11-01T09:10:21Z</time>
      </trkpt>
      <trkpt lat="43.48334" lon="2.2473">
        <ele>680.7507324</ele>
        <time>2015-11-01T09:10:25Z</time>
      </trkpt>
      <trkpt lat="43.48328" lon="2.24703">
        <ele>682.192627</ele>
        <time>2015-11-01T09:10:30Z</time>
      </trkpt>
      <trkpt lat="43.48326" lon="2.24659">
        <ele>687.4799805</ele>
        <time>2015-11-01T09:10:35Z</time>
      </trkpt>
      <trkpt lat="43.48333" lon="2.24629">
        <ele>682.6733398</ele>
        <time>2015-11-01T09:10:39Z</time>
      </trkpt>
      <trkpt lat="43.48348" lon="2.24585">
        <ele>679.7893066</ele>
        <time>2015-11-01T09:10:44Z</time>
      </trkpt>
      <trkpt lat="43.48356" lon="2.24569">
        <ele>677.3862305</ele>
        <time>2015-11-01T09:10:46Z</time>
      </trkpt>
      <trkpt lat="43.48361" lon="2.24509">
        <ele>674.0214844</ele>
        <time>2015-11-01T09:10:52Z</time>
      </trkpt>
      <trkpt lat="43.48362" lon="2.24439">
        <ele>671.6181641</ele>
        <time>2015-11-01T09:10:58Z</time>
      </trkpt>
      <trkpt lat="43.48361" lon="2.24417">
        <ele>669.6958008</ele>
        <time>2015-11-01T09:11:01Z</time>
      </trkpt>
      <trkpt lat="43.48356" lon="2.24374">
        <ele>668.2536621</ele>
        <time>2015-11-01T09:11:06Z</time>
      </trkpt>
      <trkpt lat="43.48355" lon="2.24343">
        <ele>667.7727051</ele>
        <time>2015-11-01T09:11:10Z</time>
      </trkpt>
      <trkpt lat="43.48353" lon="2.24308">
        <ele>667.2922363</ele>
        <time>2015-11-01T09:11:14Z</time>
      </trkpt>
      <trkpt lat="43.48345" lon="2.24277">
        <ele>662.9663086</ele>
        <time>2015-11-01T09:11:18Z</time>
      </trkpt>
      <trkpt lat="43.48349" lon="2.24233">
        <ele>662.005127</ele>
        <time>2015-11-01T09:11:23Z</time>
      </trkpt>
      <trkpt lat="43.48359" lon="2.24203">
        <ele>659.6018066</ele>
        <time>2015-11-01T09:11:26Z</time>
      </trkpt>
      <trkpt lat="43.48364" lon="2.24155">
        <ele>656.2370605</ele>
        <time>2015-11-01T09:11:30Z</time>
      </trkpt>
      <trkpt lat="43.48358" lon="2.24122">
        <ele>650.949707</ele>
        <time>2015-11-01T09:11:33Z</time>
      </trkpt>
      <trkpt lat="43.48345" lon="2.24093">
        <ele>647.1044922</ele>
        <time>2015-11-01T09:11:37Z</time>
      </trkpt>
      <trkpt lat="43.48324" lon="2.24081">
        <ele>645.1818848</ele>
        <time>2015-11-01T09:11:41Z</time>
      </trkpt>
      <trkpt lat="43.48286" lon="2.24071">
        <ele>645.6625977</ele>
        <time>2015-11-01T09:11:47Z</time>
      </trkpt>
      <trkpt lat="43.48258" lon="2.24069">
        <ele>645.6625977</ele>
        <time>2015-11-01T09:11:51Z</time>
      </trkpt>
      <trkpt lat="43.48231" lon="2.24074">
        <ele>647.5852051</ele>
        <time>2015-11-01T09:11:56Z</time>
      </trkpt>
      <trkpt lat="43.48223" lon="2.24078">
        <ele>647.5852051</ele>
        <time>2015-11-01T09:11:58Z</time>
      </trkpt>
      <trkpt lat="43.48209" lon="2.24078">
        <ele>646.6240234</ele>
        <time>2015-11-01T09:12:02Z</time>
      </trkpt>
      <trkpt lat="43.482" lon="2.24048">
        <ele>643.2592773</ele>
        <time>2015-11-01T09:12:07Z</time>
      </trkpt>
      <trkpt lat="43.48181" lon="2.2402">
        <ele>643.7399902</ele>
        <time>2015-11-01T09:12:11Z</time>
      </trkpt>
      <trkpt lat="43.48154" lon="2.24002">
        <ele>641.8173828</ele>
        <time>2015-11-01T09:12:16Z</time>
      </trkpt>
      <trkpt lat="43.48139" lon="2.23995">
        <ele>642.7788086</ele>
        <time>2015-11-01T09:12:19Z</time>
      </trkpt>
      <trkpt lat="43.48112" lon="2.23985">
        <ele>639.8947754</ele>
        <time>2015-11-01T09:12:25Z</time>
      </trkpt>
      <trkpt lat="43.48084" lon="2.23962">
        <ele>638.4528809</ele>
        <time>2015-11-01T09:12:30Z</time>
      </trkpt>
      <trkpt lat="43.48069" lon="2.23952">
        <ele>642.7788086</ele>
        <time>2015-11-01T09:12:32Z</time>
      </trkpt>
      <trkpt lat="43.48034" lon="2.23944">
        <ele>638.4528809</ele>
        <time>2015-11-01T09:12:38Z</time>
      </trkpt>
      <trkpt lat="43.48028" lon="2.23941">
        <ele>636.5302734</ele>
        <time>2015-11-01T09:12:40Z</time>
      </trkpt>
      <trkpt lat="43.48034" lon="2.23929">
        <ele>633.1652832</ele>
        <time>2015-11-01T09:12:44Z</time>
      </trkpt>
      <trkpt lat="43.48049" lon="2.23919">
        <ele>631.7233887</ele>
        <time>2015-11-01T09:12:47Z</time>
      </trkpt>
      <trkpt lat="43.48062" lon="2.23916">
        <ele>632.2041016</ele>
        <time>2015-11-01T09:12:49Z</time>
      </trkpt>
      <trkpt lat="43.4808" lon="2.23911">
        <ele>632.6848145</ele>
        <time>2015-11-01T09:12:52Z</time>
      </trkpt>
      <trkpt lat="43.48102" lon="2.23896">
        <ele>632.2041016</ele>
        <time>2015-11-01T09:12:56Z</time>
      </trkpt>
      <trkpt lat="43.48125" lon="2.23866">
        <ele>631.2429199</ele>
        <time>2015-11-01T09:13:02Z</time>
      </trkpt>
      <trkpt lat="43.48131" lon="2.23856">
        <ele>629.3200684</ele>
        <time>2015-11-01T09:13:04Z</time>
      </trkpt>
      <trkpt lat="43.48152" lon="2.23832">
        <ele>628.3588867</ele>
        <time>2015-11-01T09:13:10Z</time>
      </trkpt>
      <trkpt lat="43.48161" lon="2.23826">
        <ele>628.3588867</ele>
        <time>2015-11-01T09:13:13Z</time>
      </trkpt>
      <trkpt lat="43.48179" lon="2.23814">
        <ele>627.8781738</ele>
        <time>2015-11-01T09:13:18Z</time>
      </trkpt>
      <trkpt lat="43.48191" lon="2.23804">
        <ele>626.9169922</ele>
        <time>2015-11-01T09:13:22Z</time>
      </trkpt>
      <trkpt lat="43.48201" lon="2.23787">
        <ele>623.0717773</ele>
        <time>2015-11-01T09:13:27Z</time>
      </trkpt>
      <trkpt lat="43.48211" lon="2.23773">
        <ele>618.7456055</ele>
        <time>2015-11-01T09:13:31Z</time>
      </trkpt>
      <trkpt lat="43.48224" lon="2.23752">
        <ele>615.8618164</ele>
        <time>2015-11-01T09:13:37Z</time>
      </trkpt>
      <trkpt lat="43.48232" lon="2.23738">
        <ele>615.3811035</ele>
        <time>2015-11-01T09:13:41Z</time>
      </trkpt>
      <trkpt lat="43.4824" lon="2.2372">
        <ele>614.4196777</ele>
        <time>2015-11-01T09:13:46Z</time>
      </trkpt>
      <trkpt lat="43.48252" lon="2.23708">
        <ele>617.3037109</ele>
        <time>2015-11-01T09:13:51Z</time>
      </trkpt>
      <trkpt lat="43.48254" lon="2.23701">
        <ele>619.7070313</ele>
        <time>2015-11-01T09:13:53Z</time>
      </trkpt>
      <trkpt lat="43.48262" lon="2.23689">
        <ele>621.1491699</ele>
        <time>2015-11-01T09:13:57Z</time>
      </trkpt>
      <trkpt lat="43.48279" lon="2.23679">
        <ele>627.8781738</ele>
        <time>2015-11-01T09:14:03Z</time>
      </trkpt>
      <trkpt lat="43.48296" lon="2.23668">
        <ele>630.762207</ele>
        <time>2015-11-01T09:14:09Z</time>
      </trkpt>
      <trkpt lat="43.48306" lon="2.2365">
        <ele>632.2041016</ele>
        <time>2015-11-01T09:14:14Z</time>
      </trkpt>
      <trkpt lat="43.4831" lon="2.23631">
        <ele>631.7233887</ele>
        <time>2015-11-01T09:14:19Z</time>
      </trkpt>
      <trkpt lat="43.48311" lon="2.23616">
        <ele>632.6848145</ele>
        <time>2015-11-01T09:14:25Z</time>
      </trkpt>
      <trkpt lat="43.48311" lon="2.23609">
        <ele>636.0495605</ele>
        <time>2015-11-01T09:14:30Z</time>
      </trkpt>
      <trkpt lat="43.48312" lon="2.23595">
        <ele>638.4528809</ele>
        <time>2015-11-01T09:14:36Z</time>
      </trkpt>
      <trkpt lat="43.48303" lon="2.23567">
        <ele>638.9335938</ele>
        <time>2015-11-01T09:14:42Z</time>
      </trkpt>
      <trkpt lat="43.48294" lon="2.23548">
        <ele>638.4528809</ele>
        <time>2015-11-01T09:14:45Z</time>
      </trkpt>
      <trkpt lat="43.48279" lon="2.23532">
        <ele>640.855957</ele>
        <time>2015-11-01T09:14:48Z</time>
      </trkpt>
      <trkpt lat="43.48243" lon="2.23496">
        <ele>648.065918</ele>
        <time>2015-11-01T09:14:54Z</time>
      </trkpt>
      <trkpt lat="43.48205" lon="2.23459">
        <ele>653.8339844</ele>
        <time>2015-11-01T09:15:01Z</time>
      </trkpt>
      <trkpt lat="43.48202" lon="2.23459">
        <ele>650.949707</ele>
        <time>2015-11-01T09:15:02Z</time>
      </trkpt>
      <trkpt lat="43.48189" lon="2.23454">
        <ele>647.5852051</ele>
        <time>2015-11-01T09:15:05Z</time>
      </trkpt>
      <trkpt lat="43.4817" lon="2.2344">
        <ele>646.6240234</ele>
        <time>2015-11-01T09:15:09Z</time>
      </trkpt>
      <trkpt lat="43.48141" lon="2.23411">
        <ele>645.6625977</ele>
        <time>2015-11-01T09:15:15Z</time>
      </trkpt>
      <trkpt lat="43.48112" lon="2.23378">
        <ele>639.4140625</ele>
        <time>2015-11-01T09:15:21Z</time>
      </trkpt>
      <trkpt lat="43.48102" lon="2.23369">
        <ele>637.4914551</ele>
        <time>2015-11-01T09:15:23Z</time>
      </trkpt>
      <trkpt lat="43.4809" lon="2.23361">
        <ele>636.5302734</ele>
        <time>2015-11-01T09:15:25Z</time>
      </trkpt>
      <trkpt lat="43.4806" lon="2.23354">
        <ele>634.126709</ele>
        <time>2015-11-01T09:15:30Z</time>
      </trkpt>
      <trkpt lat="43.48054" lon="2.23355">
        <ele>633.1652832</ele>
        <time>2015-11-01T09:15:31Z</time>
      </trkpt>
      <trkpt lat="43.48013" lon="2.23371">
        <ele>624.5136719</ele>
        <time>2015-11-01T09:15:38Z</time>
      </trkpt>
      <trkpt lat="43.47985" lon="2.23379">
        <ele>619.7070313</ele>
        <time>2015-11-01T09:15:43Z</time>
      </trkpt>
      <trkpt lat="43.47951" lon="2.23392">
        <ele>614.4196777</ele>
        <time>2015-11-01T09:15:49Z</time>
      </trkpt>
      <trkpt lat="43.47919" lon="2.23418">
        <ele>612.0166016</ele>
        <time>2015-11-01T09:15:55Z</time>
      </trkpt>
      <trkpt lat="43.47914" lon="2.23423">
        <ele>611.5358887</ele>
        <time>2015-11-01T09:15:56Z</time>
      </trkpt>
      <trkpt lat="43.47899" lon="2.23437">
        <ele>610.09375</ele>
        <time>2015-11-01T09:15:59Z</time>
      </trkpt>
      <trkpt lat="43.47876" lon="2.23473">
        <ele>606.729248</ele>
        <time>2015-11-01T09:16:05Z</time>
      </trkpt>
      <trkpt lat="43.47843" lon="2.23496">
        <ele>603.8452148</ele>
        <time>2015-11-01T09:16:10Z</time>
      </trkpt>
      <trkpt lat="43.47784" lon="2.23523">
        <ele>597.5966797</ele>
        <time>2015-11-01T09:16:18Z</time>
      </trkpt>
      <trkpt lat="43.47755" lon="2.23539">
        <ele>594.2321777</ele>
        <time>2015-11-01T09:16:22Z</time>
      </trkpt>
      <trkpt lat="43.4774" lon="2.23548">
        <ele>593.7514648</ele>
        <time>2015-11-01T09:16:24Z</time>
      </trkpt>
      <trkpt lat="43.47713" lon="2.23568">
        <ele>593.270752</ele>
        <time>2015-11-01T09:16:28Z</time>
      </trkpt>
      <trkpt lat="43.47681" lon="2.23578">
        <ele>598.0773926</ele>
        <time>2015-11-01T09:16:32Z</time>
      </trkpt>
      <trkpt lat="43.47656" lon="2.23579">
        <ele>601.4418945</ele>
        <time>2015-11-01T09:16:36Z</time>
      </trkpt>
      <trkpt lat="43.47635" lon="2.23568">
        <ele>603.8452148</ele>
        <time>2015-11-01T09:16:40Z</time>
      </trkpt>
      <trkpt lat="43.47628" lon="2.23554">
        <ele>600.4807129</ele>
        <time>2015-11-01T09:16:44Z</time>
      </trkpt>
      <trkpt lat="43.4763" lon="2.2355">
        <ele>598.5578613</ele>
        <time>2015-11-01T09:16:46Z</time>
      </trkpt>
      <trkpt lat="43.47634" lon="2.23546">
        <ele>597.1159668</ele>
        <time>2015-11-01T09:16:49Z</time>
      </trkpt>
      <trkpt lat="43.47647" lon="2.2354">
        <ele>594.7126465</ele>
        <time>2015-11-01T09:16:54Z</time>
      </trkpt>
      <trkpt lat="43.47672" lon="2.23529">
        <ele>593.270752</ele>
        <time>2015-11-01T09:17:00Z</time>
      </trkpt>
      <trkpt lat="43.47693" lon="2.23513">
        <ele>590.8674316</ele>
        <time>2015-11-01T09:17:04Z</time>
      </trkpt>
      <trkpt lat="43.47715" lon="2.23495">
        <ele>588.4643555</ele>
        <time>2015-11-01T09:17:10Z</time>
      </trkpt>
      <trkpt lat="43.47719" lon="2.2349">
        <ele>588.9450684</ele>
        <time>2015-11-01T09:17:12Z</time>
      </trkpt>
      <trkpt lat="43.47726" lon="2.23486">
        <ele>588.9450684</ele>
        <time>2015-11-01T09:17:17Z</time>
      </trkpt>
      <trkpt lat="43.47729" lon="2.23483">
        <ele>590.8674316</ele>
        <time>2015-11-01T09:17:24Z</time>
      </trkpt>
      <trkpt lat="43.47728" lon="2.2348">
        <ele>592.7902832</ele>
        <time>2015-11-01T09:17:30Z</time>
      </trkpt>
      <trkpt lat="43.47729" lon="2.23474">
        <ele>599.0385742</ele>
        <time>2015-11-01T09:17:39Z</time>
      </trkpt>
      <trkpt lat="43.47733" lon="2.23471">
        <ele>600.9611816</ele>
        <time>2015-11-01T09:17:47Z</time>
      </trkpt>
      <trkpt lat="43.47736" lon="2.23468">
        <ele>601.4418945</ele>
        <time>2015-11-01T09:17:52Z</time>
      </trkpt>
      <trkpt lat="43.4774" lon="2.23461">
        <ele>603.364502</ele>
        <time>2015-11-01T09:17:57Z</time>
      </trkpt>
      <trkpt lat="43.47743" lon="2.23446">
        <ele>605.7680664</ele>
        <time>2015-11-01T09:18:02Z</time>
      </trkpt>
      <trkpt lat="43.47747" lon="2.23438">
        <ele>603.364502</ele>
        <time>2015-11-01T09:18:06Z</time>
      </trkpt>
      <trkpt lat="43.47753" lon="2.23421">
        <ele>605.2873535</ele>
        <time>2015-11-01T09:18:13Z</time>
      </trkpt>
      <trkpt lat="43.47764" lon="2.23407">
        <ele>605.7680664</ele>
        <time>2015-11-01T09:18:20Z</time>
      </trkpt>
      <trkpt lat="43.47773" lon="2.23397">
        <ele>604.3261719</ele>
        <time>2015-11-01T09:18:26Z</time>
      </trkpt>
      <trkpt lat="43.47785" lon="2.23383">
        <ele>603.364502</ele>
        <time>2015-11-01T09:18:33Z</time>
      </trkpt>
      <trkpt lat="43.47795" lon="2.23363">
        <ele>602.8837891</ele>
        <time>2015-11-01T09:18:41Z</time>
      </trkpt>
      <trkpt lat="43.47802" lon="2.23346">
        <ele>602.4030762</ele>
        <time>2015-11-01T09:18:47Z</time>
      </trkpt>
      <trkpt lat="43.47809" lon="2.2333">
        <ele>602.4030762</ele>
        <time>2015-11-01T09:18:53Z</time>
      </trkpt>
      <trkpt lat="43.47818" lon="2.2331">
        <ele>602.4030762</ele>
        <time>2015-11-01T09:19:01Z</time>
      </trkpt>
      <trkpt lat="43.47828" lon="2.23288">
        <ele>603.364502</ele>
        <time>2015-11-01T09:19:09Z</time>
      </trkpt>
      <trkpt lat="43.47835" lon="2.23268">
        <ele>604.3261719</ele>
        <time>2015-11-01T09:19:16Z</time>
      </trkpt>
      <trkpt lat="43.47841" lon="2.23248">
        <ele>605.7680664</ele>
        <time>2015-11-01T09:19:23Z</time>
      </trkpt>
      <trkpt lat="43.47846" lon="2.23229">
        <ele>606.729248</ele>
        <time>2015-11-01T09:19:30Z</time>
      </trkpt>
      <trkpt lat="43.47852" lon="2.23207">
        <ele>610.09375</ele>
        <time>2015-11-01T09:19:38Z</time>
      </trkpt>
      <trkpt lat="43.4786" lon="2.2319">
        <ele>612.0166016</ele>
        <time>2015-11-01T09:19:45Z</time>
      </trkpt>
      <trkpt lat="43.4787" lon="2.23172">
        <ele>614.9003906</ele>
        <time>2015-11-01T09:19:53Z</time>
      </trkpt>
      <trkpt lat="43.47878" lon="2.23154">
        <ele>616.822998</ele>
        <time>2015-11-01T09:20:00Z</time>
      </trkpt>
      <trkpt lat="43.47884" lon="2.23138">
        <ele>617.7841797</ele>
        <time>2015-11-01T09:20:06Z</time>
      </trkpt>
      <trkpt lat="43.47894" lon="2.23114">
        <ele>617.7841797</ele>
        <time>2015-11-01T09:20:15Z</time>
      </trkpt>
      <trkpt lat="43.47902" lon="2.23093">
        <ele>618.7456055</ele>
        <time>2015-11-01T09:20:23Z</time>
      </trkpt>
      <trkpt lat="43.47909" lon="2.23075">
        <ele>620.668457</ele>
        <time>2015-11-01T09:20:30Z</time>
      </trkpt>
      <trkpt lat="43.47919" lon="2.23056">
        <ele>622.1103516</ele>
        <time>2015-11-01T09:20:38Z</time>
      </trkpt>
      <trkpt lat="43.47927" lon="2.2303">
        <ele>624.032959</ele>
        <time>2015-11-01T09:20:48Z</time>
      </trkpt>
      <trkpt lat="43.47932" lon="2.23009">
        <ele>624.9943848</ele>
        <time>2015-11-01T09:20:56Z</time>
      </trkpt>
      <trkpt lat="43.47933" lon="2.22995">
        <ele>624.9943848</ele>
        <time>2015-11-01T09:21:02Z</time>
      </trkpt>
      <trkpt lat="43.47937" lon="2.22979">
        <ele>626.9169922</ele>
        <time>2015-11-01T09:21:09Z</time>
      </trkpt>
      <trkpt lat="43.47938" lon="2.22959">
        <ele>630.762207</ele>
        <time>2015-11-01T09:21:15Z</time>
      </trkpt>
      <trkpt lat="43.47941" lon="2.22948">
        <ele>632.6848145</ele>
        <time>2015-11-01T09:21:19Z</time>
      </trkpt>
      <trkpt lat="43.47947" lon="2.22924">
        <ele>636.5302734</ele>
        <time>2015-11-01T09:21:28Z</time>
      </trkpt>
      <trkpt lat="43.47947" lon="2.22918">
        <ele>637.972168</ele>
        <time>2015-11-01T09:21:30Z</time>
      </trkpt>
      <trkpt lat="43.47947" lon="2.2291">
        <ele>640.3754883</ele>
        <time>2015-11-01T09:21:32Z</time>
      </trkpt>
      <trkpt lat="43.4795" lon="2.22886">
        <ele>646.1433105</ele>
        <time>2015-11-01T09:21:40Z</time>
      </trkpt>
      <trkpt lat="43.47955" lon="2.22869">
        <ele>648.5463867</ele>
        <time>2015-11-01T09:21:46Z</time>
      </trkpt>
      <trkpt lat="43.47958" lon="2.22851">
        <ele>651.9111328</ele>
        <time>2015-11-01T09:21:52Z</time>
      </trkpt>
      <trkpt lat="43.47957" lon="2.22837">
        <ele>652.8725586</ele>
        <time>2015-11-01T09:21:57Z</time>
      </trkpt>
      <trkpt lat="43.47953" lon="2.22826">
        <ele>649.0270996</ele>
        <time>2015-11-01T09:22:03Z</time>
      </trkpt>
      <trkpt lat="43.47944" lon="2.22823">
        <ele>646.1433105</ele>
        <time>2015-11-01T09:22:09Z</time>
      </trkpt>
      <trkpt lat="43.47934" lon="2.22828">
        <ele>644.2207031</ele>
        <time>2015-11-01T09:22:15Z</time>
      </trkpt>
      <trkpt lat="43.47927" lon="2.22836">
        <ele>640.3754883</ele>
        <time>2015-11-01T09:22:21Z</time>
      </trkpt>
      <trkpt lat="43.47916" lon="2.22847">
        <ele>636.5302734</ele>
        <time>2015-11-01T09:22:29Z</time>
      </trkpt>
      <trkpt lat="43.4791" lon="2.22857">
        <ele>635.5686035</ele>
        <time>2015-11-01T09:22:35Z</time>
      </trkpt>
      <trkpt lat="43.47904" lon="2.22868">
        <ele>638.4528809</ele>
        <time>2015-11-01T09:22:42Z</time>
      </trkpt>
      <trkpt lat="43.47901" lon="2.22883">
        <ele>637.972168</ele>
        <time>2015-11-01T09:22:49Z</time>
      </trkpt>
      <trkpt lat="43.479" lon="2.22885">
        <ele>637.972168</ele>
        <time>2015-11-01T09:22:50Z</time>
      </trkpt>
      <trkpt lat="43.47897" lon="2.22896">
        <ele>637.972168</ele>
        <time>2015-11-01T09:22:55Z</time>
      </trkpt>
      <trkpt lat="43.47892" lon="2.22917">
        <ele>638.4528809</ele>
        <time>2015-11-01T09:23:04Z</time>
      </trkpt>
      <trkpt lat="43.47886" lon="2.22933">
        <ele>642.2980957</ele>
        <time>2015-11-01T09:23:11Z</time>
      </trkpt>
      <trkpt lat="43.47879" lon="2.22943">
        <ele>644.2207031</ele>
        <time>2015-11-01T09:23:18Z</time>
      </trkpt>
      <trkpt lat="43.4787" lon="2.22955">
        <ele>647.5852051</ele>
        <time>2015-11-01T09:23:26Z</time>
      </trkpt>
      <trkpt lat="43.47862" lon="2.22965">
        <ele>648.5463867</ele>
        <time>2015-11-01T09:23:32Z</time>
      </trkpt>
      <trkpt lat="43.47852" lon="2.22973">
        <ele>650.949707</ele>
        <time>2015-11-01T09:23:38Z</time>
      </trkpt>
      <trkpt lat="43.47841" lon="2.22983">
        <ele>646.6240234</ele>
        <time>2015-11-01T09:23:45Z</time>
      </trkpt>
      <trkpt lat="43.47832" lon="2.22991">
        <ele>646.1433105</ele>
        <time>2015-11-01T09:23:51Z</time>
      </trkpt>
      <trkpt lat="43.47826" lon="2.22998">
        <ele>645.1818848</ele>
        <time>2015-11-01T09:23:56Z</time>
      </trkpt>
      <trkpt lat="43.47812" lon="2.23003">
        <ele>646.1433105</ele>
        <time>2015-11-01T09:24:03Z</time>
      </trkpt>
      <trkpt lat="43.478" lon="2.23003">
        <ele>649.0270996</ele>
        <time>2015-11-01T09:24:10Z</time>
      </trkpt>
      <trkpt lat="43.47791" lon="2.23">
        <ele>651.4304199</ele>
        <time>2015-11-01T09:24:15Z</time>
      </trkpt>
      <trkpt lat="43.47785" lon="2.22998">
        <ele>652.8725586</ele>
        <time>2015-11-01T09:24:19Z</time>
      </trkpt>
      <trkpt lat="43.47769" lon="2.22996">
        <ele>653.8339844</ele>
        <time>2015-11-01T09:24:27Z</time>
      </trkpt>
      <trkpt lat="43.47758" lon="2.2299">
        <ele>654.795166</ele>
        <time>2015-11-01T09:24:33Z</time>
      </trkpt>
      <trkpt lat="43.47745" lon="2.22986">
        <ele>657.1984863</ele>
        <time>2015-11-01T09:24:40Z</time>
      </trkpt>
      <trkpt lat="43.47736" lon="2.22983">
        <ele>656.2370605</ele>
        <time>2015-11-01T09:24:45Z</time>
      </trkpt>
      <trkpt lat="43.47719" lon="2.22978">
        <ele>658.6403809</ele>
        <time>2015-11-01T09:24:53Z</time>
      </trkpt>
      <trkpt lat="43.47707" lon="2.2298">
        <ele>658.1599121</ele>
        <time>2015-11-01T09:24:59Z</time>
      </trkpt>
      <trkpt lat="43.47696" lon="2.22978">
        <ele>660.0822754</ele>
        <time>2015-11-01T09:25:06Z</time>
      </trkpt>
      <trkpt lat="43.47685" lon="2.2298">
        <ele>660.0822754</ele>
        <time>2015-11-01T09:25:14Z</time>
      </trkpt>
      <trkpt lat="43.47683" lon="2.22981">
        <ele>659.1210938</ele>
        <time>2015-11-01T09:25:17Z</time>
      </trkpt>
      <trkpt lat="43.4768" lon="2.22984">
        <ele>656.7177734</ele>
        <time>2015-11-01T09:25:29Z</time>
      </trkpt>
      <trkpt lat="43.4768" lon="2.22984">
        <ele>659.6018066</ele>
        <time>2015-11-01T09:25:36Z</time>
      </trkpt>
      <trkpt lat="43.4768" lon="2.22985">
        <ele>660.0822754</ele>
        <time>2015-11-01T09:25:45Z</time>
      </trkpt>
      <trkpt lat="43.47679" lon="2.22985">
        <ele>660.5629883</ele>
        <time>2015-11-01T09:25:56Z</time>
      </trkpt>
      <trkpt lat="43.47679" lon="2.22979">
        <ele>664.4082031</ele>
        <time>2015-11-01T09:26:08Z</time>
      </trkpt>
      <trkpt lat="43.47678" lon="2.2298">
        <ele>665.3696289</ele>
        <time>2015-11-01T09:26:23Z</time>
      </trkpt>
      <trkpt lat="43.47677" lon="2.2298">
        <ele>666.3308105</ele>
        <time>2015-11-01T09:26:34Z</time>
      </trkpt>
      <trkpt lat="43.47678" lon="2.2298">
        <ele>663.4470215</ele>
        <time>2015-11-01T09:26:45Z</time>
      </trkpt>
      <trkpt lat="43.4768" lon="2.22985">
        <ele>658.6403809</ele>
        <time>2015-11-01T09:27:06Z</time>
      </trkpt>
      <trkpt lat="43.47679" lon="2.22986">
        <ele>662.4855957</ele>
        <time>2015-11-01T09:27:26Z</time>
      </trkpt>
      <trkpt lat="43.47676" lon="2.22997">
        <ele>669.6958008</ele>
        <time>2015-11-01T09:27:44Z</time>
      </trkpt>
      <trkpt lat="43.47677" lon="2.22994">
        <ele>666.3308105</ele>
        <time>2015-11-01T09:28:02Z</time>
      </trkpt>
      <trkpt lat="43.47678" lon="2.22994">
        <ele>661.5244141</ele>
        <time>2015-11-01T09:28:13Z</time>
      </trkpt>
      <trkpt lat="43.47677" lon="2.22992">
        <ele>663.9274902</ele>
        <time>2015-11-01T09:28:15Z</time>
      </trkpt>
      <trkpt lat="43.47675" lon="2.22986">
        <ele>664.4082031</ele>
        <time>2015-11-01T09:28:26Z</time>
      </trkpt>
      <trkpt lat="43.47679" lon="2.22994">
        <ele>660.5629883</ele>
        <time>2015-11-01T09:28:39Z</time>
      </trkpt>
      <trkpt lat="43.47677" lon="2.22988">
        <ele>659.1210938</ele>
        <time>2015-11-01T09:29:06Z</time>
      </trkpt>
      <trkpt lat="43.47677" lon="2.22985">
        <ele>663.4470215</ele>
        <time>2015-11-01T09:29:24Z</time>
      </trkpt>
      <trkpt lat="43.47678" lon="2.22986">
        <ele>662.005127</ele>
        <time>2015-11-01T09:29:37Z</time>
      </trkpt>
      <trkpt lat="43.47677" lon="2.22986">
        <ele>661.0437012</ele>
        <time>2015-11-01T09:29:44Z</time>
      </trkpt>
      <trkpt lat="43.47677" lon="2.22986">
        <ele>666.3308105</ele>
        <time>2015-11-01T09:30:25Z</time>
      </trkpt>
      <trkpt lat="43.47675" lon="2.22982">
        <ele>664.888916</ele>
        <time>2015-11-01T09:30:53Z</time>
      </trkpt>
      <trkpt lat="43.47661" lon="2.22982">
        <ele>663.9274902</ele>
        <time>2015-11-01T09:31:02Z</time>
      </trkpt>
      <trkpt lat="43.4765" lon="2.22982">
        <ele>662.9663086</ele>
        <time>2015-11-01T09:31:09Z</time>
      </trkpt>
      <trkpt lat="43.47635" lon="2.22982">
        <ele>659.6018066</ele>
        <time>2015-11-01T09:31:18Z</time>
      </trkpt>
      <trkpt lat="43.47623" lon="2.2298">
        <ele>656.7177734</ele>
        <time>2015-11-01T09:31:24Z</time>
      </trkpt>
      <trkpt lat="43.47607" lon="2.22982">
        <ele>651.9111328</ele>
        <time>2015-11-01T09:31:32Z</time>
      </trkpt>
      <trkpt lat="43.47593" lon="2.22978">
        <ele>650.4692383</ele>
        <time>2015-11-01T09:31:39Z</time>
      </trkpt>
      <trkpt lat="43.47581" lon="2.22978">
        <ele>647.5852051</ele>
        <time>2015-11-01T09:31:45Z</time>
      </trkpt>
      <trkpt lat="43.47567" lon="2.22977">
        <ele>645.1818848</ele>
        <time>2015-11-01T09:31:52Z</time>
      </trkpt>
      <trkpt lat="43.47557" lon="2.22969">
        <ele>648.5463867</ele>
        <time>2015-11-01T09:31:58Z</time>
      </trkpt>
      <trkpt lat="43.47549" lon="2.22963">
        <ele>649.5078125</ele>
        <time>2015-11-01T09:32:03Z</time>
      </trkpt>
      <trkpt lat="43.47537" lon="2.22952">
        <ele>653.3532715</ele>
        <time>2015-11-01T09:32:09Z</time>
      </trkpt>
      <trkpt lat="43.4752" lon="2.22943">
        <ele>656.2370605</ele>
        <time>2015-11-01T09:32:16Z</time>
      </trkpt>
      <trkpt lat="43.47504" lon="2.22941">
        <ele>655.7565918</ele>
        <time>2015-11-01T09:32:22Z</time>
      </trkpt>
      <trkpt lat="43.47488" lon="2.22941">
        <ele>655.7565918</ele>
        <time>2015-11-01T09:32:29Z</time>
      </trkpt>
      <trkpt lat="43.47473" lon="2.22946">
        <ele>655.7565918</ele>
        <time>2015-11-01T09:32:36Z</time>
      </trkpt>
      <trkpt lat="43.47461" lon="2.22951">
        <ele>656.2370605</ele>
        <time>2015-11-01T09:32:42Z</time>
      </trkpt>
      <trkpt lat="43.47447" lon="2.22959">
        <ele>655.2758789</ele>
        <time>2015-11-01T09:32:49Z</time>
      </trkpt>
      <trkpt lat="43.47438" lon="2.22965">
        <ele>656.2370605</ele>
        <time>2015-11-01T09:32:55Z</time>
      </trkpt>
      <trkpt lat="43.47424" lon="2.22972">
        <ele>658.1599121</ele>
        <time>2015-11-01T09:33:02Z</time>
      </trkpt>
      <trkpt lat="43.47408" lon="2.22979">
        <ele>660.0822754</ele>
        <time>2015-11-01T09:33:10Z</time>
      </trkpt>
      <trkpt lat="43.47391" lon="2.22988">
        <ele>659.1210938</ele>
        <time>2015-11-01T09:33:19Z</time>
      </trkpt>
      <trkpt lat="43.47373" lon="2.22996">
        <ele>659.1210938</ele>
        <time>2015-11-01T09:33:28Z</time>
      </trkpt>
      <trkpt lat="43.47357" lon="2.23002">
        <ele>659.6018066</ele>
        <time>2015-11-01T09:33:36Z</time>
      </trkpt>
      <trkpt lat="43.4734" lon="2.23009">
        <ele>662.005127</ele>
        <time>2015-11-01T09:33:45Z</time>
      </trkpt>
      <trkpt lat="43.47325" lon="2.23015">
        <ele>664.888916</ele>
        <time>2015-11-01T09:33:53Z</time>
      </trkpt>
      <trkpt lat="43.47319" lon="2.23017">
        <ele>664.888916</ele>
        <time>2015-11-01T09:33:56Z</time>
      </trkpt>
      <trkpt lat="43.47304" lon="2.23021">
        <ele>669.2150879</ele>
        <time>2015-11-01T09:34:04Z</time>
      </trkpt>
      <trkpt lat="43.47287" lon="2.23032">
        <ele>673.5410156</ele>
        <time>2015-11-01T09:34:14Z</time>
      </trkpt>
      <trkpt lat="43.47278" lon="2.23042">
        <ele>678.828125</ele>
        <time>2015-11-01T09:34:20Z</time>
      </trkpt>
      <trkpt lat="43.47269" lon="2.23053">
        <ele>686.9992676</ele>
        <time>2015-11-01T09:34:27Z</time>
      </trkpt>
      <trkpt lat="43.47263" lon="2.23063">
        <ele>688.4414063</ele>
        <time>2015-11-01T09:34:32Z</time>
      </trkpt>
      <trkpt lat="43.47248" lon="2.23077">
        <ele>687.4799805</ele>
        <time>2015-11-01T09:34:41Z</time>
      </trkpt>
      <trkpt lat="43.47233" lon="2.23087">
        <ele>684.1154785</ele>
        <time>2015-11-01T09:34:49Z</time>
      </trkpt>
      <trkpt lat="43.4722" lon="2.23095">
        <ele>684.5961914</ele>
        <time>2015-11-01T09:34:56Z</time>
      </trkpt>
      <trkpt lat="43.47212" lon="2.231">
        <ele>684.5961914</ele>
        <time>2015-11-01T09:35:02Z</time>
      </trkpt>
      <trkpt lat="43.47198" lon="2.23108">
        <ele>685.557373</ele>
        <time>2015-11-01T09:35:09Z</time>
      </trkpt>
      <trkpt lat="43.47186" lon="2.23116">
        <ele>687.4799805</ele>
        <time>2015-11-01T09:35:15Z</time>
      </trkpt>
      <trkpt lat="43.4717" lon="2.23127">
        <ele>688.9221191</ele>
        <time>2015-11-01T09:35:23Z</time>
      </trkpt>
      <trkpt lat="43.47159" lon="2.23136">
        <ele>691.3251953</ele>
        <time>2015-11-01T09:35:30Z</time>
      </trkpt>
      <trkpt lat="43.47148" lon="2.23146">
        <ele>694.2092285</ele>
        <time>2015-11-01T09:35:38Z</time>
      </trkpt>
      <trkpt lat="43.47136" lon="2.23157">
        <ele>694.2092285</ele>
        <time>2015-11-01T09:35:45Z</time>
      </trkpt>
      <trkpt lat="43.47126" lon="2.2317">
        <ele>693.7285156</ele>
        <time>2015-11-01T09:35:52Z</time>
      </trkpt>
      <trkpt lat="43.47112" lon="2.23181">
        <ele>693.7285156</ele>
        <time>2015-11-01T09:36:00Z</time>
      </trkpt>
      <trkpt lat="43.47098" lon="2.23192">
        <ele>694.2092285</ele>
        <time>2015-11-01T09:36:08Z</time>
      </trkpt>
      <trkpt lat="43.47082" lon="2.23198">
        <ele>696.1318359</ele>
        <time>2015-11-01T09:36:17Z</time>
      </trkpt>
      <trkpt lat="43.47066" lon="2.23198">
        <ele>698.5349121</ele>
        <time>2015-11-01T09:36:25Z</time>
      </trkpt>
      <trkpt lat="43.47047" lon="2.23201">
        <ele>699.015625</ele>
        <time>2015-11-01T09:36:34Z</time>
      </trkpt>
      <trkpt lat="43.47037" lon="2.23203">
        <ele>698.0544434</ele>
        <time>2015-11-01T09:36:40Z</time>
      </trkpt>
      <trkpt lat="43.47024" lon="2.23204">
        <ele>696.1318359</ele>
        <time>2015-11-01T09:36:47Z</time>
      </trkpt>
      <trkpt lat="43.4701" lon="2.23204">
        <ele>696.1318359</ele>
        <time>2015-11-01T09:36:55Z</time>
      </trkpt>
      <trkpt lat="43.47001" lon="2.23197">
        <ele>699.015625</ele>
        <time>2015-11-01T09:37:02Z</time>
      </trkpt>
      <trkpt lat="43.46988" lon="2.23186">
        <ele>704.7836914</ele>
        <time>2015-11-01T09:37:10Z</time>
      </trkpt>
      <trkpt lat="43.46977" lon="2.23175">
        <ele>708.6289063</ele>
        <time>2015-11-01T09:37:17Z</time>
      </trkpt>
      <trkpt lat="43.46964" lon="2.23164">
        <ele>708.6289063</ele>
        <time>2015-11-01T09:37:24Z</time>
      </trkpt>
      <trkpt lat="43.46952" lon="2.23156">
        <ele>707.6677246</ele>
        <time>2015-11-01T09:37:31Z</time>
      </trkpt>
      <trkpt lat="43.46943" lon="2.2315">
        <ele>706.7062988</ele>
        <time>2015-11-01T09:37:37Z</time>
      </trkpt>
      <trkpt lat="43.4693" lon="2.23147">
        <ele>705.2644043</ele>
        <time>2015-11-01T09:37:43Z</time>
      </trkpt>
      <trkpt lat="43.46912" lon="2.23139">
        <ele>714.3967285</ele>
        <time>2015-11-01T09:37:50Z</time>
      </trkpt>
      <trkpt lat="43.46894" lon="2.23144">
        <ele>712.4741211</ele>
        <time>2015-11-01T09:38:00Z</time>
      </trkpt>
      <trkpt lat="43.46881" lon="2.23148">
        <ele>711.9936523</ele>
        <time>2015-11-01T09:38:07Z</time>
      </trkpt>
      <trkpt lat="43.46877" lon="2.23148">
        <ele>712.954834</ele>
        <time>2015-11-01T09:38:09Z</time>
      </trkpt>
      <trkpt lat="43.4687" lon="2.23151">
        <ele>713.4355469</ele>
        <time>2015-11-01T09:38:13Z</time>
      </trkpt>
      <trkpt lat="43.46855" lon="2.23154">
        <ele>715.3581543</ele>
        <time>2015-11-01T09:38:21Z</time>
      </trkpt>
      <trkpt lat="43.46838" lon="2.2316">
        <ele>716.3195801</ele>
        <time>2015-11-01T09:38:30Z</time>
      </trkpt>
      <trkpt lat="43.46829" lon="2.23164">
        <ele>714.3967285</ele>
        <time>2015-11-01T09:38:36Z</time>
      </trkpt>
      <trkpt lat="43.46818" lon="2.23168">
        <ele>715.8388672</ele>
        <time>2015-11-01T09:38:42Z</time>
      </trkpt>
      <trkpt lat="43.46809" lon="2.23173">
        <ele>717.7614746</ele>
        <time>2015-11-01T09:38:48Z</time>
      </trkpt>
      <trkpt lat="43.46794" lon="2.2318">
        <ele>720.1647949</ele>
        <time>2015-11-01T09:38:56Z</time>
      </trkpt>
      <trkpt lat="43.4678" lon="2.23188">
        <ele>721.6066895</ele>
        <time>2015-11-01T09:39:03Z</time>
      </trkpt>
      <trkpt lat="43.46768" lon="2.23194">
        <ele>722.5681152</ele>
        <time>2015-11-01T09:39:09Z</time>
      </trkpt>
      <trkpt lat="43.46755" lon="2.23201">
        <ele>721.1262207</ele>
        <time>2015-11-01T09:39:16Z</time>
      </trkpt>
      <trkpt lat="43.4674" lon="2.23204">
        <ele>720.6455078</ele>
        <time>2015-11-01T09:39:23Z</time>
      </trkpt>
      <trkpt lat="43.46738" lon="2.23205">
        <ele>720.6455078</ele>
        <time>2015-11-01T09:39:24Z</time>
      </trkpt>
      <trkpt lat="43.46719" lon="2.23202">
        <ele>724.0100098</ele>
        <time>2015-11-01T09:39:31Z</time>
      </trkpt>
      <trkpt lat="43.46705" lon="2.23195">
        <ele>725.4519043</ele>
        <time>2015-11-01T09:39:36Z</time>
      </trkpt>
      <trkpt lat="43.46693" lon="2.23187">
        <ele>727.8552246</ele>
        <time>2015-11-01T09:39:41Z</time>
      </trkpt>
      <trkpt lat="43.4668" lon="2.23174">
        <ele>733.623291</ele>
        <time>2015-11-01T09:39:47Z</time>
      </trkpt>
      <trkpt lat="43.46658" lon="2.23158">
        <ele>736.987793</ele>
        <time>2015-11-01T09:39:54Z</time>
      </trkpt>
      <trkpt lat="43.46636" lon="2.23139">
        <ele>738.9106445</ele>
        <time>2015-11-01T09:40:01Z</time>
      </trkpt>
      <trkpt lat="43.46627" lon="2.2313">
        <ele>737.9492188</ele>
        <time>2015-11-01T09:40:05Z</time>
      </trkpt>
      <trkpt lat="43.46608" lon="2.23118">
        <ele>738.9106445</ele>
        <time>2015-11-01T09:40:13Z</time>
      </trkpt>
      <trkpt lat="43.46586" lon="2.23111">
        <ele>739.8718262</ele>
        <time>2015-11-01T09:40:20Z</time>
      </trkpt>
      <trkpt lat="43.46571" lon="2.2311">
        <ele>741.3137207</ele>
        <time>2015-11-01T09:40:25Z</time>
      </trkpt>
      <trkpt lat="43.46556" lon="2.23109">
        <ele>741.7944336</ele>
        <time>2015-11-01T09:40:31Z</time>
      </trkpt>
      <trkpt lat="43.46543" lon="2.23106">
        <ele>741.3137207</ele>
        <time>2015-11-01T09:40:36Z</time>
      </trkpt>
      <trkpt lat="43.46532" lon="2.23097">
        <ele>742.2751465</ele>
        <time>2015-11-01T09:40:41Z</time>
      </trkpt>
      <trkpt lat="43.46523" lon="2.23085">
        <ele>743.2363281</ele>
        <time>2015-11-01T09:40:46Z</time>
      </trkpt>
      <trkpt lat="43.4651" lon="2.23075">
        <ele>742.7558594</ele>
        <time>2015-11-01T09:40:51Z</time>
      </trkpt>
      <trkpt lat="43.4649" lon="2.23071">
        <ele>741.3137207</ele>
        <time>2015-11-01T09:40:58Z</time>
      </trkpt>
      <trkpt lat="43.46472" lon="2.23069">
        <ele>739.3911133</ele>
        <time>2015-11-01T09:41:05Z</time>
      </trkpt>
      <trkpt lat="43.46456" lon="2.23066">
        <ele>738.9106445</ele>
        <time>2015-11-01T09:41:11Z</time>
      </trkpt>
      <trkpt lat="43.46441" lon="2.23064">
        <ele>738.4299316</ele>
        <time>2015-11-01T09:41:17Z</time>
      </trkpt>
      <trkpt lat="43.46422" lon="2.23063">
        <ele>739.8718262</ele>
        <time>2015-11-01T09:41:25Z</time>
      </trkpt>
      <trkpt lat="43.46407" lon="2.23062">
        <ele>741.7944336</ele>
        <time>2015-11-01T09:41:32Z</time>
      </trkpt>
      <trkpt lat="43.46393" lon="2.23053">
        <ele>744.6782227</ele>
        <time>2015-11-01T09:41:39Z</time>
      </trkpt>
      <trkpt lat="43.46385" lon="2.23042">
        <ele>745.6396484</ele>
        <time>2015-11-01T09:41:44Z</time>
      </trkpt>
      <trkpt lat="43.46379" lon="2.23024">
        <ele>746.1203613</ele>
        <time>2015-11-01T09:41:50Z</time>
      </trkpt>
      <trkpt lat="43.4637" lon="2.22992">
        <ele>747.081543</ele>
        <time>2015-11-01T09:42:00Z</time>
      </trkpt>
      <trkpt lat="43.46362" lon="2.22972">
        <ele>747.5622559</ele>
        <time>2015-11-01T09:42:06Z</time>
      </trkpt>
      <trkpt lat="43.46349" lon="2.22951">
        <ele>747.5622559</ele>
        <time>2015-11-01T09:42:13Z</time>
      </trkpt>
      <trkpt lat="43.46336" lon="2.22927">
        <ele>748.0432129</ele>
        <time>2015-11-01T09:42:21Z</time>
      </trkpt>
      <trkpt lat="43.46321" lon="2.22892">
        <ele>749.0043945</ele>
        <time>2015-11-01T09:42:32Z</time>
      </trkpt>
      <trkpt lat="43.46318" lon="2.22871">
        <ele>749.9658203</ele>
        <time>2015-11-01T09:42:38Z</time>
      </trkpt>
      <trkpt lat="43.4632" lon="2.22851">
        <ele>750.927002</ele>
        <time>2015-11-01T09:42:44Z</time>
      </trkpt>
      <trkpt lat="43.46323" lon="2.22822">
        <ele>749.4851074</ele>
        <time>2015-11-01T09:42:52Z</time>
      </trkpt>
      <trkpt lat="43.46323" lon="2.22788">
        <ele>749.4851074</ele>
        <time>2015-11-01T09:43:01Z</time>
      </trkpt>
      <trkpt lat="43.46322" lon="2.22758">
        <ele>750.927002</ele>
        <time>2015-11-01T09:43:09Z</time>
      </trkpt>
      <trkpt lat="43.46321" lon="2.2274">
        <ele>751.8884277</ele>
        <time>2015-11-01T09:43:14Z</time>
      </trkpt>
      <trkpt lat="43.46312" lon="2.22718">
        <ele>753.8110352</ele>
        <time>2015-11-01T09:43:21Z</time>
      </trkpt>
      <trkpt lat="43.46296" lon="2.227">
        <ele>753.3303223</ele>
        <time>2015-11-01T09:43:29Z</time>
      </trkpt>
      <trkpt lat="43.46279" lon="2.22692">
        <ele>753.8110352</ele>
        <time>2015-11-01T09:43:36Z</time>
      </trkpt>
      <trkpt lat="43.46263" lon="2.22691">
        <ele>754.291748</ele>
        <time>2015-11-01T09:43:43Z</time>
      </trkpt>
      <trkpt lat="43.46243" lon="2.22691">
        <ele>754.7722168</ele>
        <time>2015-11-01T09:43:52Z</time>
      </trkpt>
      <trkpt lat="43.46231" lon="2.2269">
        <ele>755.7336426</ele>
        <time>2015-11-01T09:43:58Z</time>
      </trkpt>
      <trkpt lat="43.46204" lon="2.22687">
        <ele>758.6174316</ele>
        <time>2015-11-01T09:44:09Z</time>
      </trkpt>
      <trkpt lat="43.46182" lon="2.22682">
        <ele>761.020752</ele>
        <time>2015-11-01T09:44:18Z</time>
      </trkpt>
      <trkpt lat="43.46168" lon="2.22679">
        <ele>762.9433594</ele>
        <time>2015-11-01T09:44:24Z</time>
      </trkpt>
      <trkpt lat="43.4615" lon="2.22673">
        <ele>765.8276367</ele>
        <time>2015-11-01T09:44:32Z</time>
      </trkpt>
      <trkpt lat="43.46133" lon="2.22665">
        <ele>765.3469238</ele>
        <time>2015-11-01T09:44:40Z</time>
      </trkpt>
      <trkpt lat="43.4612" lon="2.22658">
        <ele>770.1533203</ele>
        <time>2015-11-01T09:44:46Z</time>
      </trkpt>
      <trkpt lat="43.46102" lon="2.22645">
        <ele>774.9599609</ele>
        <time>2015-11-01T09:44:54Z</time>
      </trkpt>
      <trkpt lat="43.46085" lon="2.22629">
        <ele>773.0373535</ele>
        <time>2015-11-01T09:45:03Z</time>
      </trkpt>
      <trkpt lat="43.46073" lon="2.22615">
        <ele>772.0759277</ele>
        <time>2015-11-01T09:45:10Z</time>
      </trkpt>
      <trkpt lat="43.46059" lon="2.22593">
        <ele>773.0373535</ele>
        <time>2015-11-01T09:45:19Z</time>
      </trkpt>
      <trkpt lat="43.46048" lon="2.22576">
        <ele>773.5180664</ele>
        <time>2015-11-01T09:45:26Z</time>
      </trkpt>
      <trkpt lat="43.46038" lon="2.22561">
        <ele>773.0373535</ele>
        <time>2015-11-01T09:45:32Z</time>
      </trkpt>
      <trkpt lat="43.46026" lon="2.22545">
        <ele>773.5180664</ele>
        <time>2015-11-01T09:45:39Z</time>
      </trkpt>
      <trkpt lat="43.46011" lon="2.22527">
        <ele>775.4404297</ele>
        <time>2015-11-01T09:45:48Z</time>
      </trkpt>
      <trkpt lat="43.46001" lon="2.22516">
        <ele>776.4018555</ele>
        <time>2015-11-01T09:45:54Z</time>
      </trkpt>
      <trkpt lat="43.4599" lon="2.22502">
        <ele>777.84375</ele>
        <time>2015-11-01T09:46:01Z</time>
      </trkpt>
      <trkpt lat="43.45987" lon="2.22499">
        <ele>777.84375</ele>
        <time>2015-11-01T09:46:06Z</time>
      </trkpt>
      <trkpt lat="43.45984" lon="2.22497">
        <ele>776.8825684</ele>
        <time>2015-11-01T09:46:16Z</time>
      </trkpt>
      <trkpt lat="43.45989" lon="2.22498">
        <ele>786.4958496</ele>
        <time>2015-11-01T09:46:37Z</time>
      </trkpt>
      <trkpt lat="43.45995" lon="2.22501">
        <ele>796.1091309</ele>
        <time>2015-11-01T09:46:53Z</time>
      </trkpt>
      <trkpt lat="43.45986" lon="2.22502">
        <ele>788.8991699</ele>
        <time>2015-11-01T09:47:00Z</time>
      </trkpt>
      <trkpt lat="43.45985" lon="2.225">
        <ele>783.6118164</ele>
        <time>2015-11-01T09:47:10Z</time>
      </trkpt>
      <trkpt lat="43.45985" lon="2.22501">
        <ele>784.5732422</ele>
        <time>2015-11-01T09:47:25Z</time>
      </trkpt>
      <trkpt lat="43.45985" lon="2.22503">
        <ele>783.6118164</ele>
        <time>2015-11-01T09:47:36Z</time>
      </trkpt>
      <trkpt lat="43.45985" lon="2.22505">
        <ele>782.6506348</ele>
        <time>2015-11-01T09:47:52Z</time>
      </trkpt>
      <trkpt lat="43.45982" lon="2.225">
        <ele>773.9985352</ele>
        <time>2015-11-01T09:48:10Z</time>
      </trkpt>
      <trkpt lat="43.45985" lon="2.225">
        <ele>775.9211426</ele>
        <time>2015-11-01T09:48:23Z</time>
      </trkpt>
      <trkpt lat="43.45985" lon="2.22505">
        <ele>769.6728516</ele>
        <time>2015-11-01T09:48:41Z</time>
      </trkpt>
      <trkpt lat="43.45986" lon="2.22506">
        <ele>769.1921387</ele>
        <time>2015-11-01T09:48:42Z</time>
      </trkpt>
      <trkpt lat="43.45997" lon="2.22522">
        <ele>766.7888184</ele>
        <time>2015-11-01T09:48:51Z</time>
      </trkpt>
      <trkpt lat="43.46003" lon="2.22536">
        <ele>769.1921387</ele>
        <time>2015-11-01T09:48:58Z</time>
      </trkpt>
      <trkpt lat="43.46004" lon="2.22538">
        <ele>769.1921387</ele>
        <time>2015-11-01T09:48:59Z</time>
      </trkpt>
      <trkpt lat="43.46009" lon="2.22548">
        <ele>769.6728516</ele>
        <time>2015-11-01T09:49:05Z</time>
      </trkpt>
      <trkpt lat="43.46018" lon="2.22569">
        <ele>768.2307129</ele>
        <time>2015-11-01T09:49:13Z</time>
      </trkpt>
      <trkpt lat="43.46022" lon="2.22582">
        <ele>765.8276367</ele>
        <time>2015-11-01T09:49:18Z</time>
      </trkpt>
      <trkpt lat="43.46029" lon="2.22596">
        <ele>763.4240723</ele>
        <time>2015-11-01T09:49:24Z</time>
      </trkpt>
      <trkpt lat="43.46035" lon="2.22611">
        <ele>761.9821777</ele>
        <time>2015-11-01T09:49:30Z</time>
      </trkpt>
      <trkpt lat="43.46043" lon="2.22629">
        <ele>761.5014648</ele>
        <time>2015-11-01T09:49:36Z</time>
      </trkpt>
      <trkpt lat="43.46051" lon="2.22646">
        <ele>761.020752</ele>
        <time>2015-11-01T09:49:42Z</time>
      </trkpt>
      <trkpt lat="43.46061" lon="2.2266">
        <ele>764.8662109</ele>
        <time>2015-11-01T09:49:47Z</time>
      </trkpt>
      <trkpt lat="43.46075" lon="2.22681">
        <ele>765.3469238</ele>
        <time>2015-11-01T09:49:55Z</time>
      </trkpt>
      <trkpt lat="43.46097" lon="2.22704">
        <ele>768.7114258</ele>
        <time>2015-11-01T09:50:05Z</time>
      </trkpt>
      <trkpt lat="43.46116" lon="2.22723">
        <ele>772.5566406</ele>
        <time>2015-11-01T09:50:14Z</time>
      </trkpt>
      <trkpt lat="43.4613" lon="2.22739">
        <ele>771.5952148</ele>
        <time>2015-11-01T09:50:21Z</time>
      </trkpt>
      <trkpt lat="43.46149" lon="2.22756">
        <ele>771.1147461</ele>
        <time>2015-11-01T09:50:29Z</time>
      </trkpt>
      <trkpt lat="43.46166" lon="2.22774">
        <ele>770.6340332</ele>
        <time>2015-11-01T09:50:37Z</time>
      </trkpt>
      <trkpt lat="43.46174" lon="2.22794">
        <ele>768.7114258</ele>
        <time>2015-11-01T09:50:43Z</time>
      </trkpt>
      <trkpt lat="43.46181" lon="2.22825">
        <ele>771.5952148</ele>
        <time>2015-11-01T09:50:51Z</time>
      </trkpt>
      <trkpt lat="43.4618" lon="2.22839">
        <ele>776.8825684</ele>
        <time>2015-11-01T09:50:55Z</time>
      </trkpt>
      <trkpt lat="43.46181" lon="2.22865">
        <ele>779.7663574</ele>
        <time>2015-11-01T09:51:02Z</time>
      </trkpt>
      <trkpt lat="43.46185" lon="2.22891">
        <ele>782.6506348</ele>
        <time>2015-11-01T09:51:09Z</time>
      </trkpt>
      <trkpt lat="43.46191" lon="2.22925">
        <ele>784.5732422</ele>
        <time>2015-11-01T09:51:18Z</time>
      </trkpt>
      <trkpt lat="43.46193" lon="2.22956">
        <ele>786.9763184</ele>
        <time>2015-11-01T09:51:26Z</time>
      </trkpt>
      <trkpt lat="43.46197" lon="2.22983">
        <ele>788.418457</ele>
        <time>2015-11-01T09:51:33Z</time>
      </trkpt>
      <trkpt lat="43.46205" lon="2.23004">
        <ele>788.8991699</ele>
        <time>2015-11-01T09:51:39Z</time>
      </trkpt>
      <trkpt lat="43.46222" lon="2.2304">
        <ele>788.418457</ele>
        <time>2015-11-01T09:51:50Z</time>
      </trkpt>
      <trkpt lat="43.46237" lon="2.23069">
        <ele>788.8991699</ele>
        <time>2015-11-01T09:51:59Z</time>
      </trkpt>
      <trkpt lat="43.46251" lon="2.23094">
        <ele>787.4570313</ele>
        <time>2015-11-01T09:52:08Z</time>
      </trkpt>
      <trkpt lat="43.46268" lon="2.23123">
        <ele>784.5732422</ele>
        <time>2015-11-01T09:52:18Z</time>
      </trkpt>
      <trkpt lat="43.46284" lon="2.23154">
        <ele>783.6118164</ele>
        <time>2015-11-01T09:52:28Z</time>
      </trkpt>
      <trkpt lat="43.46296" lon="2.23179">
        <ele>784.0925293</ele>
        <time>2015-11-01T09:52:36Z</time>
      </trkpt>
      <trkpt lat="43.4631" lon="2.23212">
        <ele>785.0539551</ele>
        <time>2015-11-01T09:52:46Z</time>
      </trkpt>
      <trkpt lat="43.46321" lon="2.23237">
        <ele>784.0925293</ele>
        <time>2015-11-01T09:52:54Z</time>
      </trkpt>
      <trkpt lat="43.46334" lon="2.23251">
        <ele>783.1311035</ele>
        <time>2015-11-01T09:53:01Z</time>
      </trkpt>
      <trkpt lat="43.46348" lon="2.23264">
        <ele>786.0151367</ele>
        <time>2015-11-01T09:53:08Z</time>
      </trkpt>
      <trkpt lat="43.46359" lon="2.23274">
        <ele>789.8603516</ele>
        <time>2015-11-01T09:53:13Z</time>
      </trkpt>
      <trkpt lat="43.46372" lon="2.23285">
        <ele>792.2636719</ele>
        <time>2015-11-01T09:53:19Z</time>
      </trkpt>
      <trkpt lat="43.46385" lon="2.233">
        <ele>791.782959</ele>
        <time>2015-11-01T09:53:26Z</time>
      </trkpt>
      <trkpt lat="43.46396" lon="2.23315">
        <ele>792.2636719</ele>
        <time>2015-11-01T09:53:32Z</time>
      </trkpt>
      <trkpt lat="43.46405" lon="2.23327">
        <ele>793.7055664</ele>
        <time>2015-11-01T09:53:37Z</time>
      </trkpt>
      <trkpt lat="43.46415" lon="2.23333">
        <ele>796.5898438</ele>
        <time>2015-11-01T09:53:40Z</time>
      </trkpt>
      <trkpt lat="43.46431" lon="2.23347">
        <ele>798.512207</ele>
        <time>2015-11-01T09:53:46Z</time>
      </trkpt>
      <trkpt lat="43.46446" lon="2.23361">
        <ele>799.9543457</ele>
        <time>2015-11-01T09:53:52Z</time>
      </trkpt>
      <trkpt lat="43.46448" lon="2.23363">
        <ele>799.9543457</ele>
        <time>2015-11-01T09:53:53Z</time>
      </trkpt>
      <trkpt lat="43.46463" lon="2.23384">
        <ele>800.9155273</ele>
        <time>2015-11-01T09:54:01Z</time>
      </trkpt>
      <trkpt lat="43.46471" lon="2.23406">
        <ele>801.3962402</ele>
        <time>2015-11-01T09:54:08Z</time>
      </trkpt>
      <trkpt lat="43.46468" lon="2.23424">
        <ele>804.7607422</ele>
        <time>2015-11-01T09:54:14Z</time>
      </trkpt>
      <trkpt lat="43.46459" lon="2.23445">
        <ele>811.9707031</ele>
        <time>2015-11-01T09:54:21Z</time>
      </trkpt>
      <trkpt lat="43.4645" lon="2.23461">
        <ele>817.7385254</ele>
        <time>2015-11-01T09:54:27Z</time>
      </trkpt>
      <trkpt lat="43.46438" lon="2.2347">
        <ele>821.1032715</ele>
        <time>2015-11-01T09:54:33Z</time>
      </trkpt>
      <trkpt lat="43.46425" lon="2.23477">
        <ele>826.3903809</ele>
        <time>2015-11-01T09:54:38Z</time>
      </trkpt>
      <trkpt lat="43.4641" lon="2.23491">
        <ele>823.9870605</ele>
        <time>2015-11-01T09:54:45Z</time>
      </trkpt>
      <trkpt lat="43.46404" lon="2.23507">
        <ele>821.1032715</ele>
        <time>2015-11-01T09:54:50Z</time>
      </trkpt>
      <trkpt lat="43.46404" lon="2.23524">
        <ele>817.7385254</ele>
        <time>2015-11-01T09:54:55Z</time>
      </trkpt>
      <trkpt lat="43.46408" lon="2.23545">
        <ele>815.8161621</ele>
        <time>2015-11-01T09:55:01Z</time>
      </trkpt>
      <trkpt lat="43.4641" lon="2.23567">
        <ele>815.3354492</ele>
        <time>2015-11-01T09:55:06Z</time>
      </trkpt>
      <trkpt lat="43.46415" lon="2.23592">
        <ele>813.4128418</ele>
        <time>2015-11-01T09:55:12Z</time>
      </trkpt>
      <trkpt lat="43.46421" lon="2.23608">
        <ele>810.5285645</ele>
        <time>2015-11-01T09:55:16Z</time>
      </trkpt>
      <trkpt lat="43.46432" lon="2.2363">
        <ele>808.605957</ele>
        <time>2015-11-01T09:55:22Z</time>
      </trkpt>
      <trkpt lat="43.4644" lon="2.23648">
        <ele>806.6833496</ele>
        <time>2015-11-01T09:55:27Z</time>
      </trkpt>
      <trkpt lat="43.46442" lon="2.23672">
        <ele>809.0866699</ele>
        <time>2015-11-01T09:55:33Z</time>
      </trkpt>
      <trkpt lat="43.46433" lon="2.23688">
        <ele>811.4899902</ele>
        <time>2015-11-01T09:55:38Z</time>
      </trkpt>
      <trkpt lat="43.4642" lon="2.23695">
        <ele>810.0478516</ele>
        <time>2015-11-01T09:55:43Z</time>
      </trkpt>
      <trkpt lat="43.46401" lon="2.23697">
        <ele>810.0478516</ele>
        <time>2015-11-01T09:55:49Z</time>
      </trkpt>
      <trkpt lat="43.4638" lon="2.237">
        <ele>810.5285645</ele>
        <time>2015-11-01T09:55:56Z</time>
      </trkpt>
      <trkpt lat="43.46356" lon="2.23705">
        <ele>810.0478516</ele>
        <time>2015-11-01T09:56:04Z</time>
      </trkpt>
      <trkpt lat="43.46339" lon="2.23711">
        <ele>810.5285645</ele>
        <time>2015-11-01T09:56:10Z</time>
      </trkpt>
      <trkpt lat="43.46327" lon="2.23717">
        <ele>813.4128418</ele>
        <time>2015-11-01T09:56:15Z</time>
      </trkpt>
      <trkpt lat="43.46307" lon="2.23722">
        <ele>813.8933105</ele>
        <time>2015-11-01T09:56:21Z</time>
      </trkpt>
      <trkpt lat="43.46294" lon="2.23732">
        <ele>817.2580566</ele>
        <time>2015-11-01T09:56:26Z</time>
      </trkpt>
      <trkpt lat="43.46276" lon="2.23748">
        <ele>819.1806641</ele>
        <time>2015-11-01T09:56:33Z</time>
      </trkpt>
      <trkpt lat="43.46262" lon="2.23758">
        <ele>821.1032715</ele>
        <time>2015-11-01T09:56:38Z</time>
      </trkpt>
      <trkpt lat="43.46249" lon="2.23769">
        <ele>820.1418457</ele>
        <time>2015-11-01T09:56:44Z</time>
      </trkpt>
      <trkpt lat="43.46235" lon="2.23778">
        <ele>819.661377</ele>
        <time>2015-11-01T09:56:50Z</time>
      </trkpt>
      <trkpt lat="43.46212" lon="2.23789">
        <ele>820.1418457</ele>
        <time>2015-11-01T09:56:58Z</time>
      </trkpt>
      <trkpt lat="43.46198" lon="2.23796">
        <ele>820.6225586</ele>
        <time>2015-11-01T09:57:04Z</time>
      </trkpt>
      <trkpt lat="43.46187" lon="2.238">
        <ele>818.6999512</ele>
        <time>2015-11-01T09:57:09Z</time>
      </trkpt>
      <trkpt lat="43.46169" lon="2.23805">
        <ele>817.7385254</ele>
        <time>2015-11-01T09:57:15Z</time>
      </trkpt>
      <trkpt lat="43.46149" lon="2.23808">
        <ele>816.7773438</ele>
        <time>2015-11-01T09:57:21Z</time>
      </trkpt>
      <trkpt lat="43.46127" lon="2.23807">
        <ele>819.1806641</ele>
        <time>2015-11-01T09:57:28Z</time>
      </trkpt>
      <trkpt lat="43.46116" lon="2.23795">
        <ele>821.5837402</ele>
        <time>2015-11-01T09:57:33Z</time>
      </trkpt>
      <trkpt lat="43.46111" lon="2.2378">
        <ele>825.4289551</ele>
        <time>2015-11-01T09:57:38Z</time>
      </trkpt>
      <trkpt lat="43.46106" lon="2.23765">
        <ele>830.2358398</ele>
        <time>2015-11-01T09:57:43Z</time>
      </trkpt>
      <trkpt lat="43.46099" lon="2.23745">
        <ele>841.2907715</ele>
        <time>2015-11-01T09:57:49Z</time>
      </trkpt>
      <trkpt lat="43.46091" lon="2.23722">
        <ele>851.3847656</ele>
        <time>2015-11-01T09:57:55Z</time>
      </trkpt>
      <trkpt lat="43.46086" lon="2.23706">
        <ele>850.423584</ele>
        <time>2015-11-01T09:58:00Z</time>
      </trkpt>
      <trkpt lat="43.4608" lon="2.23692">
        <ele>845.6169434</ele>
        <time>2015-11-01T09:58:05Z</time>
      </trkpt>
      <trkpt lat="43.46074" lon="2.23684">
        <ele>844.1750488</ele>
        <time>2015-11-01T09:58:08Z</time>
      </trkpt>
      <trkpt lat="43.46065" lon="2.23678">
        <ele>840.3295898</ele>
        <time>2015-11-01T09:58:12Z</time>
      </trkpt>
      <trkpt lat="43.46053" lon="2.2367">
        <ele>838.8876953</ele>
        <time>2015-11-01T09:58:17Z</time>
      </trkpt>
      <trkpt lat="43.46031" lon="2.23663">
        <ele>834.5617676</ele>
        <time>2015-11-01T09:58:24Z</time>
      </trkpt>
      <trkpt lat="43.46019" lon="2.23658">
        <ele>833.6003418</ele>
        <time>2015-11-01T09:58:28Z</time>
      </trkpt>
      <trkpt lat="43.46003" lon="2.23652">
        <ele>833.6003418</ele>
        <time>2015-11-01T09:58:34Z</time>
      </trkpt>
      <trkpt lat="43.45985" lon="2.23647">
        <ele>834.0810547</ele>
        <time>2015-11-01T09:58:40Z</time>
      </trkpt>
      <trkpt lat="43.45971" lon="2.23644">
        <ele>831.1972656</ele>
        <time>2015-11-01T09:58:46Z</time>
      </trkpt>
      <trkpt lat="43.45961" lon="2.23645">
        <ele>830.2358398</ele>
        <time>2015-11-01T09:58:51Z</time>
      </trkpt>
      <trkpt lat="43.45951" lon="2.23655">
        <ele>829.755127</ele>
        <time>2015-11-01T09:58:56Z</time>
      </trkpt>
      <trkpt lat="43.45942" lon="2.23672">
        <ele>831.6777344</ele>
        <time>2015-11-01T09:59:01Z</time>
      </trkpt>
      <trkpt lat="43.45936" lon="2.23688">
        <ele>835.0424805</ele>
        <time>2015-11-01T09:59:06Z</time>
      </trkpt>
      <trkpt lat="43.4593" lon="2.237">
        <ele>838.8876953</ele>
        <time>2015-11-01T09:59:10Z</time>
      </trkpt>
      <trkpt lat="43.45924" lon="2.23719">
        <ele>845.6169434</ele>
        <time>2015-11-01T09:59:17Z</time>
      </trkpt>
      <trkpt lat="43.45926" lon="2.23731">
        <ele>843.6940918</ele>
        <time>2015-11-01T09:59:22Z</time>
      </trkpt>
      <trkpt lat="43.45927" lon="2.23739">
        <ele>840.8100586</ele>
        <time>2015-11-01T09:59:25Z</time>
      </trkpt>
      <trkpt lat="43.4593" lon="2.23753">
        <ele>834.5617676</ele>
        <time>2015-11-01T09:59:30Z</time>
      </trkpt>
      <trkpt lat="43.45934" lon="2.23772">
        <ele>832.1584473</ele>
        <time>2015-11-01T09:59:36Z</time>
      </trkpt>
      <trkpt lat="43.45942" lon="2.23786">
        <ele>830.7165527</ele>
        <time>2015-11-01T09:59:42Z</time>
      </trkpt>
      <trkpt lat="43.45953" lon="2.23797">
        <ele>836.484375</ele>
        <time>2015-11-01T09:59:48Z</time>
      </trkpt>
      <trkpt lat="43.45963" lon="2.23807">
        <ele>836.484375</ele>
        <time>2015-11-01T09:59:53Z</time>
      </trkpt>
      <trkpt lat="43.4597" lon="2.23814">
        <ele>835.5229492</ele>
        <time>2015-11-01T09:59:58Z</time>
      </trkpt>
      <trkpt lat="43.45983" lon="2.23823">
        <ele>837.4455566</ele>
        <time>2015-11-01T10:00:05Z</time>
      </trkpt>
      <trkpt lat="43.45994" lon="2.23831">
        <ele>836.484375</ele>
        <time>2015-11-01T10:00:10Z</time>
      </trkpt>
      <trkpt lat="43.46002" lon="2.23844">
        <ele>835.5229492</ele>
        <time>2015-11-01T10:00:16Z</time>
      </trkpt>
      <trkpt lat="43.46016" lon="2.23856">
        <ele>835.5229492</ele>
        <time>2015-11-01T10:00:22Z</time>
      </trkpt>
      <trkpt lat="43.46021" lon="2.23867">
        <ele>836.0036621</ele>
        <time>2015-11-01T10:00:27Z</time>
      </trkpt>
      <trkpt lat="43.46029" lon="2.23887">
        <ele>837.9262695</ele>
        <time>2015-11-01T10:00:34Z</time>
      </trkpt>
      <trkpt lat="43.46035" lon="2.23908">
        <ele>836.0036621</ele>
        <time>2015-11-01T10:00:41Z</time>
      </trkpt>
      <trkpt lat="43.46036" lon="2.23927">
        <ele>837.9262695</ele>
        <time>2015-11-01T10:00:47Z</time>
      </trkpt>
      <trkpt lat="43.46038" lon="2.23943">
        <ele>841.2907715</ele>
        <time>2015-11-01T10:00:53Z</time>
      </trkpt>
      <trkpt lat="43.46042" lon="2.23969">
        <ele>840.3295898</ele>
        <time>2015-11-01T10:01:01Z</time>
      </trkpt>
      <trkpt lat="43.46052" lon="2.23993">
        <ele>839.3681641</ele>
        <time>2015-11-01T10:01:08Z</time>
      </trkpt>
      <trkpt lat="43.46063" lon="2.24002">
        <ele>840.3295898</ele>
        <time>2015-11-01T10:01:13Z</time>
      </trkpt>
      <trkpt lat="43.46086" lon="2.24004">
        <ele>841.7714844</ele>
        <time>2015-11-01T10:01:20Z</time>
      </trkpt>
      <trkpt lat="43.46101" lon="2.24004">
        <ele>843.6940918</ele>
        <time>2015-11-01T10:01:25Z</time>
      </trkpt>
      <trkpt lat="43.4612" lon="2.24006">
        <ele>848.0202637</ele>
        <time>2015-11-01T10:01:31Z</time>
      </trkpt>
      <trkpt lat="43.46141" lon="2.2401">
        <ele>849.9428711</ele>
        <time>2015-11-01T10:01:37Z</time>
      </trkpt>
      <trkpt lat="43.46158" lon="2.24016">
        <ele>852.8266602</ele>
        <time>2015-11-01T10:01:43Z</time>
      </trkpt>
      <trkpt lat="43.46178" lon="2.24026">
        <ele>848.0202637</ele>
        <time>2015-11-01T10:01:49Z</time>
      </trkpt>
      <trkpt lat="43.46195" lon="2.24034">
        <ele>851.3847656</ele>
        <time>2015-11-01T10:01:56Z</time>
      </trkpt>
      <trkpt lat="43.46217" lon="2.24042">
        <ele>850.423584</ele>
        <time>2015-11-01T10:02:03Z</time>
      </trkpt>
      <trkpt lat="43.4623" lon="2.24047">
        <ele>848.5007324</ele>
        <time>2015-11-01T10:02:08Z</time>
      </trkpt>
      <trkpt lat="43.46247" lon="2.24053">
        <ele>846.0976563</ele>
        <time>2015-11-01T10:02:15Z</time>
      </trkpt>
      <trkpt lat="43.46256" lon="2.24056">
        <ele>845.1362305</ele>
        <time>2015-11-01T10:02:21Z</time>
      </trkpt>
      <trkpt lat="43.4626" lon="2.24059">
        <ele>844.6555176</ele>
        <time>2015-11-01T10:02:24Z</time>
      </trkpt>
      <trkpt lat="43.46255" lon="2.24065">
        <ele>844.6555176</ele>
        <time>2015-11-01T10:02:29Z</time>
      </trkpt>
      <trkpt lat="43.46252" lon="2.24064">
        <ele>844.6555176</ele>
        <time>2015-11-01T10:02:30Z</time>
      </trkpt>
      <trkpt lat="43.46235" lon="2.24062">
        <ele>846.0976563</ele>
        <time>2015-11-01T10:02:36Z</time>
      </trkpt>
      <trkpt lat="43.46213" lon="2.24064">
        <ele>847.5395508</ele>
        <time>2015-11-01T10:02:44Z</time>
      </trkpt>
      <trkpt lat="43.46193" lon="2.24066">
        <ele>850.423584</ele>
        <time>2015-11-01T10:02:51Z</time>
      </trkpt>
      <trkpt lat="43.46176" lon="2.24067">
        <ele>852.8266602</ele>
        <time>2015-11-01T10:02:58Z</time>
      </trkpt>
      <trkpt lat="43.46154" lon="2.24069">
        <ele>852.8266602</ele>
        <time>2015-11-01T10:03:07Z</time>
      </trkpt>
      <trkpt lat="43.46135" lon="2.24071">
        <ele>852.3459473</ele>
        <time>2015-11-01T10:03:15Z</time>
      </trkpt>
      <trkpt lat="43.4611" lon="2.24077">
        <ele>853.307373</ele>
        <time>2015-11-01T10:03:25Z</time>
      </trkpt>
      <trkpt lat="43.46093" lon="2.24086">
        <ele>854.2687988</ele>
        <time>2015-11-01T10:03:32Z</time>
      </trkpt>
      <trkpt lat="43.46075" lon="2.24099">
        <ele>856.671875</ele>
        <time>2015-11-01T10:03:39Z</time>
      </trkpt>
      <trkpt lat="43.46063" lon="2.24116">
        <ele>858.1140137</ele>
        <time>2015-11-01T10:03:45Z</time>
      </trkpt>
      <trkpt lat="43.46053" lon="2.24142">
        <ele>859.0751953</ele>
        <time>2015-11-01T10:03:53Z</time>
      </trkpt>
      <trkpt lat="43.46049" lon="2.24166">
        <ele>859.5559082</ele>
        <time>2015-11-01T10:03:59Z</time>
      </trkpt>
      <trkpt lat="43.46047" lon="2.24185">
        <ele>860.517334</ele>
        <time>2015-11-01T10:04:04Z</time>
      </trkpt>
      <trkpt lat="43.46046" lon="2.24215">
        <ele>860.9980469</ele>
        <time>2015-11-01T10:04:12Z</time>
      </trkpt>
      <trkpt lat="43.46047" lon="2.24237">
        <ele>862.4399414</ele>
        <time>2015-11-01T10:04:18Z</time>
      </trkpt>
      <trkpt lat="43.46053" lon="2.24263">
        <ele>862.4399414</ele>
        <time>2015-11-01T10:04:25Z</time>
      </trkpt>
      <trkpt lat="43.46065" lon="2.2429">
        <ele>862.9206543</ele>
        <time>2015-11-01T10:04:33Z</time>
      </trkpt>
      <trkpt lat="43.46075" lon="2.24314">
        <ele>863.4013672</ele>
        <time>2015-11-01T10:04:41Z</time>
      </trkpt>
      <trkpt lat="43.46082" lon="2.24343">
        <ele>864.3625488</ele>
        <time>2015-11-01T10:04:49Z</time>
      </trkpt>
      <trkpt lat="43.46082" lon="2.24368">
        <ele>867.7270508</ele>
        <time>2015-11-01T10:04:56Z</time>
      </trkpt>
      <trkpt lat="43.46079" lon="2.24391">
        <ele>873.4951172</ele>
        <time>2015-11-01T10:05:03Z</time>
      </trkpt>
      <trkpt lat="43.46073" lon="2.24417">
        <ele>877.8210449</ele>
        <time>2015-11-01T10:05:11Z</time>
      </trkpt>
      <trkpt lat="43.46061" lon="2.2445">
        <ele>883.5888672</ele>
        <time>2015-11-01T10:05:21Z</time>
      </trkpt>
      <trkpt lat="43.46051" lon="2.24487">
        <ele>884.0695801</ele>
        <time>2015-11-01T10:05:31Z</time>
      </trkpt>
      <trkpt lat="43.46043" lon="2.24517">
        <ele>885.5114746</ele>
        <time>2015-11-01T10:05:39Z</time>
      </trkpt>
      <trkpt lat="43.46039" lon="2.24541">
        <ele>883.5888672</ele>
        <time>2015-11-01T10:05:45Z</time>
      </trkpt>
      <trkpt lat="43.46032" lon="2.2457">
        <ele>881.6662598</ele>
        <time>2015-11-01T10:05:52Z</time>
      </trkpt>
      <trkpt lat="43.46025" lon="2.24598">
        <ele>880.7050781</ele>
        <time>2015-11-01T10:05:59Z</time>
      </trkpt>
      <trkpt lat="43.46021" lon="2.24636">
        <ele>877.3405762</ele>
        <time>2015-11-01T10:06:08Z</time>
      </trkpt>
      <trkpt lat="43.46023" lon="2.24667">
        <ele>877.8210449</ele>
        <time>2015-11-01T10:06:15Z</time>
      </trkpt>
      <trkpt lat="43.46025" lon="2.24697">
        <ele>873.4951172</ele>
        <time>2015-11-01T10:06:22Z</time>
      </trkpt>
      <trkpt lat="43.46018" lon="2.24727">
        <ele>874.9370117</ele>
        <time>2015-11-01T10:06:29Z</time>
      </trkpt>
      <trkpt lat="43.46011" lon="2.24747">
        <ele>876.3791504</ele>
        <time>2015-11-01T10:06:35Z</time>
      </trkpt>
      <trkpt lat="43.46001" lon="2.24771">
        <ele>877.3405762</ele>
        <time>2015-11-01T10:06:43Z</time>
      </trkpt>
      <trkpt lat="43.45998" lon="2.24777">
        <ele>878.3017578</ele>
        <time>2015-11-01T10:06:49Z</time>
      </trkpt>
      <trkpt lat="43.45997" lon="2.24778">
        <ele>880.7050781</ele>
        <time>2015-11-01T10:06:56Z</time>
      </trkpt>
      <trkpt lat="43.45998" lon="2.24779">
        <ele>882.1469727</ele>
        <time>2015-11-01T10:07:01Z</time>
      </trkpt>
      <trkpt lat="43.46" lon="2.24782">
        <ele>880.2243652</ele>
        <time>2015-11-01T10:07:09Z</time>
      </trkpt>
      <trkpt lat="43.46" lon="2.24783">
        <ele>878.3017578</ele>
        <time>2015-11-01T10:07:22Z</time>
      </trkpt>
      <trkpt lat="43.46" lon="2.24784">
        <ele>880.7050781</ele>
        <time>2015-11-01T10:07:38Z</time>
      </trkpt>
      <trkpt lat="43.46001" lon="2.24783">
        <ele>881.6662598</ele>
        <time>2015-11-01T10:07:48Z</time>
      </trkpt>
      <trkpt lat="43.46" lon="2.24784">
        <ele>882.6276855</ele>
        <time>2015-11-01T10:07:59Z</time>
      </trkpt>
      <trkpt lat="43.46" lon="2.24784">
        <ele>881.185791</ele>
        <time>2015-11-01T10:08:32Z</time>
      </trkpt>
      <trkpt lat="43.46001" lon="2.24784">
        <ele>879.7436523</ele>
        <time>2015-11-01T10:08:45Z</time>
      </trkpt>
      <trkpt lat="43.46001" lon="2.24783">
        <ele>879.2629395</ele>
        <time>2015-11-01T10:09:01Z</time>
      </trkpt>
      <trkpt lat="43.46" lon="2.24784">
        <ele>878.3017578</ele>
        <time>2015-11-01T10:09:22Z</time>
      </trkpt>
      <trkpt lat="43.46001" lon="2.24784">
        <ele>876.8598633</ele>
        <time>2015-11-01T10:09:34Z</time>
      </trkpt>
      <trkpt lat="43.46" lon="2.24784">
        <ele>877.3405762</ele>
        <time>2015-11-01T10:09:41Z</time>
      </trkpt>
      <trkpt lat="43.45999" lon="2.24783">
        <ele>879.2629395</ele>
        <time>2015-11-01T10:10:16Z</time>
      </trkpt>
      <trkpt lat="43.46005" lon="2.24785">
        <ele>880.7050781</ele>
        <time>2015-11-01T10:10:59Z</time>
      </trkpt>
      <trkpt lat="43.46004" lon="2.24786">
        <ele>881.185791</ele>
        <time>2015-11-01T10:11:39Z</time>
      </trkpt>
      <trkpt lat="43.46002" lon="2.24786">
        <ele>880.2243652</ele>
        <time>2015-11-01T10:12:07Z</time>
      </trkpt>
      <trkpt lat="43.46001" lon="2.24786">
        <ele>880.7050781</ele>
        <time>2015-11-01T10:12:22Z</time>
      </trkpt>
      <trkpt lat="43.46" lon="2.2479">
        <ele>880.7050781</ele>
        <time>2015-11-01T10:12:28Z</time>
      </trkpt>
      <trkpt lat="43.45994" lon="2.24801">
        <ele>881.6662598</ele>
        <time>2015-11-01T10:12:33Z</time>
      </trkpt>
      <trkpt lat="43.45988" lon="2.24823">
        <ele>882.1469727</ele>
        <time>2015-11-01T10:12:39Z</time>
      </trkpt>
      <trkpt lat="43.45984" lon="2.24869">
        <ele>882.1469727</ele>
        <time>2015-11-01T10:12:48Z</time>
      </trkpt>
      <trkpt lat="43.45981" lon="2.24905">
        <ele>881.6662598</ele>
        <time>2015-11-01T10:12:55Z</time>
      </trkpt>
      <trkpt lat="43.45978" lon="2.24948">
        <ele>881.6662598</ele>
        <time>2015-11-01T10:13:03Z</time>
      </trkpt>
      <trkpt lat="43.45969" lon="2.24997">
        <ele>880.2243652</ele>
        <time>2015-11-01T10:13:12Z</time>
      </trkpt>
      <trkpt lat="43.45959" lon="2.2504">
        <ele>879.2629395</ele>
        <time>2015-11-01T10:13:19Z</time>
      </trkpt>
      <trkpt lat="43.45948" lon="2.25064">
        <ele>878.7824707</ele>
        <time>2015-11-01T10:13:23Z</time>
      </trkpt>
      <trkpt lat="43.45941" lon="2.25073">
        <ele>878.3017578</ele>
        <time>2015-11-01T10:13:25Z</time>
      </trkpt>
      <trkpt lat="43.45903" lon="2.25104">
        <ele>876.3791504</ele>
        <time>2015-11-01T10:13:33Z</time>
      </trkpt>
      <trkpt lat="43.4586" lon="2.25134">
        <ele>873.9755859</ele>
        <time>2015-11-01T10:13:41Z</time>
      </trkpt>
      <trkpt lat="43.45819" lon="2.25162">
        <ele>872.0529785</ele>
        <time>2015-11-01T10:13:48Z</time>
      </trkpt>
      <trkpt lat="43.45764" lon="2.25203">
        <ele>868.6884766</ele>
        <time>2015-11-01T10:13:58Z</time>
      </trkpt>
      <trkpt lat="43.45722" lon="2.25233">
        <ele>866.7658691</ele>
        <time>2015-11-01T10:14:06Z</time>
      </trkpt>
      <trkpt lat="43.4568" lon="2.25263">
        <ele>863.8818359</ele>
        <time>2015-11-01T10:14:14Z</time>
      </trkpt>
      <trkpt lat="43.45641" lon="2.25293">
        <ele>860.9980469</ele>
        <time>2015-11-01T10:14:21Z</time>
      </trkpt>
      <trkpt lat="43.45607" lon="2.25318">
        <ele>858.5944824</ele>
        <time>2015-11-01T10:14:26Z</time>
      </trkpt>
      <trkpt lat="43.45575" lon="2.25342">
        <ele>854.7492676</ele>
        <time>2015-11-01T10:14:31Z</time>
      </trkpt>
      <trkpt lat="43.45564" lon="2.25352">
        <ele>854.7492676</ele>
        <time>2015-11-01T10:14:33Z</time>
      </trkpt>
      <trkpt lat="43.45549" lon="2.25382">
        <ele>855.7106934</ele>
        <time>2015-11-01T10:14:37Z</time>
      </trkpt>
      <trkpt lat="43.45554" lon="2.2541">
        <ele>854.7492676</ele>
        <time>2015-11-01T10:14:40Z</time>
      </trkpt>
      <trkpt lat="43.45573" lon="2.25455">
        <ele>854.2687988</ele>
        <time>2015-11-01T10:14:45Z</time>
      </trkpt>
      <trkpt lat="43.45598" lon="2.25485">
        <ele>846.0976563</ele>
        <time>2015-11-01T10:14:49Z</time>
      </trkpt>
      <trkpt lat="43.45617" lon="2.25504">
        <ele>842.2521973</ele>
        <time>2015-11-01T10:14:52Z</time>
      </trkpt>
      <trkpt lat="43.45649" lon="2.25533">
        <ele>847.0588379</ele>
        <time>2015-11-01T10:14:56Z</time>
      </trkpt>
      <trkpt lat="43.45682" lon="2.25568">
        <ele>842.7329102</ele>
        <time>2015-11-01T10:15:00Z</time>
      </trkpt>
      <trkpt lat="43.457" lon="2.25619">
        <ele>837.4455566</ele>
        <time>2015-11-01T10:15:04Z</time>
      </trkpt>
      <trkpt lat="43.45698" lon="2.25648">
        <ele>836.0036621</ele>
        <time>2015-11-01T10:15:06Z</time>
      </trkpt>
      <trkpt lat="43.45692" lon="2.25675">
        <ele>834.0810547</ele>
        <time>2015-11-01T10:15:08Z</time>
      </trkpt>
      <trkpt lat="43.45671" lon="2.25739">
        <ele>833.1196289</ele>
        <time>2015-11-01T10:15:13Z</time>
      </trkpt>
      <trkpt lat="43.45662" lon="2.25761">
        <ele>834.0810547</ele>
        <time>2015-11-01T10:15:15Z</time>
      </trkpt>
      <trkpt lat="43.45637" lon="2.25791">
        <ele>834.0810547</ele>
        <time>2015-11-01T10:15:19Z</time>
      </trkpt>
      <trkpt lat="43.45615" lon="2.25796">
        <ele>834.0810547</ele>
        <time>2015-11-01T10:15:22Z</time>
      </trkpt>
      <trkpt lat="43.45608" lon="2.25796">
        <ele>834.0810547</ele>
        <time>2015-11-01T10:15:23Z</time>
      </trkpt>
      <trkpt lat="43.45584" lon="2.2579">
        <ele>835.0424805</ele>
        <time>2015-11-01T10:15:27Z</time>
      </trkpt>
      <trkpt lat="43.45565" lon="2.25767">
        <ele>836.9648438</ele>
        <time>2015-11-01T10:15:32Z</time>
      </trkpt>
      <trkpt lat="43.45556" lon="2.2575">
        <ele>837.9262695</ele>
        <time>2015-11-01T10:15:35Z</time>
      </trkpt>
      <trkpt lat="43.45541" lon="2.2573">
        <ele>840.3295898</ele>
        <time>2015-11-01T10:15:40Z</time>
      </trkpt>
      <trkpt lat="43.45529" lon="2.25722">
        <ele>841.2907715</ele>
        <time>2015-11-01T10:15:43Z</time>
      </trkpt>
      <trkpt lat="43.45508" lon="2.2572">
        <ele>842.2521973</ele>
        <time>2015-11-01T10:15:48Z</time>
      </trkpt>
      <trkpt lat="43.45499" lon="2.25721">
        <ele>842.7329102</ele>
        <time>2015-11-01T10:15:50Z</time>
      </trkpt>
      <trkpt lat="43.45464" lon="2.25743">
        <ele>844.6555176</ele>
        <time>2015-11-01T10:15:58Z</time>
      </trkpt>
      <trkpt lat="43.45436" lon="2.25765">
        <ele>846.5783691</ele>
        <time>2015-11-01T10:16:04Z</time>
      </trkpt>
      <trkpt lat="43.45413" lon="2.25784">
        <ele>847.0588379</ele>
        <time>2015-11-01T10:16:09Z</time>
      </trkpt>
      <trkpt lat="43.45376" lon="2.25805">
        <ele>848.9814453</ele>
        <time>2015-11-01T10:16:18Z</time>
      </trkpt>
      <trkpt lat="43.45346" lon="2.2582">
        <ele>850.9040527</ele>
        <time>2015-11-01T10:16:26Z</time>
      </trkpt>
      <trkpt lat="43.45324" lon="2.25838">
        <ele>852.3459473</ele>
        <time>2015-11-01T10:16:33Z</time>
      </trkpt>
      <trkpt lat="43.453" lon="2.25859">
        <ele>852.3459473</ele>
        <time>2015-11-01T10:16:40Z</time>
      </trkpt>
      <trkpt lat="43.45277" lon="2.2588">
        <ele>852.8266602</ele>
        <time>2015-11-01T10:16:47Z</time>
      </trkpt>
      <trkpt lat="43.45247" lon="2.25907">
        <ele>853.307373</ele>
        <time>2015-11-01T10:16:56Z</time>
      </trkpt>
      <trkpt lat="43.45226" lon="2.25926">
        <ele>854.7492676</ele>
        <time>2015-11-01T10:17:03Z</time>
      </trkpt>
      <trkpt lat="43.45209" lon="2.25939">
        <ele>855.7106934</ele>
        <time>2015-11-01T10:17:10Z</time>
      </trkpt>
      <trkpt lat="43.45204" lon="2.25944">
        <ele>855.7106934</ele>
        <time>2015-11-01T10:17:14Z</time>
      </trkpt>
      <trkpt lat="43.45206" lon="2.2595">
        <ele>857.1525879</ele>
        <time>2015-11-01T10:17:20Z</time>
      </trkpt>
      <trkpt lat="43.45208" lon="2.25956">
        <ele>856.671875</ele>
        <time>2015-11-01T10:17:24Z</time>
      </trkpt>
      <trkpt lat="43.45209" lon="2.25958">
        <ele>856.1911621</ele>
        <time>2015-11-01T10:17:26Z</time>
      </trkpt>
      <trkpt lat="43.4521" lon="2.25962">
        <ele>855.7106934</ele>
        <time>2015-11-01T10:17:29Z</time>
      </trkpt>
      <trkpt lat="43.45212" lon="2.25969">
        <ele>856.1911621</ele>
        <time>2015-11-01T10:17:34Z</time>
      </trkpt>
      <trkpt lat="43.45213" lon="2.25976">
        <ele>857.1525879</ele>
        <time>2015-11-01T10:17:38Z</time>
      </trkpt>
      <trkpt lat="43.45219" lon="2.25988">
        <ele>857.6333008</ele>
        <time>2015-11-01T10:17:44Z</time>
      </trkpt>
      <trkpt lat="43.4522" lon="2.25991">
        <ele>857.6333008</ele>
        <time>2015-11-01T10:17:45Z</time>
      </trkpt>
      <trkpt lat="43.45229" lon="2.2601">
        <ele>856.1911621</ele>
        <time>2015-11-01T10:17:53Z</time>
      </trkpt>
      <trkpt lat="43.45236" lon="2.26021">
        <ele>855.2299805</ele>
        <time>2015-11-01T10:17:58Z</time>
      </trkpt>
      <trkpt lat="43.45245" lon="2.26038">
        <ele>855.2299805</ele>
        <time>2015-11-01T10:18:04Z</time>
      </trkpt>
      <trkpt lat="43.45252" lon="2.26053">
        <ele>856.671875</ele>
        <time>2015-11-01T10:18:09Z</time>
      </trkpt>
      <trkpt lat="43.45258" lon="2.26066">
        <ele>856.1911621</ele>
        <time>2015-11-01T10:18:14Z</time>
      </trkpt>
      <trkpt lat="43.45266" lon="2.26086">
        <ele>857.1525879</ele>
        <time>2015-11-01T10:18:21Z</time>
      </trkpt>
      <trkpt lat="43.45269" lon="2.26089">
        <ele>858.1140137</ele>
        <time>2015-11-01T10:18:23Z</time>
      </trkpt>
      <trkpt lat="43.45271" lon="2.26102">
        <ele>864.8432617</ele>
        <time>2015-11-01T10:18:29Z</time>
      </trkpt>
      <trkpt lat="43.45275" lon="2.26116">
        <ele>868.2077637</ele>
        <time>2015-11-01T10:18:35Z</time>
      </trkpt>
      <trkpt lat="43.45277" lon="2.26119">
        <ele>869.1691895</ele>
        <time>2015-11-01T10:18:36Z</time>
      </trkpt>
      <trkpt lat="43.4528" lon="2.26124">
        <ele>870.1303711</ele>
        <time>2015-11-01T10:18:38Z</time>
      </trkpt>
      <trkpt lat="43.4529" lon="2.26147">
        <ele>871.0917969</ele>
        <time>2015-11-01T10:18:46Z</time>
      </trkpt>
      <trkpt lat="43.45308" lon="2.26165">
        <ele>873.0144043</ele>
        <time>2015-11-01T10:18:52Z</time>
      </trkpt>
      <trkpt lat="43.45319" lon="2.26181">
        <ele>872.5336914</ele>
        <time>2015-11-01T10:18:58Z</time>
      </trkpt>
      <trkpt lat="43.45324" lon="2.262">
        <ele>871.5722656</ele>
        <time>2015-11-01T10:19:04Z</time>
      </trkpt>
      <trkpt lat="43.45331" lon="2.26222">
        <ele>868.2077637</ele>
        <time>2015-11-01T10:19:12Z</time>
      </trkpt>
      <trkpt lat="43.45332" lon="2.26241">
        <ele>870.1303711</ele>
        <time>2015-11-01T10:19:18Z</time>
      </trkpt>
      <trkpt lat="43.45332" lon="2.26257">
        <ele>871.0917969</ele>
        <time>2015-11-01T10:19:23Z</time>
      </trkpt>
      <trkpt lat="43.45334" lon="2.2627">
        <ele>871.0917969</ele>
        <time>2015-11-01T10:19:27Z</time>
      </trkpt>
      <trkpt lat="43.45332" lon="2.26299">
        <ele>875.8981934</ele>
        <time>2015-11-01T10:19:34Z</time>
      </trkpt>
      <trkpt lat="43.45333" lon="2.26327">
        <ele>876.3791504</ele>
        <time>2015-11-01T10:19:41Z</time>
      </trkpt>
      <trkpt lat="43.45339" lon="2.26344">
        <ele>877.8210449</ele>
        <time>2015-11-01T10:19:47Z</time>
      </trkpt>
      <trkpt lat="43.45349" lon="2.2636">
        <ele>876.3791504</ele>
        <time>2015-11-01T10:19:53Z</time>
      </trkpt>
      <trkpt lat="43.45362" lon="2.26379">
        <ele>873.0144043</ele>
        <time>2015-11-01T10:20:00Z</time>
      </trkpt>
      <trkpt lat="43.4537" lon="2.26399">
        <ele>873.4951172</ele>
        <time>2015-11-01T10:20:06Z</time>
      </trkpt>
      <trkpt lat="43.45376" lon="2.26414">
        <ele>875.4174805</ele>
        <time>2015-11-01T10:20:11Z</time>
      </trkpt>
      <trkpt lat="43.45379" lon="2.26432">
        <ele>882.6276855</ele>
        <time>2015-11-01T10:20:17Z</time>
      </trkpt>
      <trkpt lat="43.45378" lon="2.26444">
        <ele>886.4729004</ele>
        <time>2015-11-01T10:20:23Z</time>
      </trkpt>
      <trkpt lat="43.45372" lon="2.26462">
        <ele>892.2409668</ele>
        <time>2015-11-01T10:20:30Z</time>
      </trkpt>
      <trkpt lat="43.45371" lon="2.26474">
        <ele>894.644043</ele>
        <time>2015-11-01T10:20:35Z</time>
      </trkpt>
      <trkpt lat="43.45367" lon="2.26474">
        <ele>897.0473633</ele>
        <time>2015-11-01T10:20:42Z</time>
      </trkpt>
      <trkpt lat="43.45367" lon="2.26475">
        <ele>896.5668945</ele>
        <time>2015-11-01T10:20:49Z</time>
      </trkpt>
      <trkpt lat="43.45371" lon="2.26476">
        <ele>895.1247559</ele>
        <time>2015-11-01T10:20:59Z</time>
      </trkpt>
      <trkpt lat="43.45368" lon="2.2648">
        <ele>896.0861816</ele>
        <time>2015-11-01T10:21:11Z</time>
      </trkpt>
      <trkpt lat="43.45365" lon="2.26477">
        <ele>894.1635742</ele>
        <time>2015-11-01T10:21:15Z</time>
      </trkpt>
      <trkpt lat="43.45362" lon="2.26478">
        <ele>892.7216797</ele>
        <time>2015-11-01T10:21:22Z</time>
      </trkpt>
      <trkpt lat="43.45362" lon="2.26485">
        <ele>888.3955078</ele>
        <time>2015-11-01T10:21:33Z</time>
      </trkpt>
      <trkpt lat="43.45365" lon="2.26487">
        <ele>882.6276855</ele>
        <time>2015-11-01T10:21:42Z</time>
      </trkpt>
      <trkpt lat="43.45368" lon="2.26488">
        <ele>884.550293</ele>
        <time>2015-11-01T10:21:52Z</time>
      </trkpt>
      <trkpt lat="43.45367" lon="2.26487">
        <ele>887.434082</ele>
        <time>2015-11-01T10:22:07Z</time>
      </trkpt>
      <trkpt lat="43.4537" lon="2.26484">
        <ele>887.9147949</ele>
        <time>2015-11-01T10:22:16Z</time>
      </trkpt>
      <trkpt lat="43.45371" lon="2.2648">
        <ele>891.7600098</ele>
        <time>2015-11-01T10:22:26Z</time>
      </trkpt>
      <trkpt lat="43.45367" lon="2.26479">
        <ele>900.4121094</ele>
        <time>2015-11-01T10:22:39Z</time>
      </trkpt>
      <trkpt lat="43.45367" lon="2.26478">
        <ele>902.8151855</ele>
        <time>2015-11-01T10:22:46Z</time>
      </trkpt>
      <trkpt lat="43.45366" lon="2.26479">
        <ele>906.6604004</ele>
        <time>2015-11-01T10:22:56Z</time>
      </trkpt>
      <trkpt lat="43.45366" lon="2.26482">
        <ele>905.6992188</ele>
        <time>2015-11-01T10:23:04Z</time>
      </trkpt>
      <trkpt lat="43.45365" lon="2.26482">
        <ele>905.6992188</ele>
        <time>2015-11-01T10:23:12Z</time>
      </trkpt>
      <trkpt lat="43.45359" lon="2.26477">
        <ele>907.1411133</ele>
        <time>2015-11-01T10:23:22Z</time>
      </trkpt>
      <trkpt lat="43.45359" lon="2.26476">
        <ele>908.1027832</ele>
        <time>2015-11-01T10:23:32Z</time>
      </trkpt>
      <trkpt lat="43.45357" lon="2.26477">
        <ele>908.1027832</ele>
        <time>2015-11-01T10:23:38Z</time>
      </trkpt>
      <trkpt lat="43.45356" lon="2.26479">
        <ele>908.1027832</ele>
        <time>2015-11-01T10:23:45Z</time>
      </trkpt>
      <trkpt lat="43.45352" lon="2.26485">
        <ele>904.2573242</ele>
        <time>2015-11-01T10:23:53Z</time>
      </trkpt>
      <trkpt lat="43.45345" lon="2.26493">
        <ele>898.0087891</ele>
        <time>2015-11-01T10:24:00Z</time>
      </trkpt>
      <trkpt lat="43.45338" lon="2.265">
        <ele>894.644043</ele>
        <time>2015-11-01T10:24:06Z</time>
      </trkpt>
      <trkpt lat="43.45326" lon="2.26513">
        <ele>890.798584</ele>
        <time>2015-11-01T10:24:14Z</time>
      </trkpt>
      <trkpt lat="43.45317" lon="2.26528">
        <ele>891.7600098</ele>
        <time>2015-11-01T10:24:20Z</time>
      </trkpt>
      <trkpt lat="43.45309" lon="2.2654">
        <ele>895.1247559</ele>
        <time>2015-11-01T10:24:26Z</time>
      </trkpt>
      <trkpt lat="43.45303" lon="2.26552">
        <ele>898.0087891</ele>
        <time>2015-11-01T10:24:32Z</time>
      </trkpt>
      <trkpt lat="43.45299" lon="2.26566">
        <ele>895.1247559</ele>
        <time>2015-11-01T10:24:38Z</time>
      </trkpt>
      <trkpt lat="43.45293" lon="2.26583">
        <ele>893.6828613</ele>
        <time>2015-11-01T10:24:44Z</time>
      </trkpt>
      <trkpt lat="43.45288" lon="2.26603">
        <ele>891.7600098</ele>
        <time>2015-11-01T10:24:50Z</time>
      </trkpt>
      <trkpt lat="43.45284" lon="2.26628">
        <ele>890.798584</ele>
        <time>2015-11-01T10:24:58Z</time>
      </trkpt>
      <trkpt lat="43.45279" lon="2.26645">
        <ele>893.6828613</ele>
        <time>2015-11-01T10:25:05Z</time>
      </trkpt>
      <trkpt lat="43.45273" lon="2.26663">
        <ele>897.5280762</ele>
        <time>2015-11-01T10:25:13Z</time>
      </trkpt>
      <trkpt lat="43.4527" lon="2.26679">
        <ele>899.4506836</ele>
        <time>2015-11-01T10:25:20Z</time>
      </trkpt>
      <trkpt lat="43.45261" lon="2.26696">
        <ele>906.1796875</ele>
        <time>2015-11-01T10:25:27Z</time>
      </trkpt>
      <trkpt lat="43.45252" lon="2.26712">
        <ele>910.5058594</ele>
        <time>2015-11-01T10:25:33Z</time>
      </trkpt>
      <trkpt lat="43.45243" lon="2.26728">
        <ele>913.8703613</ele>
        <time>2015-11-01T10:25:39Z</time>
      </trkpt>
      <trkpt lat="43.45236" lon="2.26756">
        <ele>907.1411133</ele>
        <time>2015-11-01T10:25:47Z</time>
      </trkpt>
      <trkpt lat="43.45232" lon="2.26782">
        <ele>902.8151855</ele>
        <time>2015-11-01T10:25:54Z</time>
      </trkpt>
      <trkpt lat="43.45225" lon="2.26814">
        <ele>900.4121094</ele>
        <time>2015-11-01T10:26:03Z</time>
      </trkpt>
      <trkpt lat="43.45218" lon="2.26839">
        <ele>899.4506836</ele>
        <time>2015-11-01T10:26:11Z</time>
      </trkpt>
      <trkpt lat="43.45212" lon="2.26861">
        <ele>898.0087891</ele>
        <time>2015-11-01T10:26:18Z</time>
      </trkpt>
      <trkpt lat="43.45211" lon="2.26868">
        <ele>897.5280762</ele>
        <time>2015-11-01T10:26:23Z</time>
      </trkpt>
      <trkpt lat="43.45209" lon="2.26875">
        <ele>897.5280762</ele>
        <time>2015-11-01T10:26:32Z</time>
      </trkpt>
      <trkpt lat="43.45205" lon="2.26885">
        <ele>897.5280762</ele>
        <time>2015-11-01T10:26:38Z</time>
      </trkpt>
      <trkpt lat="43.45203" lon="2.26901">
        <ele>898.4892578</ele>
        <time>2015-11-01T10:26:43Z</time>
      </trkpt>
      <trkpt lat="43.45199" lon="2.26914">
        <ele>898.9699707</ele>
        <time>2015-11-01T10:26:48Z</time>
      </trkpt>
      <trkpt lat="43.45198" lon="2.26938">
        <ele>897.5280762</ele>
        <time>2015-11-01T10:26:53Z</time>
      </trkpt>
      <trkpt lat="43.45191" lon="2.26971">
        <ele>896.0861816</ele>
        <time>2015-11-01T10:26:58Z</time>
      </trkpt>
      <trkpt lat="43.4518" lon="2.2701">
        <ele>893.6828613</ele>
        <time>2015-11-01T10:27:03Z</time>
      </trkpt>
      <trkpt lat="43.45183" lon="2.27043">
        <ele>892.7216797</ele>
        <time>2015-11-01T10:27:07Z</time>
      </trkpt>
      <trkpt lat="43.45193" lon="2.27055">
        <ele>891.2792969</ele>
        <time>2015-11-01T10:27:09Z</time>
      </trkpt>
      <trkpt lat="43.45218" lon="2.27067">
        <ele>890.798584</ele>
        <time>2015-11-01T10:27:12Z</time>
      </trkpt>
      <trkpt lat="43.4523" lon="2.27076">
        <ele>890.798584</ele>
        <time>2015-11-01T10:27:14Z</time>
      </trkpt>
      <trkpt lat="43.45236" lon="2.27107">
        <ele>891.7600098</ele>
        <time>2015-11-01T10:27:18Z</time>
      </trkpt>
      <trkpt lat="43.45236" lon="2.27117">
        <ele>892.2409668</ele>
        <time>2015-11-01T10:27:19Z</time>
      </trkpt>
      <trkpt lat="43.45232" lon="2.27177">
        <ele>892.2409668</ele>
        <time>2015-11-01T10:27:24Z</time>
      </trkpt>
      <trkpt lat="43.45237" lon="2.27251">
        <ele>889.8374023</ele>
        <time>2015-11-01T10:27:30Z</time>
      </trkpt>
      <trkpt lat="43.45259" lon="2.27286">
        <ele>878.7824707</ele>
        <time>2015-11-01T10:27:35Z</time>
      </trkpt>
      <trkpt lat="43.45287" lon="2.27322">
        <ele>875.4174805</ele>
        <time>2015-11-01T10:27:41Z</time>
      </trkpt>
      <trkpt lat="43.45297" lon="2.27348">
        <ele>875.4174805</ele>
        <time>2015-11-01T10:27:45Z</time>
      </trkpt>
      <trkpt lat="43.45302" lon="2.27371">
        <ele>875.8981934</ele>
        <time>2015-11-01T10:27:49Z</time>
      </trkpt>
      <trkpt lat="43.45305" lon="2.2739">
        <ele>876.8598633</ele>
        <time>2015-11-01T10:27:53Z</time>
      </trkpt>
      <trkpt lat="43.45307" lon="2.27402">
        <ele>876.3791504</ele>
        <time>2015-11-01T10:27:55Z</time>
      </trkpt>
      <trkpt lat="43.45308" lon="2.27432">
        <ele>873.9755859</ele>
        <time>2015-11-01T10:28:00Z</time>
      </trkpt>
      <trkpt lat="43.45303" lon="2.27493">
        <ele>869.6499023</ele>
        <time>2015-11-01T10:28:09Z</time>
      </trkpt>
      <trkpt lat="43.45296" lon="2.27534">
        <ele>868.2077637</ele>
        <time>2015-11-01T10:28:15Z</time>
      </trkpt>
      <trkpt lat="43.45283" lon="2.2758">
        <ele>866.7658691</ele>
        <time>2015-11-01T10:28:22Z</time>
      </trkpt>
      <trkpt lat="43.45282" lon="2.27586">
        <ele>866.2851563</ele>
        <time>2015-11-01T10:28:23Z</time>
      </trkpt>
      <trkpt lat="43.45277" lon="2.27599">
        <ele>867.246582</ele>
        <time>2015-11-01T10:28:25Z</time>
      </trkpt>
      <trkpt lat="43.45266" lon="2.27628">
        <ele>869.1691895</ele>
        <time>2015-11-01T10:28:31Z</time>
      </trkpt>
      <trkpt lat="43.45261" lon="2.27643">
        <ele>870.1303711</ele>
        <time>2015-11-01T10:28:34Z</time>
      </trkpt>
      <trkpt lat="43.45257" lon="2.27654">
        <ele>871.0917969</ele>
        <time>2015-11-01T10:28:36Z</time>
      </trkpt>
      <trkpt lat="43.45254" lon="2.27673">
        <ele>873.0144043</ele>
        <time>2015-11-01T10:28:39Z</time>
      </trkpt>
      <trkpt lat="43.45255" lon="2.27723">
        <ele>873.9755859</ele>
        <time>2015-11-01T10:28:45Z</time>
      </trkpt>
      <trkpt lat="43.45256" lon="2.27777">
        <ele>872.5336914</ele>
        <time>2015-11-01T10:28:52Z</time>
      </trkpt>
      <trkpt lat="43.45255" lon="2.27825">
        <ele>876.8598633</ele>
        <time>2015-11-01T10:29:00Z</time>
      </trkpt>
      <trkpt lat="43.45259" lon="2.27856">
        <ele>879.2629395</ele>
        <time>2015-11-01T10:29:07Z</time>
      </trkpt>
      <trkpt lat="43.4526" lon="2.27877">
        <ele>881.6662598</ele>
        <time>2015-11-01T10:29:13Z</time>
      </trkpt>
      <trkpt lat="43.45263" lon="2.27894">
        <ele>882.6276855</ele>
        <time>2015-11-01T10:29:19Z</time>
      </trkpt>
      <trkpt lat="43.45265" lon="2.27913">
        <ele>886.9533691</ele>
        <time>2015-11-01T10:29:25Z</time>
      </trkpt>
      <trkpt lat="43.45271" lon="2.2793">
        <ele>891.7600098</ele>
        <time>2015-11-01T10:29:31Z</time>
      </trkpt>
      <trkpt lat="43.45276" lon="2.27945">
        <ele>893.6828613</ele>
        <time>2015-11-01T10:29:37Z</time>
      </trkpt>
      <trkpt lat="43.45284" lon="2.27964">
        <ele>894.1635742</ele>
        <time>2015-11-01T10:29:46Z</time>
      </trkpt>
      <trkpt lat="43.45288" lon="2.27977">
        <ele>894.1635742</ele>
        <time>2015-11-01T10:29:53Z</time>
      </trkpt>
      <trkpt lat="43.45295" lon="2.27993">
        <ele>895.6054688</ele>
        <time>2015-11-01T10:30:00Z</time>
      </trkpt>
      <trkpt lat="43.45299" lon="2.28013">
        <ele>896.0861816</ele>
        <time>2015-11-01T10:30:08Z</time>
      </trkpt>
      <trkpt lat="43.45297" lon="2.28026">
        <ele>896.0861816</ele>
        <time>2015-11-01T10:30:13Z</time>
      </trkpt>
      <trkpt lat="43.45284" lon="2.28032">
        <ele>891.7600098</ele>
        <time>2015-11-01T10:30:20Z</time>
      </trkpt>
      <trkpt lat="43.45275" lon="2.28027">
        <ele>890.798584</ele>
        <time>2015-11-01T10:30:26Z</time>
      </trkpt>
      <trkpt lat="43.45268" lon="2.28023">
        <ele>890.3181152</ele>
        <time>2015-11-01T10:30:31Z</time>
      </trkpt>
      <trkpt lat="43.45261" lon="2.28014">
        <ele>887.9147949</ele>
        <time>2015-11-01T10:30:39Z</time>
      </trkpt>
      <trkpt lat="43.45255" lon="2.28009">
        <ele>885.9921875</ele>
        <time>2015-11-01T10:30:45Z</time>
      </trkpt>
      <trkpt lat="43.45247" lon="2.28003">
        <ele>885.0310059</ele>
        <time>2015-11-01T10:30:51Z</time>
      </trkpt>
      <trkpt lat="43.45237" lon="2.27994">
        <ele>886.4729004</ele>
        <time>2015-11-01T10:30:58Z</time>
      </trkpt>
      <trkpt lat="43.45225" lon="2.27987">
        <ele>887.9147949</ele>
        <time>2015-11-01T10:31:06Z</time>
      </trkpt>
      <trkpt lat="43.45212" lon="2.27985">
        <ele>889.8374023</ele>
        <time>2015-11-01T10:31:14Z</time>
      </trkpt>
      <trkpt lat="43.45198" lon="2.27988">
        <ele>891.7600098</ele>
        <time>2015-11-01T10:31:22Z</time>
      </trkpt>
      <trkpt lat="43.45185" lon="2.27994">
        <ele>892.7216797</ele>
        <time>2015-11-01T10:31:29Z</time>
      </trkpt>
      <trkpt lat="43.4517" lon="2.28004">
        <ele>895.6054688</ele>
        <time>2015-11-01T10:31:38Z</time>
      </trkpt>
      <trkpt lat="43.45154" lon="2.28019">
        <ele>897.0473633</ele>
        <time>2015-11-01T10:31:48Z</time>
      </trkpt>
      <trkpt lat="43.45145" lon="2.28033">
        <ele>898.9699707</ele>
        <time>2015-11-01T10:31:55Z</time>
      </trkpt>
      <trkpt lat="43.45136" lon="2.28047">
        <ele>900.8925781</ele>
        <time>2015-11-01T10:32:02Z</time>
      </trkpt>
      <trkpt lat="43.45128" lon="2.28065">
        <ele>900.8925781</ele>
        <time>2015-11-01T10:32:10Z</time>
      </trkpt>
      <trkpt lat="43.4512" lon="2.2808">
        <ele>903.2958984</ele>
        <time>2015-11-01T10:32:17Z</time>
      </trkpt>
      <trkpt lat="43.45114" lon="2.28093">
        <ele>905.2185059</ele>
        <time>2015-11-01T10:32:24Z</time>
      </trkpt>
      <trkpt lat="43.45108" lon="2.28108">
        <ele>906.1796875</ele>
        <time>2015-11-01T10:32:31Z</time>
      </trkpt>
      <trkpt lat="43.45103" lon="2.28121">
        <ele>907.6218262</ele>
        <time>2015-11-01T10:32:38Z</time>
      </trkpt>
      <trkpt lat="43.45102" lon="2.28126">
        <ele>907.1411133</ele>
        <time>2015-11-01T10:32:41Z</time>
      </trkpt>
      <trkpt lat="43.45098" lon="2.28139">
        <ele>908.1027832</ele>
        <time>2015-11-01T10:32:47Z</time>
      </trkpt>
      <trkpt lat="43.45094" lon="2.28151">
        <ele>908.583252</ele>
        <time>2015-11-01T10:32:53Z</time>
      </trkpt>
      <trkpt lat="43.45085" lon="2.2817">
        <ele>910.9865723</ele>
        <time>2015-11-01T10:33:03Z</time>
      </trkpt>
      <trkpt lat="43.45074" lon="2.28189">
        <ele>911.4672852</ele>
        <time>2015-11-01T10:33:12Z</time>
      </trkpt>
      <trkpt lat="43.45066" lon="2.28205">
        <ele>910.9865723</ele>
        <time>2015-11-01T10:33:19Z</time>
      </trkpt>
      <trkpt lat="43.45049" lon="2.28229">
        <ele>912.4284668</ele>
        <time>2015-11-01T10:33:26Z</time>
      </trkpt>
      <trkpt lat="43.45031" lon="2.28249">
        <ele>908.583252</ele>
        <time>2015-11-01T10:33:33Z</time>
      </trkpt>
      <trkpt lat="43.4502" lon="2.28262">
        <ele>906.1796875</ele>
        <time>2015-11-01T10:33:38Z</time>
      </trkpt>
      <trkpt lat="43.45011" lon="2.28273">
        <ele>904.737793</ele>
        <time>2015-11-01T10:33:42Z</time>
      </trkpt>
      <trkpt lat="43.44993" lon="2.28301">
        <ele>902.8151855</ele>
        <time>2015-11-01T10:33:50Z</time>
      </trkpt>
      <trkpt lat="43.4498" lon="2.28329">
        <ele>901.8540039</ele>
        <time>2015-11-01T10:33:58Z</time>
      </trkpt>
      <trkpt lat="43.44973" lon="2.28347">
        <ele>906.1796875</ele>
        <time>2015-11-01T10:34:04Z</time>
      </trkpt>
      <trkpt lat="43.44974" lon="2.28366">
        <ele>909.5446777</ele>
        <time>2015-11-01T10:34:10Z</time>
      </trkpt>
      <trkpt lat="43.44977" lon="2.28384">
        <ele>910.5058594</ele>
        <time>2015-11-01T10:34:16Z</time>
      </trkpt>
      <trkpt lat="43.4498" lon="2.284">
        <ele>908.583252</ele>
        <time>2015-11-01T10:34:21Z</time>
      </trkpt>
      <trkpt lat="43.44979" lon="2.28427">
        <ele>906.6604004</ele>
        <time>2015-11-01T10:34:30Z</time>
      </trkpt>
      <trkpt lat="43.44975" lon="2.28447">
        <ele>907.6218262</ele>
        <time>2015-11-01T10:34:37Z</time>
      </trkpt>
      <trkpt lat="43.44971" lon="2.28471">
        <ele>907.1411133</ele>
        <time>2015-11-01T10:34:45Z</time>
      </trkpt>
      <trkpt lat="43.4497" lon="2.28492">
        <ele>909.5446777</ele>
        <time>2015-11-01T10:34:53Z</time>
      </trkpt>
      <trkpt lat="43.44971" lon="2.28514">
        <ele>909.5446777</ele>
        <time>2015-11-01T10:35:01Z</time>
      </trkpt>
      <trkpt lat="43.44973" lon="2.28535">
        <ele>908.583252</ele>
        <time>2015-11-01T10:35:10Z</time>
      </trkpt>
      <trkpt lat="43.44978" lon="2.2855">
        <ele>909.5446777</ele>
        <time>2015-11-01T10:35:16Z</time>
      </trkpt>
      <trkpt lat="43.44984" lon="2.28571">
        <ele>910.9865723</ele>
        <time>2015-11-01T10:35:24Z</time>
      </trkpt>
      <trkpt lat="43.44992" lon="2.28588">
        <ele>912.9091797</ele>
        <time>2015-11-01T10:35:31Z</time>
      </trkpt>
      <trkpt lat="43.45004" lon="2.28611">
        <ele>914.3510742</ele>
        <time>2015-11-01T10:35:38Z</time>
      </trkpt>
      <trkpt lat="43.45017" lon="2.2864">
        <ele>911.947998</ele>
        <time>2015-11-01T10:35:46Z</time>
      </trkpt>
      <trkpt lat="43.45038" lon="2.28668">
        <ele>913.8703613</ele>
        <time>2015-11-01T10:35:55Z</time>
      </trkpt>
      <trkpt lat="43.4505" lon="2.28689">
        <ele>912.4284668</ele>
        <time>2015-11-01T10:36:02Z</time>
      </trkpt>
      <trkpt lat="43.45067" lon="2.28722">
        <ele>911.4672852</ele>
        <time>2015-11-01T10:36:12Z</time>
      </trkpt>
      <trkpt lat="43.45074" lon="2.28747">
        <ele>911.947998</ele>
        <time>2015-11-01T10:36:18Z</time>
      </trkpt>
      <trkpt lat="43.45074" lon="2.28776">
        <ele>913.3898926</ele>
        <time>2015-11-01T10:36:25Z</time>
      </trkpt>
      <trkpt lat="43.45072" lon="2.28798">
        <ele>914.3510742</ele>
        <time>2015-11-01T10:36:32Z</time>
      </trkpt>
      <trkpt lat="43.45076" lon="2.28828">
        <ele>916.2736816</ele>
        <time>2015-11-01T10:36:42Z</time>
      </trkpt>
      <trkpt lat="43.45083" lon="2.28844">
        <ele>917.7155762</ele>
        <time>2015-11-01T10:36:49Z</time>
      </trkpt>
      <trkpt lat="43.45091" lon="2.28858">
        <ele>918.677002</ele>
        <time>2015-11-01T10:36:56Z</time>
      </trkpt>
      <trkpt lat="43.451" lon="2.28878">
        <ele>920.1188965</ele>
        <time>2015-11-01T10:37:06Z</time>
      </trkpt>
      <trkpt lat="43.45111" lon="2.28895">
        <ele>921.0803223</ele>
        <time>2015-11-01T10:37:15Z</time>
      </trkpt>
      <trkpt lat="43.45118" lon="2.28906">
        <ele>921.0803223</ele>
        <time>2015-11-01T10:37:21Z</time>
      </trkpt>
      <trkpt lat="43.45126" lon="2.28919">
        <ele>921.0803223</ele>
        <time>2015-11-01T10:37:29Z</time>
      </trkpt>
      <trkpt lat="43.45133" lon="2.28927">
        <ele>922.0415039</ele>
        <time>2015-11-01T10:37:35Z</time>
      </trkpt>
      <trkpt lat="43.45141" lon="2.28937">
        <ele>922.5222168</ele>
        <time>2015-11-01T10:37:43Z</time>
      </trkpt>
      <trkpt lat="43.45143" lon="2.2894">
        <ele>922.5222168</ele>
        <time>2015-11-01T10:37:45Z</time>
      </trkpt>
      <trkpt lat="43.45148" lon="2.28947">
        <ele>922.5222168</ele>
        <time>2015-11-01T10:37:52Z</time>
      </trkpt>
      <trkpt lat="43.45149" lon="2.28947">
        <ele>923.9641113</ele>
        <time>2015-11-01T10:38:09Z</time>
      </trkpt>
      <trkpt lat="43.45149" lon="2.28948">
        <ele>927.8095703</ele>
        <time>2015-11-01T10:38:46Z</time>
      </trkpt>
      <trkpt lat="43.45149" lon="2.28947">
        <ele>926.8483887</ele>
        <time>2015-11-01T10:39:07Z</time>
      </trkpt>
      <trkpt lat="43.45149" lon="2.28947">
        <ele>926.8483887</ele>
        <time>2015-11-01T10:39:16Z</time>
      </trkpt>
      <trkpt lat="43.45148" lon="2.28946">
        <ele>926.3676758</ele>
        <time>2015-11-01T10:39:29Z</time>
      </trkpt>
      <trkpt lat="43.45148" lon="2.28946">
        <ele>926.8483887</ele>
        <time>2015-11-01T10:39:45Z</time>
      </trkpt>
      <trkpt lat="43.4515" lon="2.28948">
        <ele>926.3676758</ele>
        <time>2015-11-01T10:40:23Z</time>
      </trkpt>
      <trkpt lat="43.45156" lon="2.28956">
        <ele>925.40625</ele>
        <time>2015-11-01T10:40:27Z</time>
      </trkpt>
      <trkpt lat="43.45165" lon="2.28981">
        <ele>924.4450684</ele>
        <time>2015-11-01T10:40:33Z</time>
      </trkpt>
      <trkpt lat="43.45177" lon="2.28999">
        <ele>922.0415039</ele>
        <time>2015-11-01T10:40:37Z</time>
      </trkpt>
      <trkpt lat="43.45182" lon="2.29001">
        <ele>922.0415039</ele>
        <time>2015-11-01T10:40:38Z</time>
      </trkpt>
      <trkpt lat="43.45216" lon="2.29006">
        <ele>918.677002</ele>
        <time>2015-11-01T10:40:43Z</time>
      </trkpt>
      <trkpt lat="43.45231" lon="2.29013">
        <ele>917.2351074</ele>
        <time>2015-11-01T10:40:45Z</time>
      </trkpt>
      <trkpt lat="43.45268" lon="2.29054">
        <ele>915.3125</ele>
        <time>2015-11-01T10:40:51Z</time>
      </trkpt>
      <trkpt lat="43.45273" lon="2.29063">
        <ele>914.8317871</ele>
        <time>2015-11-01T10:40:52Z</time>
      </trkpt>
      <trkpt lat="43.45281" lon="2.29082">
        <ele>914.3510742</ele>
        <time>2015-11-01T10:40:54Z</time>
      </trkpt>
      <trkpt lat="43.4531" lon="2.29118">
        <ele>911.4672852</ele>
        <time>2015-11-01T10:40:59Z</time>
      </trkpt>
      <trkpt lat="43.45358" lon="2.29146">
        <ele>910.9865723</ele>
        <time>2015-11-01T10:41:06Z</time>
      </trkpt>
      <trkpt lat="43.45391" lon="2.29162">
        <ele>911.4672852</ele>
        <time>2015-11-01T10:41:12Z</time>
      </trkpt>
      <trkpt lat="43.45402" lon="2.2917">
        <ele>911.947998</ele>
        <time>2015-11-01T10:41:15Z</time>
      </trkpt>
      <trkpt lat="43.45419" lon="2.29199">
        <ele>912.4284668</ele>
        <time>2015-11-01T10:41:23Z</time>
      </trkpt>
      <trkpt lat="43.45435" lon="2.29239">
        <ele>913.3898926</ele>
        <time>2015-11-01T10:41:33Z</time>
      </trkpt>
      <trkpt lat="43.45453" lon="2.29277">
        <ele>912.4284668</ele>
        <time>2015-11-01T10:41:41Z</time>
      </trkpt>
      <trkpt lat="43.45463" lon="2.29297">
        <ele>911.947998</ele>
        <time>2015-11-01T10:41:45Z</time>
      </trkpt>
      <trkpt lat="43.4547" lon="2.29332">
        <ele>910.5058594</ele>
        <time>2015-11-01T10:41:50Z</time>
      </trkpt>
      <trkpt lat="43.4547" lon="2.2934">
        <ele>910.0251465</ele>
        <time>2015-11-01T10:41:51Z</time>
      </trkpt>
      <trkpt lat="43.45469" lon="2.29358">
        <ele>909.0639648</ele>
        <time>2015-11-01T10:41:53Z</time>
      </trkpt>
      <trkpt lat="43.45459" lon="2.29403">
        <ele>907.6218262</ele>
        <time>2015-11-01T10:41:58Z</time>
      </trkpt>
      <trkpt lat="43.45461" lon="2.29448">
        <ele>906.6604004</ele>
        <time>2015-11-01T10:42:03Z</time>
      </trkpt>
      <trkpt lat="43.4547" lon="2.29469">
        <ele>906.1796875</ele>
        <time>2015-11-01T10:42:06Z</time>
      </trkpt>
      <trkpt lat="43.45504" lon="2.29523">
        <ele>902.8151855</ele>
        <time>2015-11-01T10:42:14Z</time>
      </trkpt>
      <trkpt lat="43.45508" lon="2.2953">
        <ele>902.3344727</ele>
        <time>2015-11-01T10:42:15Z</time>
      </trkpt>
      <trkpt lat="43.45525" lon="2.29575">
        <ele>901.8540039</ele>
        <time>2015-11-01T10:42:20Z</time>
      </trkpt>
      <trkpt lat="43.45532" lon="2.29606">
        <ele>901.8540039</ele>
        <time>2015-11-01T10:42:24Z</time>
      </trkpt>
      <trkpt lat="43.45547" lon="2.29651">
        <ele>900.8925781</ele>
        <time>2015-11-01T10:42:31Z</time>
      </trkpt>
      <trkpt lat="43.45568" lon="2.29704">
        <ele>898.4892578</ele>
        <time>2015-11-01T10:42:38Z</time>
      </trkpt>
      <trkpt lat="43.45595" lon="2.29754">
        <ele>898.0087891</ele>
        <time>2015-11-01T10:42:44Z</time>
      </trkpt>
      <trkpt lat="43.45609" lon="2.29783">
        <ele>897.5280762</ele>
        <time>2015-11-01T10:42:47Z</time>
      </trkpt>
      <trkpt lat="43.4563" lon="2.29849">
        <ele>895.1247559</ele>
        <time>2015-11-01T10:42:54Z</time>
      </trkpt>
      <trkpt lat="43.45641" lon="2.29876">
        <ele>894.644043</ele>
        <time>2015-11-01T10:42:58Z</time>
      </trkpt>
      <trkpt lat="43.45652" lon="2.29898">
        <ele>893.6828613</ele>
        <time>2015-11-01T10:43:02Z</time>
      </trkpt>
      <trkpt lat="43.4566" lon="2.29911">
        <ele>892.7216797</ele>
        <time>2015-11-01T10:43:04Z</time>
      </trkpt>
      <trkpt lat="43.45676" lon="2.29947">
        <ele>891.7600098</ele>
        <time>2015-11-01T10:43:08Z</time>
      </trkpt>
      <trkpt lat="43.45686" lon="2.29989">
        <ele>890.798584</ele>
        <time>2015-11-01T10:43:12Z</time>
      </trkpt>
      <trkpt lat="43.45697" lon="2.30048">
        <ele>888.3955078</ele>
        <time>2015-11-01T10:43:18Z</time>
      </trkpt>
      <trkpt lat="43.45699" lon="2.3006">
        <ele>886.4729004</ele>
        <time>2015-11-01T10:43:20Z</time>
      </trkpt>
      <trkpt lat="43.45706" lon="2.30061">
        <ele>887.9147949</ele>
        <time>2015-11-01T10:43:24Z</time>
      </trkpt>
      <trkpt lat="43.45707" lon="2.30062">
        <ele>891.2792969</ele>
        <time>2015-11-01T10:43:29Z</time>
      </trkpt>
      <trkpt lat="43.45708" lon="2.30062">
        <ele>893.6828613</ele>
        <time>2015-11-01T10:43:40Z</time>
      </trkpt>
      <trkpt lat="43.45711" lon="2.30062">
        <ele>894.644043</ele>
        <time>2015-11-01T10:43:43Z</time>
      </trkpt>
      <trkpt lat="43.45727" lon="2.30059">
        <ele>895.6054688</ele>
        <time>2015-11-01T10:43:49Z</time>
      </trkpt>
      <trkpt lat="43.45749" lon="2.30055">
        <ele>894.1635742</ele>
        <time>2015-11-01T10:43:55Z</time>
      </trkpt>
      <trkpt lat="43.45772" lon="2.30065">
        <ele>892.2409668</ele>
        <time>2015-11-01T10:44:01Z</time>
      </trkpt>
      <trkpt lat="43.45796" lon="2.30088">
        <ele>888.8762207</ele>
        <time>2015-11-01T10:44:07Z</time>
      </trkpt>
      <trkpt lat="43.458" lon="2.30092">
        <ele>887.9147949</ele>
        <time>2015-11-01T10:44:08Z</time>
      </trkpt>
      <trkpt lat="43.45827" lon="2.30106">
        <ele>883.5888672</ele>
        <time>2015-11-01T10:44:14Z</time>
      </trkpt>
      <trkpt lat="43.45831" lon="2.30108">
        <ele>882.6276855</ele>
        <time>2015-11-01T10:44:15Z</time>
      </trkpt>
      <trkpt lat="43.45864" lon="2.30117">
        <ele>880.7050781</ele>
        <time>2015-11-01T10:44:21Z</time>
      </trkpt>
      <trkpt lat="43.45878" lon="2.30118">
        <ele>881.185791</ele>
        <time>2015-11-01T10:44:23Z</time>
      </trkpt>
      <trkpt lat="43.45908" lon="2.30106">
        <ele>882.1469727</ele>
        <time>2015-11-01T10:44:28Z</time>
      </trkpt>
      <trkpt lat="43.45931" lon="2.30087">
        <ele>881.185791</ele>
        <time>2015-11-01T10:44:32Z</time>
      </trkpt>
      <trkpt lat="43.45956" lon="2.3008">
        <ele>880.2243652</ele>
        <time>2015-11-01T10:44:36Z</time>
      </trkpt>
      <trkpt lat="43.45992" lon="2.30083">
        <ele>881.6662598</ele>
        <time>2015-11-01T10:44:41Z</time>
      </trkpt>
      <trkpt lat="43.45998" lon="2.30084">
        <ele>882.1469727</ele>
        <time>2015-11-01T10:44:42Z</time>
      </trkpt>
      <trkpt lat="43.46016" lon="2.30084">
        <ele>882.6276855</ele>
        <time>2015-11-01T10:44:45Z</time>
      </trkpt>
      <trkpt lat="43.46047" lon="2.3008">
        <ele>885.9921875</ele>
        <time>2015-11-01T10:44:50Z</time>
      </trkpt>
      <trkpt lat="43.46072" lon="2.30088">
        <ele>888.3955078</ele>
        <time>2015-11-01T10:44:55Z</time>
      </trkpt>
      <trkpt lat="43.46084" lon="2.30096">
        <ele>890.3181152</ele>
        <time>2015-11-01T10:44:58Z</time>
      </trkpt>
      <trkpt lat="43.46108" lon="2.30108">
        <ele>890.798584</ele>
        <time>2015-11-01T10:45:02Z</time>
      </trkpt>
      <trkpt lat="43.46126" lon="2.30116">
        <ele>891.2792969</ele>
        <time>2015-11-01T10:45:05Z</time>
      </trkpt>
      <trkpt lat="43.46158" lon="2.30128">
        <ele>891.2792969</ele>
        <time>2015-11-01T10:45:11Z</time>
      </trkpt>
      <trkpt lat="43.46169" lon="2.30127">
        <ele>889.8374023</ele>
        <time>2015-11-01T10:45:13Z</time>
      </trkpt>
      <trkpt lat="43.46192" lon="2.30122">
        <ele>889.8374023</ele>
        <time>2015-11-01T10:45:17Z</time>
      </trkpt>
      <trkpt lat="43.46223" lon="2.30105">
        <ele>890.3181152</ele>
        <time>2015-11-01T10:45:23Z</time>
      </trkpt>
      <trkpt lat="43.46239" lon="2.30094">
        <ele>887.434082</ele>
        <time>2015-11-01T10:45:26Z</time>
      </trkpt>
      <trkpt lat="43.46263" lon="2.30071">
        <ele>883.5888672</ele>
        <time>2015-11-01T10:45:30Z</time>
      </trkpt>
      <trkpt lat="43.4628" lon="2.30053">
        <ele>879.2629395</ele>
        <time>2015-11-01T10:45:33Z</time>
      </trkpt>
      <trkpt lat="43.46291" lon="2.30039">
        <ele>875.8981934</ele>
        <time>2015-11-01T10:45:35Z</time>
      </trkpt>
      <trkpt lat="43.46309" lon="2.30006">
        <ele>869.6499023</ele>
        <time>2015-11-01T10:45:39Z</time>
      </trkpt>
      <trkpt lat="43.46325" lon="2.29974">
        <ele>863.4013672</ele>
        <time>2015-11-01T10:45:43Z</time>
      </trkpt>
      <trkpt lat="43.46345" lon="2.29946">
        <ele>859.0751953</ele>
        <time>2015-11-01T10:45:47Z</time>
      </trkpt>
      <trkpt lat="43.46376" lon="2.29885">
        <ele>852.3459473</ele>
        <time>2015-11-01T10:45:54Z</time>
      </trkpt>
      <trkpt lat="43.46386" lon="2.29845">
        <ele>850.9040527</ele>
        <time>2015-11-01T10:45:58Z</time>
      </trkpt>
      <trkpt lat="43.46389" lon="2.29806">
        <ele>847.5395508</ele>
        <time>2015-11-01T10:46:02Z</time>
      </trkpt>
      <trkpt lat="43.46393" lon="2.29768">
        <ele>846.5783691</ele>
        <time>2015-11-01T10:46:06Z</time>
      </trkpt>
      <trkpt lat="43.46405" lon="2.29711">
        <ele>844.6555176</ele>
        <time>2015-11-01T10:46:13Z</time>
      </trkpt>
      <trkpt lat="43.46407" lon="2.29685">
        <ele>845.1362305</ele>
        <time>2015-11-01T10:46:16Z</time>
      </trkpt>
      <trkpt lat="43.46416" lon="2.29649">
        <ele>845.6169434</ele>
        <time>2015-11-01T10:46:21Z</time>
      </trkpt>
      <trkpt lat="43.46422" lon="2.29636">
        <ele>846.0976563</ele>
        <time>2015-11-01T10:46:23Z</time>
      </trkpt>
      <trkpt lat="43.46428" lon="2.29616">
        <ele>846.5783691</ele>
        <time>2015-11-01T10:46:26Z</time>
      </trkpt>
      <trkpt lat="43.46436" lon="2.29589">
        <ele>847.0588379</ele>
        <time>2015-11-01T10:46:30Z</time>
      </trkpt>
      <trkpt lat="43.46456" lon="2.29567">
        <ele>848.0202637</ele>
        <time>2015-11-01T10:46:35Z</time>
      </trkpt>
      <trkpt lat="43.46465" lon="2.29553">
        <ele>848.5007324</ele>
        <time>2015-11-01T10:46:38Z</time>
      </trkpt>
      <trkpt lat="43.46479" lon="2.29524">
        <ele>850.9040527</ele>
        <time>2015-11-01T10:46:43Z</time>
      </trkpt>
      <trkpt lat="43.46497" lon="2.29508">
        <ele>855.2299805</ele>
        <time>2015-11-01T10:46:48Z</time>
      </trkpt>
      <trkpt lat="43.46502" lon="2.29509">
        <ele>855.7106934</ele>
        <time>2015-11-01T10:46:49Z</time>
      </trkpt>
      <trkpt lat="43.4653" lon="2.29515">
        <ele>860.0366211</ele>
        <time>2015-11-01T10:46:57Z</time>
      </trkpt>
      <trkpt lat="43.46547" lon="2.29516">
        <ele>861.9594727</ele>
        <time>2015-11-01T10:47:02Z</time>
      </trkpt>
      <trkpt lat="43.46565" lon="2.29512">
        <ele>862.9206543</ele>
        <time>2015-11-01T10:47:07Z</time>
      </trkpt>
      <trkpt lat="43.46587" lon="2.29501">
        <ele>862.9206543</ele>
        <time>2015-11-01T10:47:12Z</time>
      </trkpt>
      <trkpt lat="43.46601" lon="2.2949">
        <ele>860.517334</ele>
        <time>2015-11-01T10:47:15Z</time>
      </trkpt>
      <trkpt lat="43.46646" lon="2.29465">
        <ele>856.1911621</ele>
        <time>2015-11-01T10:47:21Z</time>
      </trkpt>
      <trkpt lat="43.46687" lon="2.2945">
        <ele>853.307373</ele>
        <time>2015-11-01T10:47:26Z</time>
      </trkpt>
      <trkpt lat="43.46734" lon="2.29437">
        <ele>854.2687988</ele>
        <time>2015-11-01T10:47:31Z</time>
      </trkpt>
      <trkpt lat="43.46789" lon="2.29405">
        <ele>849.4621582</ele>
        <time>2015-11-01T10:47:37Z</time>
      </trkpt>
      <trkpt lat="43.46822" lon="2.29388">
        <ele>848.0202637</ele>
        <time>2015-11-01T10:47:41Z</time>
      </trkpt>
      <trkpt lat="43.46848" lon="2.2937">
        <ele>843.6940918</ele>
        <time>2015-11-01T10:47:45Z</time>
      </trkpt>
      <trkpt lat="43.46854" lon="2.29363">
        <ele>842.7329102</ele>
        <time>2015-11-01T10:47:46Z</time>
      </trkpt>
      <trkpt lat="43.46899" lon="2.29306">
        <ele>835.5229492</ele>
        <time>2015-11-01T10:47:53Z</time>
      </trkpt>
      <trkpt lat="43.4691" lon="2.29288">
        <ele>833.6003418</ele>
        <time>2015-11-01T10:47:55Z</time>
      </trkpt>
      <trkpt lat="43.46934" lon="2.29241">
        <ele>832.1584473</ele>
        <time>2015-11-01T10:48:00Z</time>
      </trkpt>
      <trkpt lat="43.46938" lon="2.29233">
        <ele>831.1972656</ele>
        <time>2015-11-01T10:48:01Z</time>
      </trkpt>
      <trkpt lat="43.46961" lon="2.29176">
        <ele>827.8322754</ele>
        <time>2015-11-01T10:48:07Z</time>
      </trkpt>
      <trkpt lat="43.4699" lon="2.29142">
        <ele>823.0258789</ele>
        <time>2015-11-01T10:48:12Z</time>
      </trkpt>
      <trkpt lat="43.47011" lon="2.29137">
        <ele>820.6225586</ele>
        <time>2015-11-01T10:48:14Z</time>
      </trkpt>
      <trkpt lat="43.47063" lon="2.2912">
        <ele>814.3740234</ele>
        <time>2015-11-01T10:48:20Z</time>
      </trkpt>
      <trkpt lat="43.4711" lon="2.29108">
        <ele>808.605957</ele>
        <time>2015-11-01T10:48:25Z</time>
      </trkpt>
      <trkpt lat="43.4715" lon="2.29082">
        <ele>804.2802734</ele>
        <time>2015-11-01T10:48:30Z</time>
      </trkpt>
      <trkpt lat="43.47192" lon="2.29059">
        <ele>799.9543457</ele>
        <time>2015-11-01T10:48:35Z</time>
      </trkpt>
      <trkpt lat="43.47243" lon="2.29034">
        <ele>797.5510254</ele>
        <time>2015-11-01T10:48:41Z</time>
      </trkpt>
      <trkpt lat="43.47268" lon="2.29021">
        <ele>791.782959</ele>
        <time>2015-11-01T10:48:44Z</time>
      </trkpt>
      <trkpt lat="43.47301" lon="2.29014">
        <ele>787.4570313</ele>
        <time>2015-11-01T10:48:48Z</time>
      </trkpt>
      <trkpt lat="43.4731" lon="2.29016">
        <ele>786.9763184</ele>
        <time>2015-11-01T10:48:49Z</time>
      </trkpt>
      <trkpt lat="43.47335" lon="2.29025">
        <ele>785.0539551</ele>
        <time>2015-11-01T10:48:52Z</time>
      </trkpt>
      <trkpt lat="43.47366" lon="2.29054">
        <ele>780.2473145</ele>
        <time>2015-11-01T10:48:56Z</time>
      </trkpt>
      <trkpt lat="43.47413" lon="2.29087">
        <ele>775.9211426</ele>
        <time>2015-11-01T10:49:02Z</time>
      </trkpt>
      <trkpt lat="43.47443" lon="2.291">
        <ele>774.479248</ele>
        <time>2015-11-01T10:49:06Z</time>
      </trkpt>
      <trkpt lat="43.4746" lon="2.29103">
        <ele>771.5952148</ele>
        <time>2015-11-01T10:49:09Z</time>
      </trkpt>
      <trkpt lat="43.47473" lon="2.29093">
        <ele>767.75</ele>
        <time>2015-11-01T10:49:13Z</time>
      </trkpt>
      <trkpt lat="43.47467" lon="2.29078">
        <ele>767.2695313</ele>
        <time>2015-11-01T10:49:16Z</time>
      </trkpt>
      <trkpt lat="43.47456" lon="2.29068">
        <ele>766.3081055</ele>
        <time>2015-11-01T10:49:19Z</time>
      </trkpt>
      <trkpt lat="43.47434" lon="2.29052">
        <ele>767.2695313</ele>
        <time>2015-11-01T10:49:25Z</time>
      </trkpt>
      <trkpt lat="43.47415" lon="2.29032">
        <ele>766.3081055</ele>
        <time>2015-11-01T10:49:33Z</time>
      </trkpt>
      <trkpt lat="43.47403" lon="2.29017">
        <ele>767.2695313</ele>
        <time>2015-11-01T10:49:38Z</time>
      </trkpt>
      <trkpt lat="43.47381" lon="2.28991">
        <ele>767.75</ele>
        <time>2015-11-01T10:49:44Z</time>
      </trkpt>
      <trkpt lat="43.47368" lon="2.28972">
        <ele>767.75</ele>
        <time>2015-11-01T10:49:48Z</time>
      </trkpt>
      <trkpt lat="43.47354" lon="2.28949">
        <ele>765.8276367</ele>
        <time>2015-11-01T10:49:53Z</time>
      </trkpt>
      <trkpt lat="43.47337" lon="2.28926">
        <ele>764.8662109</ele>
        <time>2015-11-01T10:49:57Z</time>
      </trkpt>
      <trkpt lat="43.47326" lon="2.28912">
        <ele>765.8276367</ele>
        <time>2015-11-01T10:50:00Z</time>
      </trkpt>
      <trkpt lat="43.47297" lon="2.28896">
        <ele>764.8662109</ele>
        <time>2015-11-01T10:50:06Z</time>
      </trkpt>
      <trkpt lat="43.4727" lon="2.28878">
        <ele>763.4240723</ele>
        <time>2015-11-01T10:50:12Z</time>
      </trkpt>
      <trkpt lat="43.47257" lon="2.28867">
        <ele>760.5400391</ele>
        <time>2015-11-01T10:50:15Z</time>
      </trkpt>
      <trkpt lat="43.47248" lon="2.2886">
        <ele>759.0981445</ele>
        <time>2015-11-01T10:50:17Z</time>
      </trkpt>
      <trkpt lat="43.47216" lon="2.28828">
        <ele>759.0981445</ele>
        <time>2015-11-01T10:50:23Z</time>
      </trkpt>
      <trkpt lat="43.47198" lon="2.28815">
        <ele>758.1369629</ele>
        <time>2015-11-01T10:50:26Z</time>
      </trkpt>
      <trkpt lat="43.47183" lon="2.28783">
        <ele>756.2141113</ele>
        <time>2015-11-01T10:50:30Z</time>
      </trkpt>
      <trkpt lat="43.4719" lon="2.28763">
        <ele>755.2529297</ele>
        <time>2015-11-01T10:50:33Z</time>
      </trkpt>
      <trkpt lat="43.47206" lon="2.28748">
        <ele>753.3303223</ele>
        <time>2015-11-01T10:50:36Z</time>
      </trkpt>
      <trkpt lat="43.47229" lon="2.28729">
        <ele>753.3303223</ele>
        <time>2015-11-01T10:50:40Z</time>
      </trkpt>
      <trkpt lat="43.4725" lon="2.28719">
        <ele>754.291748</ele>
        <time>2015-11-01T10:50:44Z</time>
      </trkpt>
      <trkpt lat="43.47267" lon="2.28715">
        <ele>754.291748</ele>
        <time>2015-11-01T10:50:47Z</time>
      </trkpt>
      <trkpt lat="43.47279" lon="2.28711">
        <ele>754.7722168</ele>
        <time>2015-11-01T10:50:49Z</time>
      </trkpt>
      <trkpt lat="43.47315" lon="2.2871">
        <ele>759.5788574</ele>
        <time>2015-11-01T10:50:55Z</time>
      </trkpt>
      <trkpt lat="43.47338" lon="2.28709">
        <ele>758.1369629</ele>
        <time>2015-11-01T10:50:59Z</time>
      </trkpt>
      <trkpt lat="43.47365" lon="2.28693">
        <ele>757.1755371</ele>
        <time>2015-11-01T10:51:04Z</time>
      </trkpt>
      <trkpt lat="43.47369" lon="2.28687">
        <ele>755.2529297</ele>
        <time>2015-11-01T10:51:05Z</time>
      </trkpt>
      <trkpt lat="43.47385" lon="2.28663">
        <ele>750.4465332</ele>
        <time>2015-11-01T10:51:08Z</time>
      </trkpt>
      <trkpt lat="43.4741" lon="2.28637">
        <ele>749.0043945</ele>
        <time>2015-11-01T10:51:12Z</time>
      </trkpt>
      <trkpt lat="43.47432" lon="2.28628">
        <ele>745.1589355</ele>
        <time>2015-11-01T10:51:15Z</time>
      </trkpt>
      <trkpt lat="43.47447" lon="2.28613">
        <ele>741.3137207</ele>
        <time>2015-11-01T10:51:17Z</time>
      </trkpt>
      <trkpt lat="43.47467" lon="2.28586">
        <ele>735.0654297</ele>
        <time>2015-11-01T10:51:20Z</time>
      </trkpt>
      <trkpt lat="43.47484" lon="2.28556">
        <ele>730.7392578</ele>
        <time>2015-11-01T10:51:23Z</time>
      </trkpt>
      <trkpt lat="43.47508" lon="2.28492">
        <ele>724.4907227</ele>
        <time>2015-11-01T10:51:29Z</time>
      </trkpt>
      <trkpt lat="43.47529" lon="2.28445">
        <ele>720.6455078</ele>
        <time>2015-11-01T10:51:34Z</time>
      </trkpt>
      <trkpt lat="43.47546" lon="2.28422">
        <ele>718.2421875</ele>
        <time>2015-11-01T10:51:37Z</time>
      </trkpt>
      <trkpt lat="43.47593" lon="2.2839">
        <ele>717.2810059</ele>
        <time>2015-11-01T10:51:43Z</time>
      </trkpt>
      <trkpt lat="43.47623" lon="2.28349">
        <ele>719.2036133</ele>
        <time>2015-11-01T10:51:48Z</time>
      </trkpt>
      <trkpt lat="43.47623" lon="2.28317">
        <ele>716.3195801</ele>
        <time>2015-11-01T10:51:51Z</time>
      </trkpt>
      <trkpt lat="43.47611" lon="2.28295">
        <ele>714.3967285</ele>
        <time>2015-11-01T10:51:54Z</time>
      </trkpt>
      <trkpt lat="43.47593" lon="2.28293">
        <ele>714.3967285</ele>
        <time>2015-11-01T10:51:57Z</time>
      </trkpt>
      <trkpt lat="43.47574" lon="2.28304">
        <ele>714.8774414</ele>
        <time>2015-11-01T10:52:00Z</time>
      </trkpt>
      <trkpt lat="43.4757" lon="2.2831">
        <ele>715.3581543</ele>
        <time>2015-11-01T10:52:01Z</time>
      </trkpt>
      <trkpt lat="43.47565" lon="2.28323">
        <ele>715.8388672</ele>
        <time>2015-11-01T10:52:03Z</time>
      </trkpt>
      <trkpt lat="43.47556" lon="2.28337">
        <ele>715.3581543</ele>
        <time>2015-11-01T10:52:06Z</time>
      </trkpt>
      <trkpt lat="43.47551" lon="2.2834">
        <ele>713.9160156</ele>
        <time>2015-11-01T10:52:08Z</time>
      </trkpt>
      <trkpt lat="43.47548" lon="2.28336">
        <ele>712.954834</ele>
        <time>2015-11-01T10:52:12Z</time>
      </trkpt>
      <trkpt lat="43.47548" lon="2.28331">
        <ele>712.954834</ele>
        <time>2015-11-01T10:52:18Z</time>
      </trkpt>
      <trkpt lat="43.47549" lon="2.2833">
        <ele>714.3967285</ele>
        <time>2015-11-01T10:52:23Z</time>
      </trkpt>
      <trkpt lat="43.47548" lon="2.28332">
        <ele>718.7229004</ele>
        <time>2015-11-01T10:52:33Z</time>
      </trkpt>
      <trkpt lat="43.4755" lon="2.28333">
        <ele>717.7614746</ele>
        <time>2015-11-01T10:52:42Z</time>
      </trkpt>
      <trkpt lat="43.47548" lon="2.28336">
        <ele>718.2421875</ele>
        <time>2015-11-01T10:52:47Z</time>
      </trkpt>
      <trkpt lat="43.47547" lon="2.28338">
        <ele>717.7614746</ele>
        <time>2015-11-01T10:52:49Z</time>
      </trkpt>
      <trkpt lat="43.47545" lon="2.28333">
        <ele>719.2036133</ele>
        <time>2015-11-01T10:52:55Z</time>
      </trkpt>
      <trkpt lat="43.47549" lon="2.28328">
        <ele>719.2036133</ele>
        <time>2015-11-01T10:53:06Z</time>
      </trkpt>
      <trkpt lat="43.47549" lon="2.28327">
        <ele>718.7229004</ele>
        <time>2015-11-01T10:53:13Z</time>
      </trkpt>
      <trkpt lat="43.47548" lon="2.28325">
        <ele>718.7229004</ele>
        <time>2015-11-01T10:53:19Z</time>
      </trkpt>
      <trkpt lat="43.47547" lon="2.28322">
        <ele>716.3195801</ele>
        <time>2015-11-01T10:53:27Z</time>
      </trkpt>
      <trkpt lat="43.47547" lon="2.28313">
        <ele>712.954834</ele>
        <time>2015-11-01T10:53:33Z</time>
      </trkpt>
      <trkpt lat="43.47543" lon="2.28295">
        <ele>710.5515137</ele>
        <time>2015-11-01T10:53:38Z</time>
      </trkpt>
      <trkpt lat="43.47541" lon="2.28288">
        <ele>708.1484375</ele>
        <time>2015-11-01T10:53:41Z</time>
      </trkpt>
      <trkpt lat="43.4754" lon="2.28275">
        <ele>704.3032227</ele>
        <time>2015-11-01T10:53:47Z</time>
      </trkpt>
      <trkpt lat="43.47537" lon="2.28263">
        <ele>700.4580078</ele>
        <time>2015-11-01T10:53:52Z</time>
      </trkpt>
      <trkpt lat="43.47533" lon="2.28247">
        <ele>695.1704102</ele>
        <time>2015-11-01T10:53:58Z</time>
      </trkpt>
      <trkpt lat="43.47528" lon="2.28231">
        <ele>688.4414063</ele>
        <time>2015-11-01T10:54:03Z</time>
      </trkpt>
      <trkpt lat="43.47525" lon="2.28211">
        <ele>682.6733398</ele>
        <time>2015-11-01T10:54:08Z</time>
      </trkpt>
      <trkpt lat="43.47524" lon="2.28186">
        <ele>678.3474121</ele>
        <time>2015-11-01T10:54:12Z</time>
      </trkpt>
      <trkpt lat="43.47528" lon="2.28169">
        <ele>675.9440918</ele>
        <time>2015-11-01T10:54:15Z</time>
      </trkpt>
      <trkpt lat="43.47535" lon="2.28154">
        <ele>667.2922363</ele>
        <time>2015-11-01T10:54:22Z</time>
      </trkpt>
      <trkpt lat="43.47534" lon="2.28143">
        <ele>662.005127</ele>
        <time>2015-11-01T10:54:26Z</time>
      </trkpt>
      <trkpt lat="43.47531" lon="2.28125">
        <ele>662.005127</ele>
        <time>2015-11-01T10:54:31Z</time>
      </trkpt>
      <trkpt lat="43.47531" lon="2.28122">
        <ele>662.005127</ele>
        <time>2015-11-01T10:54:34Z</time>
      </trkpt>
      <trkpt lat="43.47527" lon="2.28114">
        <ele>663.4470215</ele>
        <time>2015-11-01T10:54:45Z</time>
      </trkpt>
      <trkpt lat="43.47525" lon="2.28106">
        <ele>662.005127</ele>
        <time>2015-11-01T10:54:51Z</time>
      </trkpt>
      <trkpt lat="43.47524" lon="2.28101">
        <ele>660.5629883</ele>
        <time>2015-11-01T10:54:57Z</time>
      </trkpt>
      <trkpt lat="43.4752" lon="2.28098">
        <ele>660.0822754</ele>
        <time>2015-11-01T10:55:04Z</time>
      </trkpt>
      <trkpt lat="43.47518" lon="2.28098">
        <ele>661.0437012</ele>
        <time>2015-11-01T10:55:07Z</time>
      </trkpt>
      <trkpt lat="43.47515" lon="2.28094">
        <ele>666.3308105</ele>
        <time>2015-11-01T10:55:10Z</time>
      </trkpt>
      <trkpt lat="43.47512" lon="2.28082">
        <ele>662.4855957</ele>
        <time>2015-11-01T10:55:16Z</time>
      </trkpt>
      <trkpt lat="43.47511" lon="2.2807">
        <ele>660.0822754</ele>
        <time>2015-11-01T10:55:20Z</time>
      </trkpt>
      <trkpt lat="43.47511" lon="2.28068">
        <ele>659.6018066</ele>
        <time>2015-11-01T10:55:21Z</time>
      </trkpt>
      <trkpt lat="43.47516" lon="2.28054">
        <ele>655.2758789</ele>
        <time>2015-11-01T10:55:26Z</time>
      </trkpt>
      <trkpt lat="43.47522" lon="2.28036">
        <ele>649.5078125</ele>
        <time>2015-11-01T10:55:31Z</time>
      </trkpt>
      <trkpt lat="43.47529" lon="2.28021">
        <ele>646.6240234</ele>
        <time>2015-11-01T10:55:35Z</time>
      </trkpt>
      <trkpt lat="43.47532" lon="2.28015">
        <ele>650.4692383</ele>
        <time>2015-11-01T10:55:39Z</time>
      </trkpt>
      <trkpt lat="43.4753" lon="2.28011">
        <ele>653.3532715</ele>
        <time>2015-11-01T10:55:42Z</time>
      </trkpt>
      <trkpt lat="43.47529" lon="2.27993">
        <ele>654.795166</ele>
        <time>2015-11-01T10:55:47Z</time>
      </trkpt>
      <trkpt lat="43.47539" lon="2.27978">
        <ele>656.7177734</ele>
        <time>2015-11-01T10:55:51Z</time>
      </trkpt>
      <trkpt lat="43.47546" lon="2.27962">
        <ele>652.8725586</ele>
        <time>2015-11-01T10:55:55Z</time>
      </trkpt>
      <trkpt lat="43.47544" lon="2.27955">
        <ele>650.949707</ele>
        <time>2015-11-01T10:55:57Z</time>
      </trkpt>
      <trkpt lat="43.47545" lon="2.27953">
        <ele>649.5078125</ele>
        <time>2015-11-01T10:55:59Z</time>
      </trkpt>
      <trkpt lat="43.47545" lon="2.27949">
        <ele>646.1433105</ele>
        <time>2015-11-01T10:56:07Z</time>
      </trkpt>
      <trkpt lat="43.47548" lon="2.27947">
        <ele>646.6240234</ele>
        <time>2015-11-01T10:56:15Z</time>
      </trkpt>
      <trkpt lat="43.47542" lon="2.27942">
        <ele>651.9111328</ele>
        <time>2015-11-01T10:56:25Z</time>
      </trkpt>
      <trkpt lat="43.47558" lon="2.2795">
        <ele>652.3918457</ele>
        <time>2015-11-01T10:56:31Z</time>
      </trkpt>
      <trkpt lat="43.47573" lon="2.27955">
        <ele>655.7565918</ele>
        <time>2015-11-01T10:56:36Z</time>
      </trkpt>
      <trkpt lat="43.47587" lon="2.27956">
        <ele>655.2758789</ele>
        <time>2015-11-01T10:56:40Z</time>
      </trkpt>
      <trkpt lat="43.47603" lon="2.2796">
        <ele>654.795166</ele>
        <time>2015-11-01T10:56:44Z</time>
      </trkpt>
      <trkpt lat="43.47624" lon="2.2796">
        <ele>654.3146973</ele>
        <time>2015-11-01T10:56:48Z</time>
      </trkpt>
      <trkpt lat="43.47637" lon="2.27955">
        <ele>645.6625977</ele>
        <time>2015-11-01T10:56:51Z</time>
      </trkpt>
      <trkpt lat="43.47655" lon="2.27949">
        <ele>640.855957</ele>
        <time>2015-11-01T10:56:55Z</time>
      </trkpt>
      <trkpt lat="43.4768" lon="2.27944">
        <ele>642.2980957</ele>
        <time>2015-11-01T10:57:00Z</time>
      </trkpt>
      <trkpt lat="43.47692" lon="2.27941">
        <ele>642.7788086</ele>
        <time>2015-11-01T10:57:03Z</time>
      </trkpt>
      <trkpt lat="43.47711" lon="2.27939">
        <ele>640.855957</ele>
        <time>2015-11-01T10:57:08Z</time>
      </trkpt>
      <trkpt lat="43.47715" lon="2.27939">
        <ele>640.855957</ele>
        <time>2015-11-01T10:57:09Z</time>
      </trkpt>
      <trkpt lat="43.4773" lon="2.27939">
        <ele>641.3366699</ele>
        <time>2015-11-01T10:57:12Z</time>
      </trkpt>
      <trkpt lat="43.47742" lon="2.27941">
        <ele>643.7399902</ele>
        <time>2015-11-01T10:57:15Z</time>
      </trkpt>
      <trkpt lat="43.47765" lon="2.27953">
        <ele>644.2207031</ele>
        <time>2015-11-01T10:57:22Z</time>
      </trkpt>
      <trkpt lat="43.47785" lon="2.27972">
        <ele>640.3754883</ele>
        <time>2015-11-01T10:57:27Z</time>
      </trkpt>
      <trkpt lat="43.47789" lon="2.27977">
        <ele>639.4140625</ele>
        <time>2015-11-01T10:57:28Z</time>
      </trkpt>
      <trkpt lat="43.47798" lon="2.27995">
        <ele>634.126709</ele>
        <time>2015-11-01T10:57:32Z</time>
      </trkpt>
      <trkpt lat="43.47805" lon="2.28025">
        <ele>624.5136719</ele>
        <time>2015-11-01T10:57:39Z</time>
      </trkpt>
      <trkpt lat="43.47816" lon="2.2805">
        <ele>617.3037109</ele>
        <time>2015-11-01T10:57:43Z</time>
      </trkpt>
      <trkpt lat="43.47828" lon="2.28067">
        <ele>612.4970703</ele>
        <time>2015-11-01T10:57:47Z</time>
      </trkpt>
      <trkpt lat="43.47835" lon="2.28076">
        <ele>614.9003906</ele>
        <time>2015-11-01T10:57:49Z</time>
      </trkpt>
      <trkpt lat="43.47853" lon="2.2809">
        <ele>613.4584961</ele>
        <time>2015-11-01T10:57:55Z</time>
      </trkpt>
      <trkpt lat="43.47863" lon="2.2809">
        <ele>609.1325684</ele>
        <time>2015-11-01T10:57:57Z</time>
      </trkpt>
      <trkpt lat="43.47884" lon="2.28095">
        <ele>601.9226074</ele>
        <time>2015-11-01T10:58:03Z</time>
      </trkpt>
      <trkpt lat="43.4789" lon="2.28096">
        <ele>598.0773926</ele>
        <time>2015-11-01T10:58:05Z</time>
      </trkpt>
      <trkpt lat="43.479" lon="2.28096">
        <ele>590.3869629</ele>
        <time>2015-11-01T10:58:09Z</time>
      </trkpt>
      <trkpt lat="43.47904" lon="2.28095">
        <ele>585.5800781</ele>
        <time>2015-11-01T10:58:12Z</time>
      </trkpt>
      <trkpt lat="43.4791" lon="2.28095">
        <ele>579.331543</ele>
        <time>2015-11-01T10:58:15Z</time>
      </trkpt>
      <trkpt lat="43.47922" lon="2.28092">
        <ele>574.0444336</ele>
        <time>2015-11-01T10:58:20Z</time>
      </trkpt>
      <trkpt lat="43.47936" lon="2.2809">
        <ele>571.1604004</ele>
        <time>2015-11-01T10:58:25Z</time>
      </trkpt>
      <trkpt lat="43.4795" lon="2.28085">
        <ele>568.2763672</ele>
        <time>2015-11-01T10:58:30Z</time>
      </trkpt>
      <trkpt lat="43.47977" lon="2.28081">
        <ele>570.1989746</ele>
        <time>2015-11-01T10:58:35Z</time>
      </trkpt>
      <trkpt lat="43.47988" lon="2.28078">
        <ele>569.237793</ele>
        <time>2015-11-01T10:58:37Z</time>
      </trkpt>
      <trkpt lat="43.47994" lon="2.28077">
        <ele>566.3537598</ele>
        <time>2015-11-01T10:58:40Z</time>
      </trkpt>
      <trkpt lat="43.47995" lon="2.28074">
        <ele>564.9118652</ele>
        <time>2015-11-01T10:58:42Z</time>
      </trkpt>
      <trkpt lat="43.4799" lon="2.28067">
        <ele>565.873291</ele>
        <time>2015-11-01T10:58:47Z</time>
      </trkpt>
      <trkpt lat="43.47986" lon="2.28058">
        <ele>583.1767578</ele>
        <time>2015-11-01T10:58:58Z</time>
      </trkpt>
      <trkpt lat="43.47985" lon="2.28057">
        <ele>584.6188965</ele>
        <time>2015-11-01T10:58:59Z</time>
      </trkpt>
      <trkpt lat="43.47982" lon="2.2806">
        <ele>593.7514648</ele>
        <time>2015-11-01T10:59:13Z</time>
      </trkpt>
      <trkpt lat="43.47982" lon="2.28055">
        <ele>588.9450684</ele>
        <time>2015-11-01T10:59:31Z</time>
      </trkpt>
      <trkpt lat="43.47979" lon="2.28053">
        <ele>587.0219727</ele>
        <time>2015-11-01T10:59:34Z</time>
      </trkpt>
      <trkpt lat="43.47974" lon="2.28037">
        <ele>587.0219727</ele>
        <time>2015-11-01T10:59:41Z</time>
      </trkpt>
      <trkpt lat="43.47975" lon="2.28026">
        <ele>584.1381836</ele>
        <time>2015-11-01T10:59:46Z</time>
      </trkpt>
      <trkpt lat="43.4798" lon="2.2801">
        <ele>577.4091797</ele>
        <time>2015-11-01T10:59:54Z</time>
      </trkpt>
      <trkpt lat="43.47987" lon="2.27994">
        <ele>572.6025391</ele>
        <time>2015-11-01T11:00:01Z</time>
      </trkpt>
      <trkpt lat="43.47995" lon="2.27976">
        <ele>569.7185059</ele>
        <time>2015-11-01T11:00:07Z</time>
      </trkpt>
      <trkpt lat="43.47996" lon="2.27955">
        <ele>565.873291</ele>
        <time>2015-11-01T11:00:13Z</time>
      </trkpt>
      <trkpt lat="43.47995" lon="2.27938">
        <ele>566.3537598</ele>
        <time>2015-11-01T11:00:18Z</time>
      </trkpt>
      <trkpt lat="43.48001" lon="2.27929">
        <ele>568.2763672</ele>
        <time>2015-11-01T11:00:22Z</time>
      </trkpt>
      <trkpt lat="43.48014" lon="2.27934">
        <ele>574.0444336</ele>
        <time>2015-11-01T11:00:27Z</time>
      </trkpt>
      <trkpt lat="43.4802" lon="2.27938">
        <ele>577.4091797</ele>
        <time>2015-11-01T11:00:29Z</time>
      </trkpt>
      <trkpt lat="43.48034" lon="2.27948">
        <ele>583.1767578</ele>
        <time>2015-11-01T11:00:34Z</time>
      </trkpt>
      <trkpt lat="43.4805" lon="2.27951">
        <ele>587.0219727</ele>
        <time>2015-11-01T11:00:38Z</time>
      </trkpt>
      <trkpt lat="43.48071" lon="2.27953">
        <ele>589.90625</ele>
        <time>2015-11-01T11:00:44Z</time>
      </trkpt>
      <trkpt lat="43.48087" lon="2.27952">
        <ele>593.270752</ele>
        <time>2015-11-01T11:00:49Z</time>
      </trkpt>
      <trkpt lat="43.48111" lon="2.27958">
        <ele>595.6740723</ele>
        <time>2015-11-01T11:00:56Z</time>
      </trkpt>
      <trkpt lat="43.48137" lon="2.27973">
        <ele>595.1933594</ele>
        <time>2015-11-01T11:01:03Z</time>
      </trkpt>
      <trkpt lat="43.48146" lon="2.27976">
        <ele>595.1933594</ele>
        <time>2015-11-01T11:01:06Z</time>
      </trkpt>
      <trkpt lat="43.4816" lon="2.27961">
        <ele>584.1381836</ele>
        <time>2015-11-01T11:01:11Z</time>
      </trkpt>
      <trkpt lat="43.48162" lon="2.27943">
        <ele>578.3703613</ele>
        <time>2015-11-01T11:01:15Z</time>
      </trkpt>
      <trkpt lat="43.48161" lon="2.27922">
        <ele>574.0444336</ele>
        <time>2015-11-01T11:01:21Z</time>
      </trkpt>
      <trkpt lat="43.48152" lon="2.27899">
        <ele>572.6025391</ele>
        <time>2015-11-01T11:01:27Z</time>
      </trkpt>
      <trkpt lat="43.4815" lon="2.27875">
        <ele>573.083252</ele>
        <time>2015-11-01T11:01:32Z</time>
      </trkpt>
      <trkpt lat="43.4816" lon="2.27859">
        <ele>573.083252</ele>
        <time>2015-11-01T11:01:37Z</time>
      </trkpt>
      <trkpt lat="43.48174" lon="2.2784">
        <ele>571.6408691</ele>
        <time>2015-11-01T11:01:42Z</time>
      </trkpt>
      <trkpt lat="43.48193" lon="2.27809">
        <ele>568.7570801</ele>
        <time>2015-11-01T11:01:48Z</time>
      </trkpt>
      <trkpt lat="43.48196" lon="2.27805">
        <ele>568.7570801</ele>
        <time>2015-11-01T11:01:49Z</time>
      </trkpt>
      <trkpt lat="43.48213" lon="2.27801">
        <ele>570.1989746</ele>
        <time>2015-11-01T11:01:53Z</time>
      </trkpt>
      <trkpt lat="43.48232" lon="2.27815">
        <ele>572.1218262</ele>
        <time>2015-11-01T11:01:57Z</time>
      </trkpt>
      <trkpt lat="43.48261" lon="2.27843">
        <ele>577.4091797</ele>
        <time>2015-11-01T11:02:03Z</time>
      </trkpt>
      <trkpt lat="43.48272" lon="2.27848">
        <ele>579.8122559</ele>
        <time>2015-11-01T11:02:05Z</time>
      </trkpt>
      <trkpt lat="43.48299" lon="2.27846">
        <ele>576.9284668</ele>
        <time>2015-11-01T11:02:10Z</time>
      </trkpt>
      <trkpt lat="43.48308" lon="2.27837">
        <ele>575.4863281</ele>
        <time>2015-11-01T11:02:12Z</time>
      </trkpt>
      <trkpt lat="43.48331" lon="2.27814">
        <ele>576.4477539</ele>
        <time>2015-11-01T11:02:18Z</time>
      </trkpt>
      <trkpt lat="43.48338" lon="2.27807">
        <ele>574.5251465</ele>
        <time>2015-11-01T11:02:20Z</time>
      </trkpt>
      <trkpt lat="43.48345" lon="2.27795">
        <ele>571.6408691</ele>
        <time>2015-11-01T11:02:23Z</time>
      </trkpt>
      <trkpt lat="43.4836" lon="2.27767">
        <ele>571.6408691</ele>
        <time>2015-11-01T11:02:30Z</time>
      </trkpt>
      <trkpt lat="43.48373" lon="2.27763">
        <ele>572.6025391</ele>
        <time>2015-11-01T11:02:34Z</time>
      </trkpt>
      <trkpt lat="43.48392" lon="2.27763">
        <ele>578.3703613</ele>
        <time>2015-11-01T11:02:39Z</time>
      </trkpt>
      <trkpt lat="43.4841" lon="2.27769">
        <ele>581.7348633</ele>
        <time>2015-11-01T11:02:43Z</time>
      </trkpt>
      <trkpt lat="43.48424" lon="2.27789">
        <ele>581.2543945</ele>
        <time>2015-11-01T11:02:48Z</time>
      </trkpt>
      <trkpt lat="43.4843" lon="2.27807">
        <ele>575.4863281</ele>
        <time>2015-11-01T11:02:53Z</time>
      </trkpt>
      <trkpt lat="43.48432" lon="2.27824">
        <ele>573.083252</ele>
        <time>2015-11-01T11:02:58Z</time>
      </trkpt>
      <trkpt lat="43.48438" lon="2.2785">
        <ele>573.083252</ele>
        <time>2015-11-01T11:03:05Z</time>
      </trkpt>
      <trkpt lat="43.48447" lon="2.27861">
        <ele>573.083252</ele>
        <time>2015-11-01T11:03:10Z</time>
      </trkpt>
      <trkpt lat="43.48463" lon="2.2786">
        <ele>576.9284668</ele>
        <time>2015-11-01T11:03:16Z</time>
      </trkpt>
      <trkpt lat="43.4848" lon="2.27851">
        <ele>581.7348633</ele>
        <time>2015-11-01T11:03:22Z</time>
      </trkpt>
      <trkpt lat="43.48504" lon="2.27833">
        <ele>581.7348633</ele>
        <time>2015-11-01T11:03:32Z</time>
      </trkpt>
      <trkpt lat="43.48518" lon="2.27822">
        <ele>585.0996094</ele>
        <time>2015-11-01T11:03:37Z</time>
      </trkpt>
      <trkpt lat="43.48535" lon="2.27816">
        <ele>587.5026855</ele>
        <time>2015-11-01T11:03:42Z</time>
      </trkpt>
      <trkpt lat="43.48554" lon="2.27822">
        <ele>587.5026855</ele>
        <time>2015-11-01T11:03:47Z</time>
      </trkpt>
      <trkpt lat="43.48581" lon="2.27827">
        <ele>586.060791</ele>
        <time>2015-11-01T11:03:54Z</time>
      </trkpt>
      <trkpt lat="43.48604" lon="2.27824">
        <ele>586.060791</ele>
        <time>2015-11-01T11:04:01Z</time>
      </trkpt>
      <trkpt lat="43.48624" lon="2.27808">
        <ele>584.1381836</ele>
        <time>2015-11-01T11:04:08Z</time>
      </trkpt>
      <trkpt lat="43.48646" lon="2.27795">
        <ele>585.5800781</ele>
        <time>2015-11-01T11:04:15Z</time>
      </trkpt>
      <trkpt lat="43.48671" lon="2.27776">
        <ele>584.6188965</ele>
        <time>2015-11-01T11:04:24Z</time>
      </trkpt>
      <trkpt lat="43.48689" lon="2.27758">
        <ele>583.6574707</ele>
        <time>2015-11-01T11:04:31Z</time>
      </trkpt>
      <trkpt lat="43.48704" lon="2.27748">
        <ele>582.2155762</ele>
        <time>2015-11-01T11:04:37Z</time>
      </trkpt>
      <trkpt lat="43.48724" lon="2.27748">
        <ele>583.6574707</ele>
        <time>2015-11-01T11:04:43Z</time>
      </trkpt>
      <trkpt lat="43.48742" lon="2.27751">
        <ele>586.060791</ele>
        <time>2015-11-01T11:04:49Z</time>
      </trkpt>
      <trkpt lat="43.48759" lon="2.27749">
        <ele>584.1381836</ele>
        <time>2015-11-01T11:04:55Z</time>
      </trkpt>
      <trkpt lat="43.48782" lon="2.27745">
        <ele>580.2929688</ele>
        <time>2015-11-01T11:05:03Z</time>
      </trkpt>
      <trkpt lat="43.48806" lon="2.27743">
        <ele>577.4091797</ele>
        <time>2015-11-01T11:05:10Z</time>
      </trkpt>
      <trkpt lat="43.48832" lon="2.27737">
        <ele>576.4477539</ele>
        <time>2015-11-01T11:05:17Z</time>
      </trkpt>
      <trkpt lat="43.48854" lon="2.27727">
        <ele>575.4863281</ele>
        <time>2015-11-01T11:05:23Z</time>
      </trkpt>
      <trkpt lat="43.48871" lon="2.27716">
        <ele>574.0444336</ele>
        <time>2015-11-01T11:05:28Z</time>
      </trkpt>
      <trkpt lat="43.48876" lon="2.27713">
        <ele>575.4863281</ele>
        <time>2015-11-01T11:05:29Z</time>
      </trkpt>
      <trkpt lat="43.48893" lon="2.27703">
        <ele>577.8896484</ele>
        <time>2015-11-01T11:05:33Z</time>
      </trkpt>
      <trkpt lat="43.48915" lon="2.27696">
        <ele>578.8510742</ele>
        <time>2015-11-01T11:05:37Z</time>
      </trkpt>
      <trkpt lat="43.48928" lon="2.27696">
        <ele>581.2543945</ele>
        <time>2015-11-01T11:05:42Z</time>
      </trkpt>
      <trkpt lat="43.48932" lon="2.27693">
        <ele>580.2929688</ele>
        <time>2015-11-01T11:05:49Z</time>
      </trkpt>
      <trkpt lat="43.48934" lon="2.2769">
        <ele>583.1767578</ele>
        <time>2015-11-01T11:06:00Z</time>
      </trkpt>
      <trkpt lat="43.48934" lon="2.2769">
        <ele>587.5026855</ele>
        <time>2015-11-01T11:06:11Z</time>
      </trkpt>
      <trkpt lat="43.48934" lon="2.2769">
        <ele>587.5026855</ele>
        <time>2015-11-01T11:06:36Z</time>
      </trkpt>
      <trkpt lat="43.4893" lon="2.27688">
        <ele>591.8288574</ele>
        <time>2015-11-01T11:06:44Z</time>
      </trkpt>
      <trkpt lat="43.48931" lon="2.2769">
        <ele>591.8288574</ele>
        <time>2015-11-01T11:06:51Z</time>
      </trkpt>
      <trkpt lat="43.48929" lon="2.27691">
        <ele>596.1547852</ele>
        <time>2015-11-01T11:07:01Z</time>
      </trkpt>
      <trkpt lat="43.48928" lon="2.27691">
        <ele>598.5578613</ele>
        <time>2015-11-01T11:07:07Z</time>
      </trkpt>
      <trkpt lat="43.48929" lon="2.27696">
        <ele>597.5966797</ele>
        <time>2015-11-01T11:07:17Z</time>
      </trkpt>
      <trkpt lat="43.48931" lon="2.27697">
        <ele>597.1159668</ele>
        <time>2015-11-01T11:07:19Z</time>
      </trkpt>
      <trkpt lat="43.48935" lon="2.27701">
        <ele>597.1159668</ele>
        <time>2015-11-01T11:07:21Z</time>
      </trkpt>
      <trkpt lat="43.48949" lon="2.2772">
        <ele>597.1159668</ele>
        <time>2015-11-01T11:07:27Z</time>
      </trkpt>
      <trkpt lat="43.48965" lon="2.27746">
        <ele>591.3481445</ele>
        <time>2015-11-01T11:07:32Z</time>
      </trkpt>
      <trkpt lat="43.48984" lon="2.27763">
        <ele>587.9833984</ele>
        <time>2015-11-01T11:07:36Z</time>
      </trkpt>
      <trkpt lat="43.49012" lon="2.2779">
        <ele>578.3703613</ele>
        <time>2015-11-01T11:07:42Z</time>
      </trkpt>
      <trkpt lat="43.4903" lon="2.2779">
        <ele>575.4863281</ele>
        <time>2015-11-01T11:07:45Z</time>
      </trkpt>
      <trkpt lat="43.49057" lon="2.27783">
        <ele>569.237793</ele>
        <time>2015-11-01T11:07:49Z</time>
      </trkpt>
      <trkpt lat="43.49088" lon="2.27793">
        <ele>563.9504395</ele>
        <time>2015-11-01T11:07:53Z</time>
      </trkpt>
      <trkpt lat="43.49095" lon="2.27796">
        <ele>563.4699707</ele>
        <time>2015-11-01T11:07:54Z</time>
      </trkpt>
      <trkpt lat="43.49147" lon="2.27795">
        <ele>556.7407227</ele>
        <time>2015-11-01T11:08:01Z</time>
      </trkpt>
      <trkpt lat="43.49191" lon="2.27783">
        <ele>552.4145508</ele>
        <time>2015-11-01T11:08:06Z</time>
      </trkpt>
      <trkpt lat="43.49201" lon="2.2778">
        <ele>551.4533691</ele>
        <time>2015-11-01T11:08:07Z</time>
      </trkpt>
      <trkpt lat="43.49246" lon="2.27749">
        <ele>540.8789063</ele>
        <time>2015-11-01T11:08:12Z</time>
      </trkpt>
      <trkpt lat="43.49299" lon="2.27721">
        <ele>534.1496582</ele>
        <time>2015-11-01T11:08:18Z</time>
      </trkpt>
      <trkpt lat="43.49317" lon="2.27711">
        <ele>534.1496582</ele>
        <time>2015-11-01T11:08:20Z</time>
      </trkpt>
      <trkpt lat="43.49336" lon="2.27694">
        <ele>534.1496582</ele>
        <time>2015-11-01T11:08:23Z</time>
      </trkpt>
      <trkpt lat="43.49374" lon="2.27669">
        <ele>532.7077637</ele>
        <time>2015-11-01T11:08:29Z</time>
      </trkpt>
      <trkpt lat="43.49408" lon="2.27654">
        <ele>531.2657471</ele>
        <time>2015-11-01T11:08:34Z</time>
      </trkpt>
      <trkpt lat="43.49438" lon="2.27645">
        <ele>533.1883545</ele>
        <time>2015-11-01T11:08:39Z</time>
      </trkpt>
      <trkpt lat="43.49454" lon="2.2764">
        <ele>532.2270508</ele>
        <time>2015-11-01T11:08:42Z</time>
      </trkpt>
      <trkpt lat="43.49471" lon="2.27632">
        <ele>530.7851563</ele>
        <time>2015-11-01T11:08:45Z</time>
      </trkpt>
      <trkpt lat="43.49485" lon="2.27622">
        <ele>531.2657471</ele>
        <time>2015-11-01T11:08:48Z</time>
      </trkpt>
      <trkpt lat="43.49501" lon="2.2761">
        <ele>534.1496582</ele>
        <time>2015-11-01T11:08:52Z</time>
      </trkpt>
      <trkpt lat="43.49514" lon="2.27605">
        <ele>537.5142822</ele>
        <time>2015-11-01T11:08:56Z</time>
      </trkpt>
      <trkpt lat="43.49534" lon="2.27601">
        <ele>542.3209229</ele>
        <time>2015-11-01T11:09:02Z</time>
      </trkpt>
      <trkpt lat="43.49547" lon="2.27604">
        <ele>545.204834</ele>
        <time>2015-11-01T11:09:07Z</time>
      </trkpt>
      <trkpt lat="43.49559" lon="2.27607">
        <ele>545.6855469</ele>
        <time>2015-11-01T11:09:12Z</time>
      </trkpt>
      <trkpt lat="43.49573" lon="2.27601">
        <ele>547.6081543</ele>
        <time>2015-11-01T11:09:17Z</time>
      </trkpt>
      <trkpt lat="43.49585" lon="2.27582">
        <ele>536.5531006</ele>
        <time>2015-11-01T11:09:22Z</time>
      </trkpt>
      <trkpt lat="43.49595" lon="2.27565">
        <ele>537.5142822</ele>
        <time>2015-11-01T11:09:27Z</time>
      </trkpt>
      <trkpt lat="43.49602" lon="2.27546">
        <ele>537.5142822</ele>
        <time>2015-11-01T11:09:32Z</time>
      </trkpt>
      <trkpt lat="43.49613" lon="2.27526">
        <ele>537.5142822</ele>
        <time>2015-11-01T11:09:38Z</time>
      </trkpt>
      <trkpt lat="43.49621" lon="2.27512">
        <ele>537.9949951</ele>
        <time>2015-11-01T11:09:43Z</time>
      </trkpt>
      <trkpt lat="43.4963" lon="2.27496">
        <ele>536.5531006</ele>
        <time>2015-11-01T11:09:49Z</time>
      </trkpt>
      <trkpt lat="43.49639" lon="2.27486">
        <ele>538.9562988</ele>
        <time>2015-11-01T11:09:54Z</time>
      </trkpt>
      <trkpt lat="43.49645" lon="2.27473">
        <ele>544.7242432</ele>
        <time>2015-11-01T11:10:00Z</time>
      </trkpt>
      <trkpt lat="43.49658" lon="2.27468">
        <ele>547.6081543</ele>
        <time>2015-11-01T11:10:05Z</time>
      </trkpt>
      <trkpt lat="43.49678" lon="2.27467">
        <ele>545.204834</ele>
        <time>2015-11-01T11:10:10Z</time>
      </trkpt>
      <trkpt lat="43.49702" lon="2.27471">
        <ele>541.84021</ele>
        <time>2015-11-01T11:10:16Z</time>
      </trkpt>
      <trkpt lat="43.49722" lon="2.27474">
        <ele>539.9176025</ele>
        <time>2015-11-01T11:10:22Z</time>
      </trkpt>
      <trkpt lat="43.49745" lon="2.27474">
        <ele>540.8789063</ele>
        <time>2015-11-01T11:10:28Z</time>
      </trkpt>
      <trkpt lat="43.49771" lon="2.27471">
        <ele>537.9949951</ele>
        <time>2015-11-01T11:10:36Z</time>
      </trkpt>
      <trkpt lat="43.49795" lon="2.27461">
        <ele>534.1496582</ele>
        <time>2015-11-01T11:10:42Z</time>
      </trkpt>
      <trkpt lat="43.49828" lon="2.27439">
        <ele>530.3044434</ele>
        <time>2015-11-01T11:10:49Z</time>
      </trkpt>
      <trkpt lat="43.49856" lon="2.27415">
        <ele>528.3818359</ele>
        <time>2015-11-01T11:10:54Z</time>
      </trkpt>
      <trkpt lat="43.49881" lon="2.27382">
        <ele>523.5751953</ele>
        <time>2015-11-01T11:10:59Z</time>
      </trkpt>
      <trkpt lat="43.49906" lon="2.27344">
        <ele>518.7685547</ele>
        <time>2015-11-01T11:11:03Z</time>
      </trkpt>
      <trkpt lat="43.49928" lon="2.27317">
        <ele>516.8459473</ele>
        <time>2015-11-01T11:11:06Z</time>
      </trkpt>
      <trkpt lat="43.49965" lon="2.2729">
        <ele>514.9233398</ele>
        <time>2015-11-01T11:11:11Z</time>
      </trkpt>
      <trkpt lat="43.4997" lon="2.27286">
        <ele>513.9620361</ele>
        <time>2015-11-01T11:11:12Z</time>
      </trkpt>
      <trkpt lat="43.49989" lon="2.2728">
        <ele>514.442627</ele>
        <time>2015-11-01T11:11:16Z</time>
      </trkpt>
      <trkpt lat="43.49998" lon="2.27279">
        <ele>514.9233398</ele>
        <time>2015-11-01T11:11:18Z</time>
      </trkpt>
      <trkpt lat="43.50018" lon="2.27275">
        <ele>517.3266602</ele>
        <time>2015-11-01T11:11:22Z</time>
      </trkpt>
      <trkpt lat="43.50029" lon="2.27274">
        <ele>516.3652344</ele>
        <time>2015-11-01T11:11:24Z</time>
      </trkpt>
      <trkpt lat="43.50037" lon="2.27275">
        <ele>517.807251</ele>
        <time>2015-11-01T11:11:26Z</time>
      </trkpt>
      <trkpt lat="43.50044" lon="2.27279">
        <ele>521.1719971</ele>
        <time>2015-11-01T11:11:28Z</time>
      </trkpt>
      <trkpt lat="43.50052" lon="2.27285">
        <ele>519.7298584</ele>
        <time>2015-11-01T11:11:31Z</time>
      </trkpt>
      <trkpt lat="43.50075" lon="2.27293">
        <ele>515.4040527</ele>
        <time>2015-11-01T11:11:36Z</time>
      </trkpt>
      <trkpt lat="43.50083" lon="2.27295">
        <ele>510.59729</ele>
        <time>2015-11-01T11:11:40Z</time>
      </trkpt>
      <trkpt lat="43.50085" lon="2.27295">
        <ele>508.6746826</ele>
        <time>2015-11-01T11:11:41Z</time>
      </trkpt>
      <trkpt lat="43.5011" lon="2.27293">
        <ele>503.3874512</ele>
        <time>2015-11-01T11:11:46Z</time>
      </trkpt>
      <trkpt lat="43.50136" lon="2.27284">
        <ele>497.6196289</ele>
        <time>2015-11-01T11:11:51Z</time>
      </trkpt>
      <trkpt lat="43.5015" lon="2.27279">
        <ele>492.8129883</ele>
        <time>2015-11-01T11:11:54Z</time>
      </trkpt>
      <trkpt lat="43.5016" lon="2.27266">
        <ele>489.9290771</ele>
        <time>2015-11-01T11:11:59Z</time>
      </trkpt>
      <trkpt lat="43.5016" lon="2.27261">
        <ele>488.4871826</ele>
        <time>2015-11-01T11:12:00Z</time>
      </trkpt>
      <trkpt lat="43.5017" lon="2.27229">
        <ele>484.1611328</ele>
        <time>2015-11-01T11:12:05Z</time>
      </trkpt>
      <trkpt lat="43.50177" lon="2.27204">
        <ele>480.315918</ele>
        <time>2015-11-01T11:12:10Z</time>
      </trkpt>
      <trkpt lat="43.50179" lon="2.27197">
        <ele>479.3544922</ele>
        <time>2015-11-01T11:12:12Z</time>
      </trkpt>
      <trkpt lat="43.5019" lon="2.27173">
        <ele>473.5866699</ele>
        <time>2015-11-01T11:12:19Z</time>
      </trkpt>
      <trkpt lat="43.50202" lon="2.27155">
        <ele>467.8187256</ele>
        <time>2015-11-01T11:12:23Z</time>
      </trkpt>
      <trkpt lat="43.50222" lon="2.27132">
        <ele>458.2055664</ele>
        <time>2015-11-01T11:12:28Z</time>
      </trkpt>
      <trkpt lat="43.50232" lon="2.27122">
        <ele>457.2442627</ele>
        <time>2015-11-01T11:12:30Z</time>
      </trkpt>
      <trkpt lat="43.50256" lon="2.27098">
        <ele>450.5150146</ele>
        <time>2015-11-01T11:12:35Z</time>
      </trkpt>
      <trkpt lat="43.50272" lon="2.2708">
        <ele>443.3050537</ele>
        <time>2015-11-01T11:12:39Z</time>
      </trkpt>
      <trkpt lat="43.50292" lon="2.27049">
        <ele>437.5371094</ele>
        <time>2015-11-01T11:12:44Z</time>
      </trkpt>
      <trkpt lat="43.503" lon="2.27039">
        <ele>436.5759277</ele>
        <time>2015-11-01T11:12:46Z</time>
      </trkpt>
      <trkpt lat="43.50322" lon="2.2701">
        <ele>434.6533203</ele>
        <time>2015-11-01T11:12:52Z</time>
      </trkpt>
      <trkpt lat="43.50326" lon="2.27005">
        <ele>434.1726074</ele>
        <time>2015-11-01T11:12:53Z</time>
      </trkpt>
      <trkpt lat="43.50335" lon="2.26977">
        <ele>431.769165</ele>
        <time>2015-11-01T11:12:57Z</time>
      </trkpt>
      <trkpt lat="43.50341" lon="2.26958">
        <ele>431.769165</ele>
        <time>2015-11-01T11:12:59Z</time>
      </trkpt>
      <trkpt lat="43.50353" lon="2.26933">
        <ele>427.9239502</ele>
        <time>2015-11-01T11:13:02Z</time>
      </trkpt>
      <trkpt lat="43.50369" lon="2.26912">
        <ele>422.6367188</ele>
        <time>2015-11-01T11:13:06Z</time>
      </trkpt>
      <trkpt lat="43.50372" lon="2.26906">
        <ele>422.1560059</ele>
        <time>2015-11-01T11:13:10Z</time>
      </trkpt>
      <trkpt lat="43.50371" lon="2.26907">
        <ele>422.1560059</ele>
        <time>2015-11-01T11:13:11Z</time>
      </trkpt>
      <trkpt lat="43.50369" lon="2.26911">
        <ele>421.1948242</ele>
        <time>2015-11-01T11:13:16Z</time>
      </trkpt>
      <trkpt lat="43.50371" lon="2.26907">
        <ele>424.0787354</ele>
        <time>2015-11-01T11:13:21Z</time>
      </trkpt>
      <trkpt lat="43.5038" lon="2.26897">
        <ele>423.1174316</ele>
        <time>2015-11-01T11:13:25Z</time>
      </trkpt>
      <trkpt lat="43.50396" lon="2.26864">
        <ele>421.1948242</ele>
        <time>2015-11-01T11:13:30Z</time>
      </trkpt>
      <trkpt lat="43.50399" lon="2.26857">
        <ele>421.675415</ele>
        <time>2015-11-01T11:13:31Z</time>
      </trkpt>
      <trkpt lat="43.50407" lon="2.26839">
        <ele>419.2722168</ele>
        <time>2015-11-01T11:13:34Z</time>
      </trkpt>
      <trkpt lat="43.50429" lon="2.268">
        <ele>413.0235596</ele>
        <time>2015-11-01T11:13:40Z</time>
      </trkpt>
      <trkpt lat="43.50434" lon="2.26794">
        <ele>411.581665</ele>
        <time>2015-11-01T11:13:41Z</time>
      </trkpt>
      <trkpt lat="43.50458" lon="2.2678">
        <ele>407.2556152</ele>
        <time>2015-11-01T11:13:45Z</time>
      </trkpt>
      <trkpt lat="43.50492" lon="2.26759">
        <ele>401.0070801</ele>
        <time>2015-11-01T11:13:51Z</time>
      </trkpt>
      <trkpt lat="43.50496" lon="2.26756">
        <ele>400.5264893</ele>
        <time>2015-11-01T11:13:52Z</time>
      </trkpt>
      <trkpt lat="43.5052" lon="2.26747">
        <ele>395.7198486</ele>
        <time>2015-11-01T11:13:58Z</time>
      </trkpt>
      <trkpt lat="43.50533" lon="2.26732">
        <ele>391.3937988</ele>
        <time>2015-11-01T11:14:03Z</time>
      </trkpt>
      <trkpt lat="43.50534" lon="2.26731">
        <ele>390.913208</ele>
        <time>2015-11-01T11:14:04Z</time>
      </trkpt>
      <trkpt lat="43.50535" lon="2.26731">
        <ele>389.9519043</ele>
        <time>2015-11-01T11:14:20Z</time>
      </trkpt>
      <trkpt lat="43.50538" lon="2.26729">
        <ele>394.2779541</ele>
        <time>2015-11-01T11:14:36Z</time>
      </trkpt>
      <trkpt lat="43.50538" lon="2.2673">
        <ele>395.2391357</ele>
        <time>2015-11-01T11:14:45Z</time>
      </trkpt>
      <trkpt lat="43.50538" lon="2.2673">
        <ele>396.2005615</ele>
        <time>2015-11-01T11:15:01Z</time>
      </trkpt>
      <trkpt lat="43.50538" lon="2.2673">
        <ele>395.2391357</ele>
        <time>2015-11-01T11:15:09Z</time>
      </trkpt>
      <trkpt lat="43.50538" lon="2.26731">
        <ele>392.8359375</ele>
        <time>2015-11-01T11:15:16Z</time>
      </trkpt>
      <trkpt lat="43.50537" lon="2.26731">
        <ele>390.913208</ele>
        <time>2015-11-01T11:15:25Z</time>
      </trkpt>
      <trkpt lat="43.50536" lon="2.26728">
        <ele>390.913208</ele>
        <time>2015-11-01T11:15:33Z</time>
      </trkpt>
      <trkpt lat="43.50538" lon="2.26726">
        <ele>390.913208</ele>
        <time>2015-11-01T11:15:36Z</time>
      </trkpt>
      <trkpt lat="43.50541" lon="2.2673">
        <ele>389.4711914</ele>
        <time>2015-11-01T11:15:40Z</time>
      </trkpt>
      <trkpt lat="43.50543" lon="2.2674">
        <ele>386.5874023</ele>
        <time>2015-11-01T11:15:44Z</time>
      </trkpt>
      <trkpt lat="43.50553" lon="2.26742">
        <ele>383.2226563</ele>
        <time>2015-11-01T11:15:48Z</time>
      </trkpt>
      <trkpt lat="43.50556" lon="2.26741">
        <ele>382.2613525</ele>
        <time>2015-11-01T11:15:49Z</time>
      </trkpt>
      <trkpt lat="43.50575" lon="2.2674">
        <ele>377.9354248</ele>
        <time>2015-11-01T11:15:55Z</time>
      </trkpt>
      <trkpt lat="43.50589" lon="2.26729">
        <ele>373.6094971</ele>
        <time>2015-11-01T11:15:59Z</time>
      </trkpt>
      <trkpt lat="43.50592" lon="2.26727">
        <ele>372.1674805</ele>
        <time>2015-11-01T11:16:00Z</time>
      </trkpt>
      <trkpt lat="43.50609" lon="2.26729">
        <ele>368.8029785</ele>
        <time>2015-11-01T11:16:04Z</time>
      </trkpt>
      <trkpt lat="43.50618" lon="2.26719">
        <ele>365.4383545</ele>
        <time>2015-11-01T11:16:07Z</time>
      </trkpt>
      <trkpt lat="43.50621" lon="2.26712">
        <ele>363.9963379</ele>
        <time>2015-11-01T11:16:08Z</time>
      </trkpt>
      <trkpt lat="43.50648" lon="2.26691">
        <ele>359.6704102</ele>
        <time>2015-11-01T11:16:14Z</time>
      </trkpt>
      <trkpt lat="43.50668" lon="2.2669">
        <ele>355.3444824</ele>
        <time>2015-11-01T11:16:17Z</time>
      </trkpt>
      <trkpt lat="43.50707" lon="2.26689">
        <ele>349.0958252</ele>
        <time>2015-11-01T11:16:23Z</time>
      </trkpt>
      <trkpt lat="43.50736" lon="2.26697">
        <ele>345.2506104</ele>
        <time>2015-11-01T11:16:27Z</time>
      </trkpt>
      <trkpt lat="43.5075" lon="2.26699">
        <ele>344.2894287</ele>
        <time>2015-11-01T11:16:29Z</time>
      </trkpt>
      <trkpt lat="43.5078" lon="2.26697">
        <ele>341.8859863</ele>
        <time>2015-11-01T11:16:34Z</time>
      </trkpt>
      <trkpt lat="43.50785" lon="2.26696">
        <ele>340.9246826</ele>
        <time>2015-11-01T11:16:35Z</time>
      </trkpt>
      <trkpt lat="43.50796" lon="2.26695">
        <ele>339.482666</ele>
        <time>2015-11-01T11:16:37Z</time>
      </trkpt>
      <trkpt lat="43.50817" lon="2.26683">
        <ele>335.6373291</ele>
        <time>2015-11-01T11:16:41Z</time>
      </trkpt>
      <trkpt lat="43.50826" lon="2.26676">
        <ele>333.7147217</ele>
        <time>2015-11-01T11:16:43Z</time>
      </trkpt>
      <trkpt lat="43.50847" lon="2.2666">
        <ele>327.4661865</ele>
        <time>2015-11-01T11:16:47Z</time>
      </trkpt>
      <trkpt lat="43.50865" lon="2.26642">
        <ele>321.2177734</ele>
        <time>2015-11-01T11:16:51Z</time>
      </trkpt>
      <trkpt lat="43.50878" lon="2.26635">
        <ele>315.4498291</ele>
        <time>2015-11-01T11:16:55Z</time>
      </trkpt>
      <trkpt lat="43.50883" lon="2.26628">
        <ele>312.0852051</ele>
        <time>2015-11-01T11:16:57Z</time>
      </trkpt>
      <trkpt lat="43.50901" lon="2.2662">
        <ele>307.2785645</ele>
        <time>2015-11-01T11:17:02Z</time>
      </trkpt>
      <trkpt lat="43.50925" lon="2.26621">
        <ele>305.8366699</ele>
        <time>2015-11-01T11:17:06Z</time>
      </trkpt>
      <trkpt lat="43.5093" lon="2.26622">
        <ele>305.8366699</ele>
        <time>2015-11-01T11:17:07Z</time>
      </trkpt>
      <trkpt lat="43.50956" lon="2.26616">
        <ele>306.3172607</ele>
        <time>2015-11-01T11:17:12Z</time>
      </trkpt>
      <trkpt lat="43.50974" lon="2.26613">
        <ele>304.8752441</ele>
        <time>2015-11-01T11:17:15Z</time>
      </trkpt>
      <trkpt lat="43.50991" lon="2.26616">
        <ele>301.991333</ele>
        <time>2015-11-01T11:17:20Z</time>
      </trkpt>
      <trkpt lat="43.51004" lon="2.26622">
        <ele>301.5106201</ele>
        <time>2015-11-01T11:17:25Z</time>
      </trkpt>
      <trkpt lat="43.51022" lon="2.26624">
        <ele>304.3946533</ele>
        <time>2015-11-01T11:17:29Z</time>
      </trkpt>
      <trkpt lat="43.5103" lon="2.26632">
        <ele>303.9139404</ele>
        <time>2015-11-01T11:17:32Z</time>
      </trkpt>
      <trkpt lat="43.5103" lon="2.2664">
        <ele>303.4332275</ele>
        <time>2015-11-01T11:17:34Z</time>
      </trkpt>
      <trkpt lat="43.51025" lon="2.26677">
        <ele>300.5493164</ele>
        <time>2015-11-01T11:17:41Z</time>
      </trkpt>
      <trkpt lat="43.51021" lon="2.267">
        <ele>300.5493164</ele>
        <time>2015-11-01T11:17:46Z</time>
      </trkpt>
      <trkpt lat="43.5103" lon="2.26714">
        <ele>299.1072998</ele>
        <time>2015-11-01T11:17:50Z</time>
      </trkpt>
      <trkpt lat="43.51043" lon="2.2672">
        <ele>298.1461182</ele>
        <time>2015-11-01T11:17:53Z</time>
      </trkpt>
      <trkpt lat="43.51055" lon="2.26731">
        <ele>295.7426758</ele>
        <time>2015-11-01T11:17:57Z</time>
      </trkpt>
      <trkpt lat="43.51058" lon="2.26732">
        <ele>294.7813721</ele>
        <time>2015-11-01T11:17:58Z</time>
      </trkpt>
      <trkpt lat="43.51082" lon="2.26739">
        <ele>293.3393555</ele>
        <time>2015-11-01T11:18:03Z</time>
      </trkpt>
      <trkpt lat="43.51097" lon="2.2675">
        <ele>289.9748535</ele>
        <time>2015-11-01T11:18:07Z</time>
      </trkpt>
      <trkpt lat="43.51106" lon="2.26756">
        <ele>288.532959</ele>
        <time>2015-11-01T11:18:09Z</time>
      </trkpt>
      <trkpt lat="43.51116" lon="2.26766">
        <ele>285.6488037</ele>
        <time>2015-11-01T11:18:12Z</time>
      </trkpt>
      <trkpt lat="43.51132" lon="2.26777">
        <ele>279.4002686</ele>
        <time>2015-11-01T11:18:18Z</time>
      </trkpt>
      <trkpt lat="43.51147" lon="2.26771">
        <ele>277.958252</ele>
        <time>2015-11-01T11:18:21Z</time>
      </trkpt>
      <trkpt lat="43.51154" lon="2.26771">
        <ele>277.958252</ele>
        <time>2015-11-01T11:18:24Z</time>
      </trkpt>
      <trkpt lat="43.51155" lon="2.26774">
        <ele>276.9970703</ele>
        <time>2015-11-01T11:18:25Z</time>
      </trkpt>
      <trkpt lat="43.51156" lon="2.268">
        <ele>272.6711426</ele>
        <time>2015-11-01T11:18:30Z</time>
      </trkpt>
      <trkpt lat="43.51152" lon="2.26828">
        <ele>269.7871094</ele>
        <time>2015-11-01T11:18:34Z</time>
      </trkpt>
      <trkpt lat="43.5115" lon="2.26857">
        <ele>264.4998779</ele>
        <time>2015-11-01T11:18:38Z</time>
      </trkpt>
      <trkpt lat="43.51152" lon="2.26886">
        <ele>258.7319336</ele>
        <time>2015-11-01T11:18:42Z</time>
      </trkpt>
      <trkpt lat="43.51165" lon="2.26911">
        <ele>253.925415</ele>
        <time>2015-11-01T11:18:47Z</time>
      </trkpt>
      <trkpt lat="43.51184" lon="2.26923">
        <ele>249.5994873</ele>
        <time>2015-11-01T11:18:51Z</time>
      </trkpt>
      <trkpt lat="43.51189" lon="2.26925">
        <ele>249.1187744</ele>
        <time>2015-11-01T11:18:52Z</time>
      </trkpt>
      <trkpt lat="43.51215" lon="2.26939">
        <ele>251.5220947</ele>
        <time>2015-11-01T11:18:57Z</time>
      </trkpt>
      <trkpt lat="43.51238" lon="2.26942">
        <ele>250.560791</ele>
        <time>2015-11-01T11:19:01Z</time>
      </trkpt>
      <trkpt lat="43.51265" lon="2.26943">
        <ele>251.0413818</ele>
        <time>2015-11-01T11:19:06Z</time>
      </trkpt>
      <trkpt lat="43.51294" lon="2.26952">
        <ele>254.4060059</ele>
        <time>2015-11-01T11:19:11Z</time>
      </trkpt>
      <trkpt lat="43.51303" lon="2.26957">
        <ele>256.8093262</ele>
        <time>2015-11-01T11:19:13Z</time>
      </trkpt>
      <trkpt lat="43.51317" lon="2.26963">
        <ele>255.8480225</ele>
        <time>2015-11-01T11:19:16Z</time>
      </trkpt>
      <trkpt lat="43.51326" lon="2.26968">
        <ele>255.8480225</ele>
        <time>2015-11-01T11:19:18Z</time>
      </trkpt>
      <trkpt lat="43.51337" lon="2.26977">
        <ele>254.8865967</ele>
        <time>2015-11-01T11:19:21Z</time>
      </trkpt>
      <trkpt lat="43.51349" lon="2.2699">
        <ele>255.3673096</ele>
        <time>2015-11-01T11:19:25Z</time>
      </trkpt>
      <trkpt lat="43.51358" lon="2.26999">
        <ele>256.3287354</ele>
        <time>2015-11-01T11:19:30Z</time>
      </trkpt>
      <trkpt lat="43.51359" lon="2.27">
        <ele>254.4060059</ele>
        <time>2015-11-01T11:19:40Z</time>
      </trkpt>
      <trkpt lat="43.51359" lon="2.27">
        <ele>253.4447021</ele>
        <time>2015-11-01T11:19:45Z</time>
      </trkpt>
      <trkpt lat="43.5136" lon="2.27">
        <ele>253.925415</ele>
        <time>2015-11-01T11:19:52Z</time>
      </trkpt>
      <trkpt lat="43.51362" lon="2.27001">
        <ele>252.4833984</ele>
        <time>2015-11-01T11:19:59Z</time>
      </trkpt>
      <trkpt lat="43.51363" lon="2.26998">
        <ele>253.925415</ele>
        <time>2015-11-01T11:20:03Z</time>
      </trkpt>
      <trkpt lat="43.51364" lon="2.26994">
        <ele>254.8865967</ele>
        <time>2015-11-01T11:20:05Z</time>
      </trkpt>
      <trkpt lat="43.51375" lon="2.26979">
        <ele>254.8865967</ele>
        <time>2015-11-01T11:20:10Z</time>
      </trkpt>
      <trkpt lat="43.51393" lon="2.2695">
        <ele>254.8865967</ele>
        <time>2015-11-01T11:20:16Z</time>
      </trkpt>
      <trkpt lat="43.51396" lon="2.26945">
        <ele>255.3673096</ele>
        <time>2015-11-01T11:20:17Z</time>
      </trkpt>
      <trkpt lat="43.51419" lon="2.26925">
        <ele>256.3287354</ele>
        <time>2015-11-01T11:20:22Z</time>
      </trkpt>
      <trkpt lat="43.51448" lon="2.269">
        <ele>257.2900391</ele>
        <time>2015-11-01T11:20:28Z</time>
      </trkpt>
      <trkpt lat="43.51467" lon="2.26881">
        <ele>258.2513428</ele>
        <time>2015-11-01T11:20:32Z</time>
      </trkpt>
      <trkpt lat="43.51485" lon="2.26862">
        <ele>258.7319336</ele>
        <time>2015-11-01T11:20:36Z</time>
      </trkpt>
      <trkpt lat="43.51512" lon="2.26833">
        <ele>260.1739502</ele>
        <time>2015-11-01T11:20:42Z</time>
      </trkpt>
      <trkpt lat="43.51539" lon="2.26801">
        <ele>260.654541</ele>
        <time>2015-11-01T11:20:49Z</time>
      </trkpt>
      <trkpt lat="43.51563" lon="2.26762">
        <ele>262.0965576</ele>
        <time>2015-11-01T11:20:57Z</time>
      </trkpt>
      <trkpt lat="43.51576" lon="2.26744">
        <ele>262.5771484</ele>
        <time>2015-11-01T11:21:01Z</time>
      </trkpt>
      <trkpt lat="43.51585" lon="2.26723">
        <ele>262.5771484</ele>
        <time>2015-11-01T11:21:05Z</time>
      </trkpt>
      <trkpt lat="43.51588" lon="2.26692">
        <ele>263.0578613</ele>
        <time>2015-11-01T11:21:10Z</time>
      </trkpt>
      <trkpt lat="43.51587" lon="2.26685">
        <ele>263.0578613</ele>
        <time>2015-11-01T11:21:11Z</time>
      </trkpt>
      <trkpt lat="43.5158" lon="2.26641">
        <ele>263.5385742</ele>
        <time>2015-11-01T11:21:18Z</time>
      </trkpt>
      <trkpt lat="43.51577" lon="2.26629">
        <ele>263.5385742</ele>
        <time>2015-11-01T11:21:20Z</time>
      </trkpt>
      <trkpt lat="43.51572" lon="2.26611">
        <ele>264.0192871</ele>
        <time>2015-11-01T11:21:23Z</time>
      </trkpt>
      <trkpt lat="43.51553" lon="2.2659">
        <ele>264.0192871</ele>
        <time>2015-11-01T11:21:28Z</time>
      </trkpt>
      <trkpt lat="43.51548" lon="2.26587">
        <ele>264.0192871</ele>
        <time>2015-11-01T11:21:29Z</time>
      </trkpt>
      <trkpt lat="43.51499" lon="2.26577">
        <ele>264.0192871</ele>
        <time>2015-11-01T11:21:39Z</time>
      </trkpt>
      <trkpt lat="43.51472" lon="2.2657">
        <ele>264.4998779</ele>
        <time>2015-11-01T11:21:45Z</time>
      </trkpt>
      <trkpt lat="43.51467" lon="2.26569">
        <ele>264.4998779</ele>
        <time>2015-11-01T11:21:46Z</time>
      </trkpt>
      <trkpt lat="43.51454" lon="2.26561">
        <ele>264.0192871</ele>
        <time>2015-11-01T11:21:49Z</time>
      </trkpt>
      <trkpt lat="43.51439" lon="2.26542">
        <ele>263.5385742</ele>
        <time>2015-11-01T11:21:53Z</time>
      </trkpt>
      <trkpt lat="43.51424" lon="2.26495">
        <ele>264.0192871</ele>
        <time>2015-11-01T11:22:00Z</time>
      </trkpt>
      <trkpt lat="43.51407" lon="2.26445">
        <ele>263.0578613</ele>
        <time>2015-11-01T11:22:07Z</time>
      </trkpt>
      <trkpt lat="43.51381" lon="2.26396">
        <ele>263.5385742</ele>
        <time>2015-11-01T11:22:14Z</time>
      </trkpt>
      <trkpt lat="43.5135" lon="2.26349">
        <ele>263.0578613</ele>
        <time>2015-11-01T11:22:21Z</time>
      </trkpt>
      <trkpt lat="43.5134" lon="2.26336">
        <ele>263.0578613</ele>
        <time>2015-11-01T11:22:23Z</time>
      </trkpt>
      <trkpt lat="43.51293" lon="2.26301">
        <ele>260.654541</ele>
        <time>2015-11-01T11:22:31Z</time>
      </trkpt>
      <trkpt lat="43.51276" lon="2.26288">
        <ele>260.1739502</ele>
        <time>2015-11-01T11:22:34Z</time>
      </trkpt>
      <trkpt lat="43.51256" lon="2.26253">
        <ele>260.1739502</ele>
        <time>2015-11-01T11:22:39Z</time>
      </trkpt>
      <trkpt lat="43.51254" lon="2.26244">
        <ele>259.6933594</ele>
        <time>2015-11-01T11:22:40Z</time>
      </trkpt>
      <trkpt lat="43.51248" lon="2.26175">
        <ele>259.2126465</ele>
        <time>2015-11-01T11:22:48Z</time>
      </trkpt>
      <trkpt lat="43.51246" lon="2.26117">
        <ele>260.1739502</ele>
        <time>2015-11-01T11:22:55Z</time>
      </trkpt>
      <trkpt lat="43.51249" lon="2.26082">
        <ele>263.0578613</ele>
        <time>2015-11-01T11:23:00Z</time>
      </trkpt>
      <trkpt lat="43.51254" lon="2.26055">
        <ele>264.4998779</ele>
        <time>2015-11-01T11:23:06Z</time>
      </trkpt>
      <trkpt lat="43.5126" lon="2.26022">
        <ele>265.9418945</ele>
        <time>2015-11-01T11:23:14Z</time>
      </trkpt>
      <trkpt lat="43.51267" lon="2.25989">
        <ele>267.864502</ele>
        <time>2015-11-01T11:23:22Z</time>
      </trkpt>
      <trkpt lat="43.51273" lon="2.25959">
        <ele>269.3065186</ele>
        <time>2015-11-01T11:23:30Z</time>
      </trkpt>
      <trkpt lat="43.51274" lon="2.25954">
        <ele>269.7871094</ele>
        <time>2015-11-01T11:23:32Z</time>
      </trkpt>
      <trkpt lat="43.51278" lon="2.25939">
        <ele>270.2677002</ele>
        <time>2015-11-01T11:23:39Z</time>
      </trkpt>
      <trkpt lat="43.51286" lon="2.25903">
        <ele>272.1904297</ele>
        <time>2015-11-01T11:23:49Z</time>
      </trkpt>
      <trkpt lat="43.51293" lon="2.25871">
        <ele>274.1130371</ele>
        <time>2015-11-01T11:23:58Z</time>
      </trkpt>
      <trkpt lat="43.51301" lon="2.25832">
        <ele>277.4776611</ele>
        <time>2015-11-01T11:24:08Z</time>
      </trkpt>
      <trkpt lat="43.51306" lon="2.25808">
        <ele>278.4389648</ele>
        <time>2015-11-01T11:24:15Z</time>
      </trkpt>
      <trkpt lat="43.51308" lon="2.25788">
        <ele>279.4002686</ele>
        <time>2015-11-01T11:24:22Z</time>
      </trkpt>
      <trkpt lat="43.5131" lon="2.25769">
        <ele>279.4002686</ele>
        <time>2015-11-01T11:24:29Z</time>
      </trkpt>
      <trkpt lat="43.51311" lon="2.25754">
        <ele>280.3616943</ele>
        <time>2015-11-01T11:24:34Z</time>
      </trkpt>
    </trkseg>
  </trk>
</gpx>